Time,TemperatureF,DewpointF,PressureIn,WindDirection,WindDirectionDegrees,WindSpeedMPH,WindSpeedGustMPH,Humidity,HourlyPrecipIn,Conditions,Clouds,dailyrainin,SoftwareType,DateUTC
2013-01-07 00:00:00,21.1,15.3,29.87,SE,139,9.0,16.0,78,0.00,,BKN300,0.00,VWS V14.01,2013-01-07 06:00:00,
2013-01-07 00:01:00,21.1,15.3,29.87,SE,136,6.0,9.0,78,0.00,,BKN300,0.00,VWS V14.01,2013-01-07 06:01:00,
2013-01-07 00:02:00,21.3,15.5,29.87,SE,136,11.0,12.0,78,0.00,,BKN300,0.00,VWS V14.01,2013-01-07 06:02:00,
2013-01-07 00:03:00,21.3,15.5,29.87,SSE,158,7.0,12.0,78,0.00,,BKN300,0.00,VWS V14.01,2013-01-07 06:03:00,
2013-01-07 00:04:00,21.3,15.5,29.87,SE,132,7.0,12.0,78,0.00,,BKN300,0.00,VWS V14.01,2013-01-07 06:04:00,
2013-01-07 00:05:00,21.4,15.6,29.87,SSE,156,6.0,12.0,78,0.00,,BKN300,0.00,VWS V14.01,2013-01-07 06:05:00,
2013-01-07 00:06:00,21.6,15.8,29.87,SE,134,11.0,18.0,78,0.00,,BKN300,0.00,VWS V14.01,2013-01-07 06:06:00,
2013-01-07 00:07:00,21.8,16.0,29.87,SE,142,4.0,18.0,78,0.00,,BKN300,0.00,VWS V14.01,2013-01-07 06:07:00,
2013-01-07 00:08:00,21.8,16.0,29.87,ESE,106,6.0,18.0,78,0.00,,BKN300,0.00,VWS V14.01,2013-01-07 06:08:00,
2013-01-07 00:09:00,21.9,16.1,29.87,SE,137,11.0,18.0,78,0.00,,BKN300,0.00,VWS V14.01,2013-01-07 06:09:00,
2013-01-07 00:10:00,22.1,16.3,29.87,SSE,149,6.0,18.0,78,0.00,,BKN300,0.00,VWS V14.01,2013-01-07 06:10:00,
2013-01-07 00:11:00,22.2,16.4,29.87,SE,146,13.0,18.0,78,0.00,,BKN300,0.00,VWS V14.01,2013-01-07 06:11:00,
2013-01-07 00:12:00,22.4,16.6,29.87,SE,130,11.0,18.0,78,0.00,,BKN300,0.00,VWS V14.01,2013-01-07 06:12:00,
2013-01-07 00:13:00,22.4,16.6,29.87,SSE,158,10.0,18.0,78,0.00,,BKN300,0.00,VWS V14.01,2013-01-07 06:13:00,
2013-01-07 00:14:00,22.7,16.9,29.87,SE,137,7.0,18.0,78,0.00,,BKN300,0.00,VWS V14.01,2013-01-07 06:14:00,
2013-01-07 00:15:00,22.9,16.8,29.85,SSE,158,14.0,18.0,77,0.00,,BKN300,0.00,VWS V14.01,2013-01-07 06:15:00,
2013-01-07 00:16:00,23.0,16.9,29.85,SE,129,8.0,18.0,77,0.00,,BKN300,0.00,VWS V14.01,2013-01-07 06:16:00,
2013-01-07 00:17:00,23.0,16.9,29.85,SE,140,12.0,18.0,77,0.00,,BKN300,0.00,VWS V14.01,2013-01-07 06:17:00,
2013-01-07 00:18:00,23.2,17.1,29.85,SE,136,17.0,18.0,77,0.00,,BKN300,0.00,VWS V14.01,2013-01-07 06:18:00,
2013-01-07 00:19:00,23.5,17.4,29.85,SSE,160,11.0,18.0,77,0.00,,BKN300,0.00,VWS V14.01,2013-01-07 06:19:00,
2013-01-07 00:20:00,23.6,17.5,29.85,SSE,158,3.0,18.0,77,0.00,,BKN300,0.00,VWS V14.01,2013-01-07 06:20:00,
2013-01-07 00:21:00,23.6,17.2,29.85,SSE,147,12.0,18.0,76,0.00,,BKN300,0.00,VWS V14.01,2013-01-07 06:21:00,
2013-01-07 00:22:00,23.8,17.4,29.85,SSE,150,10.0,18.0,76,0.00,,BKN300,0.00,VWS V14.01,2013-01-07 06:22:00,
2013-01-07 00:23:00,23.9,17.5,29.85,SSE,147,12.0,18.0,76,0.00,,BKN300,0.00,VWS V14.01,2013-01-07 06:23:00,
2013-01-07 00:24:00,24.1,17.6,29.85,SE,143,7.0,18.0,76,0.00,,BKN300,0.00,VWS V14.01,2013-01-07 06:24:00,
2013-01-07 00:25:00,24.1,17.6,29.85,SE,129,11.0,18.0,76,0.00,,BKN300,0.00,VWS V14.01,2013-01-07 06:25:00,
2013-01-07 00:26:00,24.2,17.7,29.85,SE,126,10.0,18.0,76,0.00,,BKN300,0.00,VWS V14.01,2013-01-07 06:26:00,
2013-01-07 00:27:00,24.4,17.6,29.85,SE,133,13.0,18.0,75,0.00,,BKN300,0.00,VWS V14.01,2013-01-07 06:27:00,
2013-01-07 00:28:00,24.4,17.6,29.85,SE,130,13.0,18.0,75,0.00,,BKN300,0.00,VWS V14.01,2013-01-07 06:28:00,
2013-01-07 00:29:00,24.5,17.7,29.85,ESE,119,9.0,18.0,75,0.00,,BKN300,0.00,VWS V14.01,2013-01-07 06:29:00,
2013-01-07 00:30:00,24.7,17.9,29.83,SE,132,6.0,18.0,75,0.00,,OVC300,0.00,VWS V14.01,2013-01-07 06:30:00,
2013-01-07 00:31:00,24.7,17.9,29.83,SE,143,7.0,16.0,75,0.00,,OVC300,0.00,VWS V14.01,2013-01-07 06:31:00,
2013-01-07 00:32:00,24.7,17.9,29.83,SSE,150,10.0,16.0,75,0.00,,OVC300,0.00,VWS V14.01,2013-01-07 06:32:00,
2013-01-07 00:33:00,24.8,18.0,29.83,ESE,113,8.0,16.0,75,0.00,,OVC300,0.00,VWS V14.01,2013-01-07 06:33:00,
2013-01-07 00:34:00,24.8,18.0,29.83,South,175,7.0,16.0,75,0.00,,OVC300,0.00,VWS V14.01,2013-01-07 06:34:00,
2013-01-07 00:35:00,24.8,18.0,29.83,ESE,123,14.0,16.0,75,0.00,,OVC300,0.00,VWS V14.01,2013-01-07 06:35:00,
2013-01-07 00:36:00,25.0,18.2,29.83,ESE,122,9.0,16.0,75,0.00,,OVC300,0.00,VWS V14.01,2013-01-07 06:36:00,
2013-01-07 00:37:00,25.1,18.3,29.83,SE,142,10.0,17.0,75,0.00,,OVC300,0.00,VWS V14.01,2013-01-07 06:37:00,
2013-01-07 00:38:00,25.1,18.0,29.83,ESE,116,10.0,17.0,74,0.00,,OVC300,0.00,VWS V14.01,2013-01-07 06:38:00,
2013-01-07 00:39:00,25.3,18.2,29.83,SE,139,8.0,17.0,74,0.00,,OVC300,0.00,VWS V14.01,2013-01-07 06:39:00,
2013-01-07 00:40:00,25.3,18.2,29.83,SE,143,6.0,17.0,74,0.00,,OVC300,0.00,VWS V14.01,2013-01-07 06:40:00,
2013-01-07 00:41:00,25.3,18.2,29.83,SE,129,9.0,17.0,74,0.00,,OVC300,0.00,VWS V14.01,2013-01-07 06:41:00,
2013-01-07 00:42:00,25.3,18.2,29.83,ESE,123,8.0,17.0,74,0.00,,OVC300,0.00,VWS V14.01,2013-01-07 06:42:00,
2013-01-07 00:43:00,25.3,18.2,29.83,SE,140,10.0,17.0,74,0.00,,OVC300,0.00,VWS V14.01,2013-01-07 06:43:00,
2013-01-07 00:44:00,25.3,18.2,29.83,SE,127,8.0,17.0,74,0.00,,OVC300,0.00,VWS V14.01,2013-01-07 06:44:00,
2013-01-07 00:45:00,25.3,18.2,29.82,SE,134,8.0,17.0,74,0.00,,OVC300,0.00,VWS V14.01,2013-01-07 06:45:00,
2013-01-07 00:46:00,25.3,18.2,29.82,ESE,115,10.0,17.0,74,0.00,,OVC300,0.00,VWS V14.01,2013-01-07 06:46:00,
2013-01-07 00:47:00,25.3,18.2,29.82,SSE,156,10.0,17.0,74,0.00,,OVC300,0.00,VWS V14.01,2013-01-07 06:47:00,
2013-01-07 00:48:00,25.3,18.2,29.82,SE,136,12.0,17.0,74,0.00,,OVC300,0.00,VWS V14.01,2013-01-07 06:48:00,
2013-01-07 00:49:00,25.4,18.3,29.82,SE,134,13.0,18.0,74,0.00,,OVC300,0.00,VWS V14.01,2013-01-07 06:49:00,
2013-01-07 00:50:00,25.4,18.3,29.82,SE,127,8.0,18.0,74,0.00,,OVC300,0.00,VWS V14.01,2013-01-07 06:50:00,
2013-01-07 00:51:00,25.4,18.3,29.82,SE,133,13.0,18.0,74,0.00,,OVC300,0.00,VWS V14.01,2013-01-07 06:51:00,
2013-01-07 00:52:00,25.4,18.3,29.82,SE,140,10.0,18.0,74,0.00,,OVC300,0.00,VWS V14.01,2013-01-07 06:52:00,
2013-01-07 00:53:00,25.4,18.0,29.82,SSE,161,14.0,18.0,73,0.00,,OVC300,0.00,VWS V14.01,2013-01-07 06:53:00,
2013-01-07 00:54:00,25.4,18.0,29.82,SE,143,7.0,18.0,73,0.00,,OVC300,0.00,VWS V14.01,2013-01-07 06:54:00,
2013-01-07 00:55:00,25.4,18.0,29.82,SE,126,12.0,20.0,73,0.00,,OVC300,0.00,VWS V14.01,2013-01-07 06:55:00,
2013-01-07 00:56:00,25.4,18.0,29.82,SSE,149,14.0,20.0,73,0.00,,OVC300,0.00,VWS V14.01,2013-01-07 06:56:00,
2013-01-07 00:57:00,25.4,18.0,29.82,SE,126,11.0,20.0,73,0.00,,OVC300,0.00,VWS V14.01,2013-01-07 06:57:00,
2013-01-07 00:58:00,25.4,18.0,29.82,SE,139,13.0,20.0,73,0.00,,OVC300,0.00,VWS V14.01,2013-01-07 06:58:00,
2013-01-07 00:59:00,25.4,18.0,29.82,SSE,153,12.0,20.0,73,0.00,,OVC300,0.00,VWS V14.01,2013-01-07 06:59:00,
2013-01-07 01:00:00,25.4,18.0,29.82,SE,127,7.0,20.0,73,0.00,,OVC300,0.00,VWS V14.01,2013-01-07 07:00:00,
2013-01-07 01:01:00,25.4,18.3,29.82,ESE,122,11.0,13.0,74,0.00,,OVC300,0.00,VWS V14.01,2013-01-07 07:01:00,
2013-01-07 01:02:00,25.3,18.2,29.82,SE,136,10.0,13.0,74,0.00,,OVC300,0.00,VWS V14.01,2013-01-07 07:02:00,
2013-01-07 01:03:00,25.3,18.2,29.82,ESE,115,10.0,17.0,74,0.00,,OVC300,0.00,VWS V14.01,2013-01-07 07:03:00,
2013-01-07 01:04:00,25.3,18.2,29.82,ESE,122,6.0,17.0,74,0.00,,OVC300,0.00,VWS V14.01,2013-01-07 07:04:00,
2013-01-07 01:05:00,25.3,18.2,29.82,SE,144,8.0,17.0,74,0.00,,OVC300,0.00,VWS V14.01,2013-01-07 07:05:00,
2013-01-07 01:06:00,25.3,18.2,29.82,SE,126,6.0,17.0,74,0.00,,OVC300,0.00,VWS V14.01,2013-01-07 07:06:00,
2013-01-07 01:07:00,25.3,18.2,29.82,SSE,150,7.0,17.0,74,0.00,,OVC300,0.00,VWS V14.01,2013-01-07 07:07:00,
2013-01-07 01:08:00,25.3,18.2,29.82,SSE,156,6.0,17.0,74,0.00,,OVC300,0.00,VWS V14.01,2013-01-07 07:08:00,
2013-01-07 01:09:00,25.3,18.2,29.82,South,173,10.0,17.0,74,0.00,,OVC300,0.00,VWS V14.01,2013-01-07 07:09:00,
2013-01-07 01:10:00,25.3,18.2,29.82,SSE,147,7.0,17.0,74,0.00,,OVC300,0.00,VWS V14.01,2013-01-07 07:10:00,
2013-01-07 01:11:00,25.3,18.2,29.82,SE,136,12.0,17.0,74,0.00,,OVC300,0.00,VWS V14.01,2013-01-07 07:11:00,
2013-01-07 01:12:00,25.3,18.2,29.82,SE,129,8.0,17.0,74,0.00,,OVC300,0.00,VWS V14.01,2013-01-07 07:12:00,
2013-01-07 01:13:00,25.3,18.2,29.82,ESE,122,12.0,17.0,74,0.00,,OVC300,0.00,VWS V14.01,2013-01-07 07:13:00,
2013-01-07 01:14:00,25.3,18.2,29.82,SE,139,10.0,17.0,74,0.00,,OVC300,0.00,VWS V14.01,2013-01-07 07:14:00,
2013-01-07 01:15:00,25.3,18.2,29.81,SE,130,14.0,17.0,74,0.00,,OVC300,0.00,VWS V14.01,2013-01-07 07:15:00,
2013-01-07 01:16:00,25.4,18.3,29.81,SE,139,10.0,17.0,74,0.00,,OVC300,0.00,VWS V14.01,2013-01-07 07:16:00,
2013-01-07 01:17:00,25.4,18.3,29.81,ESE,116,11.0,17.0,74,0.00,,OVC300,0.00,VWS V14.01,2013-01-07 07:17:00,
2013-01-07 01:18:00,25.6,18.5,29.81,SE,134,11.0,17.0,74,0.00,,OVC300,0.00,VWS V14.01,2013-01-07 07:18:00,
2013-01-07 01:19:00,25.6,18.2,29.81,SSE,147,13.0,19.0,73,0.00,,OVC300,0.00,VWS V14.01,2013-01-07 07:19:00,
2013-01-07 01:20:00,25.7,18.3,29.81,ESE,116,7.0,19.0,73,0.00,,OVC300,0.00,VWS V14.01,2013-01-07 07:20:00,
2013-01-07 01:21:00,25.7,18.3,29.81,SE,125,9.0,19.0,73,0.00,,OVC300,0.00,VWS V14.01,2013-01-07 07:21:00,
2013-01-07 01:22:00,25.7,18.3,29.81,SW,223,4.0,19.0,73,0.00,,OVC300,0.00,VWS V14.01,2013-01-07 07:22:00,
2013-01-07 01:23:00,25.7,18.3,29.81,SE,126,10.0,19.0,73,0.00,,OVC300,0.00,VWS V14.01,2013-01-07 07:23:00,
2013-01-07 01:24:00,25.7,18.3,29.81,SE,142,7.0,19.0,73,0.00,,OVC300,0.00,VWS V14.01,2013-01-07 07:24:00,
2013-01-07 01:25:00,25.7,18.3,29.81,SE,143,11.0,19.0,73,0.00,,OVC300,0.00,VWS V14.01,2013-01-07 07:25:00,
2013-01-07 01:26:00,25.7,18.3,29.81,SSE,166,17.0,19.0,73,0.00,,OVC300,0.00,VWS V14.01,2013-01-07 07:26:00,
2013-01-07 01:27:00,25.7,18.3,29.81,SE,142,7.0,19.0,73,0.00,,OVC300,0.00,VWS V14.01,2013-01-07 07:27:00,
2013-01-07 01:28:00,25.7,18.3,29.81,SE,127,10.0,19.0,73,0.00,,OVC300,0.00,VWS V14.01,2013-01-07 07:28:00,
2013-01-07 01:29:00,25.8,18.4,29.81,SSE,156,3.0,19.0,73,0.00,,OVC300,0.00,VWS V14.01,2013-01-07 07:29:00,
2013-01-07 01:30:00,25.8,18.4,29.81,SE,127,7.0,19.0,73,0.00,,OVC300,0.00,VWS V14.01,2013-01-07 07:30:00,
2013-01-07 01:31:00,25.8,18.4,29.81,SE,136,6.0,13.0,73,0.00,,OVC300,0.00,VWS V14.01,2013-01-07 07:31:00,
2013-01-07 01:32:00,25.8,18.4,29.81,ESE,113,8.0,13.0,73,0.00,,OVC300,0.00,VWS V14.01,2013-01-07 07:32:00,
2013-01-07 01:33:00,25.8,18.4,29.81,SE,134,7.0,17.0,73,0.00,,OVC300,0.00,VWS V14.01,2013-01-07 07:33:00,
2013-01-07 01:34:00,25.8,18.4,29.81,ESE,123,17.0,18.0,73,0.00,,OVC300,0.00,VWS V14.01,2013-01-07 07:34:00,
2013-01-07 01:35:00,26.0,18.5,29.81,SE,134,6.0,18.0,73,0.00,,OVC300,0.00,VWS V14.01,2013-01-07 07:35:00,
2013-01-07 01:36:00,26.0,18.5,29.81,ESE,122,7.0,18.0,73,0.00,,OVC300,0.00,VWS V14.01,2013-01-07 07:36:00,
2013-01-07 01:37:00,26.1,18.6,29.81,SE,139,11.0,19.0,73,0.00,,OVC300,0.00,VWS V14.01,2013-01-07 07:37:00,
2013-01-07 01:38:00,26.3,18.8,29.81,SSE,149,13.0,19.0,73,0.00,,OVC300,0.00,VWS V14.01,2013-01-07 07:38:00,
2013-01-07 01:39:00,26.4,18.9,29.81,SE,136,8.0,19.0,73,0.00,,OVC300,0.00,VWS V14.01,2013-01-07 07:39:00,
2013-01-07 01:40:00,26.6,19.1,29.81,SSW,202,2.0,19.0,73,0.00,,OVC300,0.00,VWS V14.01,2013-01-07 07:40:00,
2013-01-07 01:41:00,26.7,18.9,29.81,ESE,119,1.0,19.0,72,0.00,,OVC300,0.00,VWS V14.01,2013-01-07 07:41:00,
2013-01-07 01:42:00,26.9,19.1,29.81,SSE,154,7.0,19.0,72,0.00,,OVC300,0.00,VWS V14.01,2013-01-07 07:42:00,
2013-01-07 01:43:00,27.0,19.2,29.81,SE,143,7.0,22.0,72,0.00,,OVC300,0.00,VWS V14.01,2013-01-07 07:43:00,
2013-01-07 01:44:00,27.2,19.4,29.81,SSE,163,7.0,22.0,72,0.00,,OVC300,0.00,VWS V14.01,2013-01-07 07:44:00,
2013-01-07 01:45:00,27.3,19.1,29.80,SE,133,14.0,22.0,71,0.00,,OVC300,0.00,VWS V14.01,2013-01-07 07:45:00,
2013-01-07 01:46:00,27.5,19.4,29.80,SSE,147,14.0,22.0,71,0.00,,OVC300,0.00,VWS V14.01,2013-01-07 07:46:00,
2013-01-07 01:47:00,27.6,19.4,29.80,SE,129,15.0,22.0,71,0.00,,OVC300,0.00,VWS V14.01,2013-01-07 07:47:00,
2013-01-07 01:48:00,27.6,19.4,29.80,ESE,116,14.0,22.0,71,0.00,,OVC300,0.00,VWS V14.01,2013-01-07 07:48:00,
2013-01-07 01:49:00,27.6,19.1,29.80,SE,130,17.0,22.0,70,0.00,,OVC300,0.00,VWS V14.01,2013-01-07 07:49:00,
2013-01-07 01:50:00,27.8,19.3,29.80,SE,129,12.0,22.0,70,0.00,,OVC300,0.00,VWS V14.01,2013-01-07 07:50:00,
2013-01-07 01:51:00,27.8,19.3,29.80,South,178,21.0,22.0,70,0.00,,OVC300,0.00,VWS V14.01,2013-01-07 07:51:00,
2013-01-07 01:52:00,27.8,19.3,29.80,SSE,149,11.0,22.0,70,0.00,,OVC300,0.00,VWS V14.01,2013-01-07 07:52:00,
2013-01-07 01:53:00,27.9,19.4,29.80,SE,132,8.0,22.0,70,0.00,,OVC300,0.00,VWS V14.01,2013-01-07 07:53:00,
2013-01-07 01:54:00,27.9,19.4,29.80,South,181,17.0,22.0,70,0.00,,OVC300,0.00,VWS V14.01,2013-01-07 07:54:00,
2013-01-07 01:55:00,28.1,19.6,29.80,SE,146,12.0,22.0,70,0.00,,OVC300,0.00,VWS V14.01,2013-01-07 07:55:00,
2013-01-07 01:56:00,28.1,19.6,29.80,ESE,112,10.0,22.0,70,0.00,,OVC300,0.00,VWS V14.01,2013-01-07 07:56:00,
2013-01-07 01:57:00,28.1,19.6,29.80,SE,126,9.0,22.0,70,0.00,,OVC300,0.00,VWS V14.01,2013-01-07 07:57:00,
2013-01-07 01:58:00,28.1,19.6,29.80,SSE,167,14.0,22.0,70,0.00,,OVC300,0.00,VWS V14.01,2013-01-07 07:58:00,
2013-01-07 01:59:00,28.2,19.7,29.80,ESE,118,5.0,22.0,70,0.00,,OVC300,0.00,VWS V14.01,2013-01-07 07:59:00,
2013-01-07 02:00:00,28.1,19.6,29.78,ESE,122,9.0,22.0,70,0.00,,OVC300,0.00,VWS V14.01,2013-01-07 08:00:00,
2013-01-07 02:01:00,28.1,19.6,29.78,SE,139,7.0,14.0,70,0.00,,OVC300,0.00,VWS V14.01,2013-01-07 08:01:00,
2013-01-07 02:02:00,28.1,19.6,29.78,SE,133,14.0,18.0,70,0.00,,OVC300,0.00,VWS V14.01,2013-01-07 08:02:00,
2013-01-07 02:03:00,28.2,19.7,29.78,SE,142,12.0,19.0,70,0.00,,OVC300,0.00,VWS V14.01,2013-01-07 08:03:00,
2013-01-07 02:04:00,28.2,19.7,29.78,SSE,158,16.0,19.0,70,0.00,,OVC300,0.00,VWS V14.01,2013-01-07 08:04:00,
2013-01-07 02:05:00,28.2,19.4,29.78,SE,136,17.0,19.0,69,0.00,,OVC300,0.00,VWS V14.01,2013-01-07 08:05:00,
2013-01-07 02:06:00,28.4,19.5,29.78,SSE,160,10.0,19.0,69,0.00,,OVC300,0.00,VWS V14.01,2013-01-07 08:06:00,
2013-01-07 02:07:00,28.4,19.5,29.78,SSE,150,10.0,19.0,69,0.00,,OVC300,0.00,VWS V14.01,2013-01-07 08:07:00,
2013-01-07 02:08:00,28.4,19.5,29.78,SW,236,11.0,19.0,69,0.00,,OVC300,0.00,VWS V14.01,2013-01-07 08:08:00,
2013-01-07 02:09:00,28.4,19.5,29.78,SSE,153,7.0,19.0,69,0.00,,OVC300,0.00,VWS V14.01,2013-01-07 08:09:00,
2013-01-07 02:10:00,28.4,19.5,29.78,SE,129,12.0,19.0,69,0.00,,OVC300,0.00,VWS V14.01,2013-01-07 08:10:00,
2013-01-07 02:11:00,28.4,19.5,29.78,ESE,122,5.0,19.0,69,0.00,,OVC300,0.00,VWS V14.01,2013-01-07 08:11:00,
2013-01-07 02:12:00,28.4,19.5,29.78,South,187,8.0,19.0,69,0.00,,OVC300,0.00,VWS V14.01,2013-01-07 08:12:00,
2013-01-07 02:13:00,28.4,19.5,29.78,East,91,8.0,19.0,69,0.00,,OVC300,0.00,VWS V14.01,2013-01-07 08:13:00,
2013-01-07 02:14:00,28.4,19.5,29.78,SSW,201,16.0,19.0,69,0.00,,OVC300,0.00,VWS V14.01,2013-01-07 08:14:00,
2013-01-07 02:15:00,28.5,19.6,29.77,ESE,115,11.0,19.0,69,0.00,,OVC300,0.00,VWS V14.01,2013-01-07 08:15:00,
2013-01-07 02:16:00,28.5,19.3,29.77,ESE,113,15.0,19.0,68,0.00,,OVC300,0.00,VWS V14.01,2013-01-07 08:16:00,
2013-01-07 02:17:00,28.7,19.5,29.77,ESE,123,10.0,19.0,68,0.00,,OVC300,0.00,VWS V14.01,2013-01-07 08:17:00,
2013-01-07 02:18:00,28.7,19.5,29.77,ESE,105,19.0,20.0,68,0.00,,OVC300,0.00,VWS V14.01,2013-01-07 08:18:00,
2013-01-07 02:19:00,28.7,19.5,29.77,ESE,116,12.0,20.0,68,0.00,,OVC300,0.00,VWS V14.01,2013-01-07 08:19:00,
2013-01-07 02:20:00,28.8,19.6,29.77,SE,136,8.0,21.0,68,0.00,,OVC300,0.00,VWS V14.01,2013-01-07 08:20:00,
2013-01-07 02:21:00,28.8,19.6,29.77,SE,125,11.0,21.0,68,0.00,,OVC300,0.00,VWS V14.01,2013-01-07 08:21:00,
2013-01-07 02:22:00,28.8,19.6,29.77,SE,126,7.0,21.0,68,0.00,,OVC300,0.00,VWS V14.01,2013-01-07 08:22:00,
2013-01-07 02:23:00,28.8,19.6,29.77,ESE,113,11.0,21.0,68,0.00,,OVC300,0.00,VWS V14.01,2013-01-07 08:23:00,
2013-01-07 02:24:00,29.0,19.8,29.77,South,185,2.0,21.0,68,0.00,,OVC300,0.00,VWS V14.01,2013-01-07 08:24:00,
2013-01-07 02:25:00,29.0,19.8,29.77,West,262,7.0,21.0,68,0.00,,OVC300,0.00,VWS V14.01,2013-01-07 08:25:00,
2013-01-07 02:26:00,29.0,19.8,29.77,SSW,209,6.0,21.0,68,0.00,,OVC300,0.00,VWS V14.01,2013-01-07 08:26:00,
2013-01-07 02:27:00,29.1,19.9,29.77,SSE,167,6.0,21.0,68,0.00,,OVC300,0.00,VWS V14.01,2013-01-07 08:27:00,
2013-01-07 02:28:00,29.1,19.5,29.77,ESE,115,6.0,21.0,67,0.00,,OVC300,0.00,VWS V14.01,2013-01-07 08:28:00,
2013-01-07 02:29:00,29.1,19.5,29.77,South,181,11.0,21.0,67,0.00,,OVC300,0.00,VWS V14.01,2013-01-07 08:29:00,
2013-01-07 02:30:00,29.3,19.7,29.78,ESE,113,7.0,21.0,67,0.00,,BKN300,0.00,VWS V14.01,2013-01-07 08:30:00,
2013-01-07 02:31:00,29.3,19.7,29.78,ESE,109,0.0,13.0,67,0.00,,BKN300,0.00,VWS V14.01,2013-01-07 08:31:00,
2013-01-07 02:32:00,29.3,19.7,29.78,SE,134,5.0,13.0,67,0.00,,BKN300,0.00,VWS V14.01,2013-01-07 08:32:00,
2013-01-07 02:33:00,29.3,19.7,29.78,WSW,253,2.0,18.0,67,0.00,,BKN300,0.00,VWS V14.01,2013-01-07 08:33:00,
2013-01-07 02:34:00,29.3,19.7,29.78,SE,129,7.0,18.0,67,0.00,,BKN300,0.00,VWS V14.01,2013-01-07 08:34:00,
2013-01-07 02:35:00,29.4,19.8,29.78,SSE,150,6.0,18.0,67,0.00,,BKN300,0.00,VWS V14.01,2013-01-07 08:35:00,
2013-01-07 02:36:00,29.4,19.8,29.78,SSE,161,13.0,26.0,67,0.00,,BKN300,0.00,VWS V14.01,2013-01-07 08:36:00,
2013-01-07 02:37:00,29.4,19.8,29.78,SSE,156,13.0,26.0,67,0.00,,BKN300,0.00,VWS V14.01,2013-01-07 08:37:00,
2013-01-07 02:38:00,29.5,19.9,29.78,ESE,116,12.0,26.0,67,0.00,,BKN300,0.00,VWS V14.01,2013-01-07 08:38:00,
2013-01-07 02:39:00,29.5,19.9,29.78,SE,134,14.0,26.0,67,0.00,,BKN300,0.00,VWS V14.01,2013-01-07 08:39:00,
2013-01-07 02:40:00,29.5,19.9,29.78,SE,136,9.0,26.0,67,0.00,,BKN300,0.00,VWS V14.01,2013-01-07 08:40:00,
2013-01-07 02:41:00,29.5,19.9,29.78,SE,142,13.0,26.0,67,0.00,,BKN300,0.00,VWS V14.01,2013-01-07 08:41:00,
2013-01-07 02:42:00,29.5,19.9,29.78,SE,134,9.0,26.0,67,0.00,,BKN300,0.00,VWS V14.01,2013-01-07 08:42:00,
2013-01-07 02:43:00,29.5,19.9,29.78,SSE,166,21.0,26.0,67,0.00,,BKN300,0.00,VWS V14.01,2013-01-07 08:43:00,
2013-01-07 02:44:00,29.5,19.9,29.78,SE,140,5.0,26.0,67,0.00,,BKN300,0.00,VWS V14.01,2013-01-07 08:44:00,
2013-01-07 02:45:00,29.5,19.9,29.77,South,178,6.0,26.0,67,0.00,,BKN300,0.00,VWS V14.01,2013-01-07 08:45:00,
2013-01-07 02:46:00,29.5,19.9,29.77,South,181,11.0,26.0,67,0.00,,BKN300,0.00,VWS V14.01,2013-01-07 08:46:00,
2013-01-07 02:47:00,29.5,19.9,29.77,ESE,109,8.0,26.0,67,0.00,,BKN300,0.00,VWS V14.01,2013-01-07 08:47:00,
2013-01-07 02:48:00,29.5,19.9,29.77,SSW,205,0.0,26.0,67,0.00,,BKN300,0.00,VWS V14.01,2013-01-07 08:48:00,
2013-01-07 02:49:00,29.5,19.9,29.77,ESE,123,7.0,26.0,67,0.00,,BKN300,0.00,VWS V14.01,2013-01-07 08:49:00,
2013-01-07 02:50:00,29.5,19.9,29.77,SSE,160,3.0,26.0,67,0.00,,BKN300,0.00,VWS V14.01,2013-01-07 08:50:00,
2013-01-07 02:51:00,29.5,19.9,29.77,SE,130,6.0,26.0,67,0.00,,BKN300,0.00,VWS V14.01,2013-01-07 08:51:00,
2013-01-07 02:52:00,29.5,19.9,29.77,SE,144,14.0,26.0,67,0.00,,BKN300,0.00,VWS V14.01,2013-01-07 08:52:00,
2013-01-07 02:53:00,29.5,19.9,29.77,SSE,151,6.0,26.0,67,0.00,,BKN300,0.00,VWS V14.01,2013-01-07 08:53:00,
2013-01-07 02:54:00,29.5,19.9,29.77,West,263,7.0,26.0,67,0.00,,BKN300,0.00,VWS V14.01,2013-01-07 08:54:00,
2013-01-07 02:55:00,29.4,19.8,29.77,SE,137,7.0,26.0,67,0.00,,BKN300,0.00,VWS V14.01,2013-01-07 08:55:00,
2013-01-07 02:56:00,29.4,19.8,29.77,South,190,2.0,26.0,67,0.00,,BKN300,0.00,VWS V14.01,2013-01-07 08:56:00,
2013-01-07 02:57:00,29.4,19.8,29.77,SSW,198,10.0,26.0,67,0.00,,BKN300,0.00,VWS V14.01,2013-01-07 08:57:00,
2013-01-07 02:58:00,29.4,19.8,29.77,SW,223,5.0,26.0,67,0.00,,BKN300,0.00,VWS V14.01,2013-01-07 08:58:00,
2013-01-07 02:59:00,29.4,19.8,29.77,ESE,106,9.0,26.0,67,0.00,,BKN300,0.00,VWS V14.01,2013-01-07 08:59:00,
2013-01-07 03:00:00,29.4,19.8,29.77,SSE,151,3.0,26.0,67,0.00,,BKN300,0.00,VWS V14.01,2013-01-07 09:00:00,
2013-01-07 03:01:00,29.4,19.8,29.77,SSE,149,6.0,11.0,67,0.00,,BKN300,0.00,VWS V14.01,2013-01-07 09:01:00,
2013-01-07 03:02:00,29.4,19.8,29.77,SSE,164,14.0,18.0,67,0.00,,BKN300,0.00,VWS V14.01,2013-01-07 09:02:00,
2013-01-07 03:03:00,29.4,19.8,29.77,South,184,7.0,18.0,67,0.00,,BKN300,0.00,VWS V14.01,2013-01-07 09:03:00,
2013-01-07 03:04:00,29.5,19.9,29.77,SSW,194,7.0,18.0,67,0.00,,BKN300,0.00,VWS V14.01,2013-01-07 09:04:00,
2013-01-07 03:05:00,29.5,19.9,29.77,SE,133,5.0,18.0,67,0.00,,BKN300,0.00,VWS V14.01,2013-01-07 09:05:00,
2013-01-07 03:06:00,29.5,19.9,29.77,SSE,167,11.0,18.0,67,0.00,,BKN300,0.00,VWS V14.01,2013-01-07 09:06:00,
2013-01-07 03:07:00,29.5,19.9,29.77,West,259,10.0,18.0,67,0.00,,BKN300,0.00,VWS V14.01,2013-01-07 09:07:00,
2013-01-07 03:08:00,29.7,20.1,29.77,South,185,6.0,18.0,67,0.00,,BKN300,0.00,VWS V14.01,2013-01-07 09:08:00,
2013-01-07 03:09:00,29.7,20.1,29.77,SW,225,8.0,18.0,67,0.00,,BKN300,0.00,VWS V14.01,2013-01-07 09:09:00,
2013-01-07 03:10:00,29.8,20.2,29.77,SSE,147,6.0,18.0,67,0.00,,BKN300,0.00,VWS V14.01,2013-01-07 09:10:00,
2013-01-07 03:11:00,30.0,20.0,29.77,SSE,150,12.0,18.0,66,0.00,,BKN300,0.00,VWS V14.01,2013-01-07 09:11:00,
2013-01-07 03:12:00,30.0,20.0,29.77,WSW,240,2.0,18.0,66,0.00,,BKN300,0.00,VWS V14.01,2013-01-07 09:12:00,
2013-01-07 03:13:00,30.1,20.1,29.77,SE,139,0.0,18.0,66,0.00,,BKN300,0.00,VWS V14.01,2013-01-07 09:13:00,
2013-01-07 03:14:00,30.1,20.1,29.77,South,171,13.0,18.0,66,0.00,,BKN300,0.00,VWS V14.01,2013-01-07 09:14:00,
2013-01-07 03:15:00,30.1,20.1,29.76,WSW,243,1.0,18.0,66,0.00,,BKN300,0.00,VWS V14.01,2013-01-07 09:15:00,
2013-01-07 03:16:00,30.3,20.3,29.76,WSW,250,11.0,18.0,66,0.00,,BKN300,0.00,VWS V14.01,2013-01-07 09:16:00,
2013-01-07 03:17:00,30.3,20.3,29.76,SE,140,7.0,18.0,66,0.00,,BKN300,0.00,VWS V14.01,2013-01-07 09:17:00,
2013-01-07 03:18:00,30.3,20.3,29.76,WSW,239,6.0,18.0,66,0.00,,BKN300,0.00,VWS V14.01,2013-01-07 09:18:00,
2013-01-07 03:19:00,30.3,20.3,29.76,WSW,245,6.0,18.0,66,0.00,,BKN300,0.00,VWS V14.01,2013-01-07 09:19:00,
2013-01-07 03:20:00,30.3,20.3,29.76,SSE,150,12.0,18.0,66,0.00,,BKN300,0.00,VWS V14.01,2013-01-07 09:20:00,
2013-01-07 03:21:00,30.3,20.3,29.76,SE,134,5.0,18.0,66,0.00,,BKN300,0.00,VWS V14.01,2013-01-07 09:21:00,
2013-01-07 03:22:00,30.3,20.3,29.76,SSE,164,2.0,18.0,66,0.00,,BKN300,0.00,VWS V14.01,2013-01-07 09:22:00,
2013-01-07 03:23:00,30.1,20.1,29.76,SSE,156,13.0,18.0,66,0.00,,BKN300,0.00,VWS V14.01,2013-01-07 09:23:00,
2013-01-07 03:24:00,30.1,20.1,29.76,WSW,240,1.0,18.0,66,0.00,,BKN300,0.00,VWS V14.01,2013-01-07 09:24:00,
2013-01-07 03:25:00,30.1,20.5,29.76,WSW,252,1.0,18.0,67,0.00,,BKN300,0.00,VWS V14.01,2013-01-07 09:25:00,
2013-01-07 03:26:00,30.1,20.5,29.76,West,260,13.0,18.0,67,0.00,,BKN300,0.00,VWS V14.01,2013-01-07 09:26:00,
2013-01-07 03:27:00,30.1,20.5,29.76,SW,230,8.0,18.0,67,0.00,,BKN300,0.00,VWS V14.01,2013-01-07 09:27:00,
2013-01-07 03:28:00,30.1,20.5,29.76,West,270,6.0,18.0,67,0.00,,BKN300,0.00,VWS V14.01,2013-01-07 09:28:00,
2013-01-07 03:29:00,30.1,20.5,29.76,SW,236,8.0,18.0,67,0.00,,BKN300,0.00,VWS V14.01,2013-01-07 09:29:00,
2013-01-07 03:30:00,30.1,20.5,29.77,WSW,239,10.0,18.0,67,0.00,,BKN300,0.00,VWS V14.01,2013-01-07 09:30:00,
2013-01-07 03:31:00,30.1,20.5,29.77,South,190,10.0,12.0,67,0.00,,BKN300,0.00,VWS V14.01,2013-01-07 09:31:00,
2013-01-07 03:32:00,30.0,20.4,29.77,WSW,246,0.0,14.0,67,0.00,,BKN300,0.00,VWS V14.01,2013-01-07 09:32:00,
2013-01-07 03:33:00,30.0,20.4,29.77,West,270,12.0,14.0,67,0.00,,BKN300,0.00,VWS V14.01,2013-01-07 09:33:00,
2013-01-07 03:34:00,30.0,20.4,29.77,SSW,212,6.0,16.0,67,0.00,,BKN300,0.00,VWS V14.01,2013-01-07 09:34:00,
2013-01-07 03:35:00,29.8,20.2,29.77,WSW,254,12.0,16.0,67,0.00,,BKN300,0.00,VWS V14.01,2013-01-07 09:35:00,
2013-01-07 03:36:00,29.8,20.2,29.77,WSW,242,10.0,16.0,67,0.00,,BKN300,0.00,VWS V14.01,2013-01-07 09:36:00,
2013-01-07 03:37:00,29.8,20.2,29.77,SW,229,9.0,16.0,67,0.00,,BKN300,0.00,VWS V14.01,2013-01-07 09:37:00,
2013-01-07 03:38:00,29.8,20.5,29.77,SSE,157,6.0,16.0,68,0.00,,BKN300,0.00,VWS V14.01,2013-01-07 09:38:00,
2013-01-07 03:39:00,29.7,20.5,29.77,SSW,195,6.0,16.0,68,0.00,,BKN300,0.00,VWS V14.01,2013-01-07 09:39:00,
2013-01-07 03:40:00,29.7,20.5,29.77,SE,126,1.0,17.0,68,0.00,,BKN300,0.00,VWS V14.01,2013-01-07 09:40:00,
2013-01-07 03:41:00,29.7,20.5,29.77,SE,125,13.0,17.0,68,0.00,,BKN300,0.00,VWS V14.01,2013-01-07 09:41:00,
2013-01-07 03:42:00,29.7,20.5,29.77,SW,235,10.0,17.0,68,0.00,,BKN300,0.00,VWS V14.01,2013-01-07 09:42:00,
2013-01-07 03:43:00,29.7,20.5,29.77,SSW,212,10.0,17.0,68,0.00,,BKN300,0.00,VWS V14.01,2013-01-07 09:43:00,
2013-01-07 03:44:00,29.7,20.5,29.77,WSW,243,6.0,17.0,68,0.00,,BKN300,0.00,VWS V14.01,2013-01-07 09:44:00,
2013-01-07 03:45:00,29.5,20.3,29.75,West,259,7.0,17.0,68,0.00,,BKN300,0.00,VWS V14.01,2013-01-07 09:45:00,
2013-01-07 03:46:00,29.5,20.3,29.75,WSW,239,10.0,17.0,68,0.00,,BKN300,0.00,VWS V14.01,2013-01-07 09:46:00,
2013-01-07 03:47:00,29.5,20.3,29.75,WSW,249,1.0,17.0,68,0.00,,BKN300,0.00,VWS V14.01,2013-01-07 09:47:00,
2013-01-07 03:48:00,29.5,20.3,29.75,SW,236,2.0,17.0,68,0.00,,BKN300,0.00,VWS V14.01,2013-01-07 09:48:00,
2013-01-07 03:49:00,29.5,20.3,29.75,ESE,113,14.0,17.0,68,0.00,,BKN300,0.00,VWS V14.01,2013-01-07 09:49:00,
2013-01-07 03:50:00,29.5,20.3,29.75,SSW,211,12.0,17.0,68,0.00,,BKN300,0.00,VWS V14.01,2013-01-07 09:50:00,
2013-01-07 03:51:00,29.5,20.6,29.75,SSE,156,8.0,17.0,69,0.00,,BKN300,0.00,VWS V14.01,2013-01-07 09:51:00,
2013-01-07 03:52:00,29.5,20.6,29.75,SW,218,8.0,17.0,69,0.00,,BKN300,0.00,VWS V14.01,2013-01-07 09:52:00,
2013-01-07 03:53:00,29.5,20.3,29.75,West,273,0.0,18.0,68,0.00,,BKN300,0.00,VWS V14.01,2013-01-07 09:53:00,
2013-01-07 03:54:00,29.5,20.3,29.75,SSW,201,12.0,18.0,68,0.00,,BKN300,0.00,VWS V14.01,2013-01-07 09:54:00,
2013-01-07 03:55:00,29.5,20.3,29.75,WSW,250,7.0,18.0,68,0.00,,BKN300,0.00,VWS V14.01,2013-01-07 09:55:00,
2013-01-07 03:56:00,29.5,20.3,29.75,South,170,0.0,18.0,68,0.00,,BKN300,0.00,VWS V14.01,2013-01-07 09:56:00,
2013-01-07 03:57:00,29.5,20.6,29.75,WSW,242,12.0,18.0,69,0.00,,BKN300,0.00,VWS V14.01,2013-01-07 09:57:00,
2013-01-07 03:58:00,29.5,20.6,29.75,WSW,240,18.0,18.0,69,0.00,,BKN300,0.00,VWS V14.01,2013-01-07 09:58:00,
2013-01-07 03:59:00,29.5,20.6,29.75,West,262,11.0,19.0,69,0.00,,BKN300,0.00,VWS V14.01,2013-01-07 09:59:00,
2013-01-07 04:00:00,29.4,20.5,29.76,SE,134,6.0,19.0,69,0.00,,BKN300,0.00,VWS V14.01,2013-01-07 10:00:00,
2013-01-07 04:01:00,29.4,20.5,29.76,WSW,238,8.0,17.0,69,0.00,,BKN300,0.00,VWS V14.01,2013-01-07 10:01:00,
2013-01-07 04:02:00,29.4,20.5,29.76,SSW,199,1.0,17.0,69,0.00,,BKN300,0.00,VWS V14.01,2013-01-07 10:02:00,
2013-01-07 04:03:00,29.4,20.5,29.76,SW,222,18.0,18.0,69,0.00,,BKN300,0.00,VWS V14.01,2013-01-07 10:03:00,
2013-01-07 04:04:00,29.3,20.4,29.76,WSW,247,3.0,18.0,69,0.00,,BKN300,0.00,VWS V14.01,2013-01-07 10:04:00,
2013-01-07 04:05:00,29.3,20.4,29.76,WSW,254,7.0,18.0,69,0.00,,BKN300,0.00,VWS V14.01,2013-01-07 10:05:00,
2013-01-07 04:06:00,29.1,20.5,29.76,WSW,246,12.0,18.0,70,0.00,,BKN300,0.00,VWS V14.01,2013-01-07 10:06:00,
2013-01-07 04:07:00,29.1,20.5,29.76,SSW,195,10.0,18.0,70,0.00,,BKN300,0.00,VWS V14.01,2013-01-07 10:07:00,
2013-01-07 04:08:00,29.1,20.5,29.76,WSW,242,1.0,18.0,70,0.00,,BKN300,0.00,VWS V14.01,2013-01-07 10:08:00,
2013-01-07 04:09:00,29.0,20.5,29.76,South,188,3.0,18.0,70,0.00,,BKN300,0.00,VWS V14.01,2013-01-07 10:09:00,
2013-01-07 04:10:00,29.0,20.5,29.76,SW,225,7.0,18.0,70,0.00,,BKN300,0.00,VWS V14.01,2013-01-07 10:10:00,
2013-01-07 04:11:00,29.0,20.5,29.76,West,260,12.0,18.0,70,0.00,,BKN300,0.00,VWS V14.01,2013-01-07 10:11:00,
2013-01-07 04:12:00,29.0,20.5,29.76,West,259,3.0,18.0,70,0.00,,BKN300,0.00,VWS V14.01,2013-01-07 10:12:00,
2013-01-07 04:13:00,29.0,20.5,29.76,West,263,3.0,18.0,70,0.00,,BKN300,0.00,VWS V14.01,2013-01-07 10:13:00,
2013-01-07 04:14:00,29.0,20.5,29.76,SSW,212,6.0,18.0,70,0.00,,BKN300,0.00,VWS V14.01,2013-01-07 10:14:00,
2013-01-07 04:15:00,28.8,20.3,29.77,SW,229,4.0,18.0,70,0.00,,BKN300,0.00,VWS V14.01,2013-01-07 10:15:00,
2013-01-07 04:16:00,28.8,20.3,29.77,SE,136,5.0,18.0,70,0.00,,BKN300,0.00,VWS V14.01,2013-01-07 10:16:00,
2013-01-07 04:17:00,28.8,20.3,29.77,SSW,212,1.0,18.0,70,0.00,,BKN300,0.00,VWS V14.01,2013-01-07 10:17:00,
2013-01-07 04:18:00,28.8,20.3,29.77,ESE,112,8.0,18.0,70,0.00,,BKN300,0.00,VWS V14.01,2013-01-07 10:18:00,
2013-01-07 04:19:00,28.7,20.5,29.77,SSE,150,13.0,19.0,71,0.00,,BKN300,0.00,VWS V14.01,2013-01-07 10:19:00,
2013-01-07 04:20:00,28.7,20.5,29.77,WSW,238,10.0,19.0,71,0.00,,BKN300,0.00,VWS V14.01,2013-01-07 10:20:00,
2013-01-07 04:21:00,28.7,20.5,29.77,SSE,147,6.0,19.0,71,0.00,,BKN300,0.00,VWS V14.01,2013-01-07 10:21:00,
2013-01-07 04:22:00,28.7,20.5,29.77,SE,126,6.0,19.0,71,0.00,,BKN300,0.00,VWS V14.01,2013-01-07 10:22:00,
2013-01-07 04:23:00,28.5,20.3,29.77,West,269,1.0,19.0,71,0.00,,BKN300,0.00,VWS V14.01,2013-01-07 10:23:00,
2013-01-07 04:24:00,28.5,20.3,29.77,ESE,106,8.0,19.0,71,0.00,,BKN300,0.00,VWS V14.01,2013-01-07 10:24:00,
2013-01-07 04:25:00,28.5,20.3,29.77,WSW,252,6.0,19.0,71,0.00,,BKN300,0.00,VWS V14.01,2013-01-07 10:25:00,
2013-01-07 04:26:00,28.5,20.3,29.77,SW,229,1.0,19.0,71,0.00,,BKN300,0.00,VWS V14.01,2013-01-07 10:26:00,
2013-01-07 04:27:00,28.5,20.3,29.77,SW,228,12.0,19.0,71,0.00,,BKN300,0.00,VWS V14.01,2013-01-07 10:27:00,
2013-01-07 04:28:00,28.4,20.2,29.77,WSW,240,7.0,19.0,71,0.00,,BKN300,0.00,VWS V14.01,2013-01-07 10:28:00,
2013-01-07 04:29:00,28.4,20.2,29.77,SW,214,7.0,19.0,71,0.00,,BKN300,0.00,VWS V14.01,2013-01-07 10:29:00,
2013-01-07 04:30:00,28.4,20.5,29.77,WSW,242,7.0,19.0,72,0.00,,SCT300,0.00,VWS V14.01,2013-01-07 10:30:00,
2013-01-07 04:31:00,28.4,20.5,29.77,ESE,123,8.0,16.0,72,0.00,,SCT300,0.00,VWS V14.01,2013-01-07 10:31:00,
2013-01-07 04:32:00,28.4,20.5,29.77,WSW,250,6.0,16.0,72,0.00,,SCT300,0.00,VWS V14.01,2013-01-07 10:32:00,
2013-01-07 04:33:00,28.4,20.5,29.77,SE,125,5.0,16.0,72,0.00,,SCT300,0.00,VWS V14.01,2013-01-07 10:33:00,
2013-01-07 04:34:00,28.4,20.5,29.77,SW,235,5.0,16.0,72,0.00,,SCT300,0.00,VWS V14.01,2013-01-07 10:34:00,
2013-01-07 04:35:00,28.4,20.5,29.77,SE,144,8.0,16.0,72,0.00,,SCT300,0.00,VWS V14.01,2013-01-07 10:35:00,
2013-01-07 04:36:00,28.2,20.4,29.77,SSE,147,6.0,16.0,72,0.00,,SCT300,0.00,VWS V14.01,2013-01-07 10:36:00,
2013-01-07 04:37:00,28.2,20.4,29.77,West,276,2.0,16.0,72,0.00,,SCT300,0.00,VWS V14.01,2013-01-07 10:37:00,
2013-01-07 04:38:00,28.2,20.4,29.77,WSW,253,8.0,16.0,72,0.00,,SCT300,0.00,VWS V14.01,2013-01-07 10:38:00,
2013-01-07 04:39:00,28.2,20.4,29.77,SSE,153,13.0,16.0,72,0.00,,SCT300,0.00,VWS V14.01,2013-01-07 10:39:00,
2013-01-07 04:40:00,28.1,20.2,29.77,WSW,247,10.0,16.0,72,0.00,,SCT300,0.00,VWS V14.01,2013-01-07 10:40:00,
2013-01-07 04:41:00,28.1,20.2,29.77,SW,228,0.0,16.0,72,0.00,,SCT300,0.00,VWS V14.01,2013-01-07 10:41:00,
2013-01-07 04:42:00,28.1,20.2,29.77,SW,232,8.0,16.0,72,0.00,,SCT300,0.00,VWS V14.01,2013-01-07 10:42:00,
2013-01-07 04:43:00,28.1,20.6,29.77,SW,232,5.0,16.0,73,0.00,,SCT300,0.00,VWS V14.01,2013-01-07 10:43:00,
2013-01-07 04:44:00,28.1,20.6,29.77,SW,230,3.0,16.0,73,0.00,,SCT300,0.00,VWS V14.01,2013-01-07 10:44:00,
2013-01-07 04:45:00,28.1,20.2,29.78,SW,235,5.0,16.0,72,0.00,,SCT300,0.00,VWS V14.01,2013-01-07 10:45:00,
2013-01-07 04:46:00,28.1,20.6,29.78,SE,137,12.0,16.0,73,0.00,,SCT300,0.00,VWS V14.01,2013-01-07 10:46:00,
2013-01-07 04:47:00,28.1,20.6,29.78,WSW,250,2.0,16.0,73,0.00,,SCT300,0.00,VWS V14.01,2013-01-07 10:47:00,
2013-01-07 04:48:00,28.1,20.6,29.78,WSW,246,3.0,16.0,73,0.00,,SCT300,0.00,VWS V14.01,2013-01-07 10:48:00,
2013-01-07 04:49:00,28.1,20.6,29.78,South,191,3.0,16.0,73,0.00,,SCT300,0.00,VWS V14.01,2013-01-07 10:49:00,
2013-01-07 04:50:00,27.9,20.4,29.78,SSE,160,5.0,16.0,73,0.00,,SCT300,0.00,VWS V14.01,2013-01-07 10:50:00,
2013-01-07 04:51:00,27.9,20.4,29.78,SSE,150,0.0,16.0,73,0.00,,SCT300,0.00,VWS V14.01,2013-01-07 10:51:00,
2013-01-07 04:52:00,27.9,20.4,29.78,SE,127,11.0,17.0,73,0.00,,SCT300,0.00,VWS V14.01,2013-01-07 10:52:00,
2013-01-07 04:53:00,27.9,20.4,29.78,WSW,253,10.0,18.0,73,0.00,,SCT300,0.00,VWS V14.01,2013-01-07 10:53:00,
2013-01-07 04:54:00,27.9,20.4,29.78,West,263,0.0,18.0,73,0.00,,SCT300,0.00,VWS V14.01,2013-01-07 10:54:00,
2013-01-07 04:55:00,27.9,20.4,29.78,South,178,5.0,18.0,73,0.00,,SCT300,0.00,VWS V14.01,2013-01-07 10:55:00,
2013-01-07 04:56:00,27.9,20.4,29.78,SSW,212,8.0,18.0,73,0.00,,SCT300,0.00,VWS V14.01,2013-01-07 10:56:00,
2013-01-07 04:57:00,27.9,20.4,29.78,SW,222,5.0,18.0,73,0.00,,SCT300,0.00,VWS V14.01,2013-01-07 10:57:00,
2013-01-07 04:58:00,27.9,20.4,29.78,SSE,167,0.0,18.0,73,0.00,,SCT300,0.00,VWS V14.01,2013-01-07 10:58:00,
2013-01-07 04:59:00,27.9,20.4,29.78,SSE,153,8.0,18.0,73,0.00,,SCT300,0.00,VWS V14.01,2013-01-07 10:59:00,
2013-01-07 05:00:00,27.9,20.4,29.77,SE,132,0.0,18.0,73,0.00,,SCT300,0.00,VWS V14.01,2013-01-07 11:00:00,
2013-01-07 05:01:00,27.9,20.4,29.77,SW,232,0.0,8.0,73,0.00,,SCT300,0.00,VWS V14.01,2013-01-07 11:01:00,
2013-01-07 05:02:00,27.9,20.4,29.77,WSW,256,6.0,8.0,73,0.00,,SCT300,0.00,VWS V14.01,2013-01-07 11:02:00,
2013-01-07 05:03:00,27.9,20.4,29.77,South,190,11.0,11.0,73,0.00,,SCT300,0.00,VWS V14.01,2013-01-07 11:03:00,
2013-01-07 05:04:00,27.9,20.4,29.77,SE,130,4.0,11.0,73,0.00,,SCT300,0.00,VWS V14.01,2013-01-07 11:04:00,
2013-01-07 05:05:00,27.9,20.4,29.77,ESE,108,2.0,12.0,73,0.00,,SCT300,0.00,VWS V14.01,2013-01-07 11:05:00,
2013-01-07 05:06:00,27.9,20.4,29.77,WSW,240,10.0,12.0,73,0.00,,SCT300,0.00,VWS V14.01,2013-01-07 11:06:00,
2013-01-07 05:07:00,27.9,20.4,29.77,WSW,246,6.0,13.0,73,0.00,,SCT300,0.00,VWS V14.01,2013-01-07 11:07:00,
2013-01-07 05:08:00,27.9,20.4,29.77,SW,229,0.0,14.0,73,0.00,,SCT300,0.00,VWS V14.01,2013-01-07 11:08:00,
2013-01-07 05:09:00,27.9,20.4,29.77,SSE,157,12.0,14.0,73,0.00,,SCT300,0.00,VWS V14.01,2013-01-07 11:09:00,
2013-01-07 05:10:00,27.9,20.4,29.77,WSW,242,6.0,14.0,73,0.00,,SCT300,0.00,VWS V14.01,2013-01-07 11:10:00,
2013-01-07 05:11:00,27.8,20.3,29.77,SW,229,2.0,14.0,73,0.00,,SCT300,0.00,VWS V14.01,2013-01-07 11:11:00,
2013-01-07 05:12:00,27.8,20.3,29.77,ESE,110,3.0,14.0,73,0.00,,SCT300,0.00,VWS V14.01,2013-01-07 11:12:00,
2013-01-07 05:13:00,27.8,20.3,29.77,South,182,6.0,14.0,73,0.00,,SCT300,0.00,VWS V14.01,2013-01-07 11:13:00,
2013-01-07 05:14:00,27.8,20.3,29.77,SSW,202,2.0,14.0,73,0.00,,SCT300,0.00,VWS V14.01,2013-01-07 11:14:00,
2013-01-07 05:15:00,27.8,20.3,29.78,SSE,167,5.0,14.0,73,0.00,,SCT300,0.00,VWS V14.01,2013-01-07 11:15:00,
2013-01-07 05:16:00,27.8,20.3,29.78,WSW,240,1.0,14.0,73,0.00,,SCT300,0.00,VWS V14.01,2013-01-07 11:16:00,
2013-01-07 05:17:00,27.8,20.3,29.78,SW,228,9.0,14.0,73,0.00,,SCT300,0.00,VWS V14.01,2013-01-07 11:17:00,
2013-01-07 05:18:00,27.8,20.6,29.78,WSW,242,7.0,14.0,74,0.00,,SCT300,0.00,VWS V14.01,2013-01-07 11:18:00,
2013-01-07 05:19:00,27.8,20.6,29.78,SW,236,1.0,14.0,74,0.00,,SCT300,0.00,VWS V14.01,2013-01-07 11:19:00,
2013-01-07 05:20:00,27.8,20.3,29.78,WSW,242,8.0,14.0,73,0.00,,SCT300,0.00,VWS V14.01,2013-01-07 11:20:00,
2013-01-07 05:21:00,27.6,20.4,29.78,SW,229,7.0,14.0,74,0.00,,SCT300,0.00,VWS V14.01,2013-01-07 11:21:00,
2013-01-07 05:22:00,27.6,20.4,29.78,SSE,158,6.0,14.0,74,0.00,,SCT300,0.00,VWS V14.01,2013-01-07 11:22:00,
2013-01-07 05:23:00,27.6,20.4,29.78,ESE,112,2.0,14.0,74,0.00,,SCT300,0.00,VWS V14.01,2013-01-07 11:23:00,
2013-01-07 05:24:00,27.6,20.4,29.78,SE,133,6.0,14.0,74,0.00,,SCT300,0.00,VWS V14.01,2013-01-07 11:24:00,
2013-01-07 05:25:00,27.6,20.4,29.78,SSE,154,6.0,14.0,74,0.00,,SCT300,0.00,VWS V14.01,2013-01-07 11:25:00,
2013-01-07 05:26:00,27.6,20.4,29.78,ESE,113,10.0,14.0,74,0.00,,SCT300,0.00,VWS V14.01,2013-01-07 11:26:00,
2013-01-07 05:27:00,27.6,20.4,29.78,WSW,254,13.0,14.0,74,0.00,,SCT300,0.00,VWS V14.01,2013-01-07 11:27:00,
2013-01-07 05:28:00,27.6,20.4,29.78,SW,215,6.0,14.0,74,0.00,,SCT300,0.00,VWS V14.01,2013-01-07 11:28:00,
2013-01-07 05:29:00,27.6,20.4,29.78,SSE,168,1.0,14.0,74,0.00,,SCT300,0.00,VWS V14.01,2013-01-07 11:29:00,
2013-01-07 05:30:00,27.6,20.4,29.77,SE,136,0.0,14.0,74,0.00,,SCT300,0.00,VWS V14.01,2013-01-07 11:30:00,
2013-01-07 05:31:00,27.6,20.4,29.77,SE,133,7.0,14.0,74,0.00,,SCT300,0.00,VWS V14.01,2013-01-07 11:31:00,
2013-01-07 05:32:00,27.6,20.4,29.77,WSW,250,7.0,14.0,74,0.00,,SCT300,0.00,VWS V14.01,2013-01-07 11:32:00,
2013-01-07 05:33:00,27.6,20.4,29.77,SSW,212,6.0,14.0,74,0.00,,SCT300,0.00,VWS V14.01,2013-01-07 11:33:00,
2013-01-07 05:34:00,27.6,20.4,29.77,SE,143,12.0,17.0,74,0.00,,SCT300,0.00,VWS V14.01,2013-01-07 11:34:00,
2013-01-07 05:35:00,27.6,20.4,29.77,SSE,153,7.0,17.0,74,0.00,,SCT300,0.00,VWS V14.01,2013-01-07 11:35:00,
2013-01-07 05:36:00,27.6,20.4,29.77,SW,218,6.0,17.0,74,0.00,,SCT300,0.00,VWS V14.01,2013-01-07 11:36:00,
2013-01-07 05:37:00,27.6,20.4,29.77,SW,228,8.0,17.0,74,0.00,,SCT300,0.00,VWS V14.01,2013-01-07 11:37:00,
2013-01-07 05:38:00,27.6,20.4,29.77,SE,132,12.0,17.0,74,0.00,,SCT300,0.00,VWS V14.01,2013-01-07 11:38:00,
2013-01-07 05:39:00,27.6,20.4,29.77,SE,132,1.0,17.0,74,0.00,,SCT300,0.00,VWS V14.01,2013-01-07 11:39:00,
2013-01-07 05:40:00,27.6,20.4,29.77,SW,236,6.0,17.0,74,0.00,,SCT300,0.00,VWS V14.01,2013-01-07 11:40:00,
2013-01-07 05:41:00,27.5,20.3,29.77,SE,143,10.0,17.0,74,0.00,,SCT300,0.00,VWS V14.01,2013-01-07 11:41:00,
2013-01-07 05:42:00,27.5,20.3,29.77,SE,125,3.0,17.0,74,0.00,,SCT300,0.00,VWS V14.01,2013-01-07 11:42:00,
2013-01-07 05:43:00,27.5,20.3,29.77,ESE,123,1.0,17.0,74,0.00,,SCT300,0.00,VWS V14.01,2013-01-07 11:43:00,
2013-01-07 05:44:00,27.5,20.3,29.77,SSW,209,0.0,17.0,74,0.00,,SCT300,0.00,VWS V14.01,2013-01-07 11:44:00,
2013-01-07 05:45:00,27.5,20.3,29.77,WSW,240,1.0,17.0,74,0.00,,SCT300,0.00,VWS V14.01,2013-01-07 11:45:00,
2013-01-07 05:46:00,27.5,20.3,29.77,ESE,116,9.0,17.0,74,0.00,,SCT300,0.00,VWS V14.01,2013-01-07 11:46:00,
2013-01-07 05:47:00,27.5,20.3,29.77,SE,125,7.0,17.0,74,0.00,,SCT300,0.00,VWS V14.01,2013-01-07 11:47:00,
2013-01-07 05:48:00,27.5,20.3,29.77,SSE,157,2.0,17.0,74,0.00,,SCT300,0.00,VWS V14.01,2013-01-07 11:48:00,
2013-01-07 05:49:00,27.3,20.1,29.77,SW,233,2.0,17.0,74,0.00,,SCT300,0.00,VWS V14.01,2013-01-07 11:49:00,
2013-01-07 05:50:00,27.3,20.1,29.77,SW,228,4.0,17.0,74,0.00,,SCT300,0.00,VWS V14.01,2013-01-07 11:50:00,
2013-01-07 05:51:00,27.3,20.1,29.77,South,173,2.0,17.0,74,0.00,,SCT300,0.00,VWS V14.01,2013-01-07 11:51:00,
2013-01-07 05:52:00,27.3,20.1,29.77,SE,139,7.0,17.0,74,0.00,,SCT300,0.00,VWS V14.01,2013-01-07 11:52:00,
2013-01-07 05:53:00,27.3,20.1,29.77,SW,228,9.0,17.0,74,0.00,,SCT300,0.00,VWS V14.01,2013-01-07 11:53:00,
2013-01-07 05:54:00,27.3,20.1,29.77,SE,137,5.0,17.0,74,0.00,,SCT300,0.00,VWS V14.01,2013-01-07 11:54:00,
2013-01-07 05:55:00,27.3,20.1,29.77,SSW,209,3.0,17.0,74,0.00,,SCT300,0.00,VWS V14.01,2013-01-07 11:55:00,
2013-01-07 05:56:00,27.2,20.0,29.77,SSW,199,1.0,17.0,74,0.00,,SCT300,0.00,VWS V14.01,2013-01-07 11:56:00,
2013-01-07 05:57:00,27.2,20.0,29.77,South,177,1.0,17.0,74,0.00,,SCT300,0.00,VWS V14.01,2013-01-07 11:57:00,
2013-01-07 05:58:00,27.2,20.0,29.77,SE,130,7.0,17.0,74,0.00,,SCT300,0.00,VWS V14.01,2013-01-07 11:58:00,
2013-01-07 05:59:00,27.2,20.0,29.77,SSE,164,7.0,17.0,74,0.00,,SCT300,0.00,VWS V14.01,2013-01-07 11:59:00,
2013-01-07 06:00:00,27.2,20.0,29.77,SW,222,5.0,17.0,74,0.00,,SCT300,0.00,VWS V14.01,2013-01-07 12:00:00,
2013-01-07 06:01:00,27.2,20.0,29.77,SW,223,0.0,5.0,74,0.00,,SCT300,0.00,VWS V14.01,2013-01-07 12:01:00,
2013-01-07 06:02:00,27.2,20.0,29.77,WSW,245,12.0,12.0,74,0.00,,SCT300,0.00,VWS V14.01,2013-01-07 12:02:00,
2013-01-07 06:03:00,27.2,20.0,29.77,SW,225,5.0,16.0,74,0.00,,SCT300,0.00,VWS V14.01,2013-01-07 12:03:00,
2013-01-07 06:04:00,27.2,20.0,29.77,SE,136,5.0,16.0,74,0.00,,SCT300,0.00,VWS V14.01,2013-01-07 12:04:00,
2013-01-07 06:05:00,27.0,19.8,29.77,SE,130,4.0,16.0,74,0.00,,SCT300,0.00,VWS V14.01,2013-01-07 12:05:00,
2013-01-07 06:06:00,27.0,19.8,29.77,SW,214,3.0,16.0,74,0.00,,SCT300,0.00,VWS V14.01,2013-01-07 12:06:00,
2013-01-07 06:07:00,27.0,19.8,29.77,SW,215,2.0,16.0,74,0.00,,SCT300,0.00,VWS V14.01,2013-01-07 12:07:00,
2013-01-07 06:08:00,27.0,19.8,29.77,ESE,119,13.0,16.0,74,0.00,,SCT300,0.00,VWS V14.01,2013-01-07 12:08:00,
2013-01-07 06:09:00,27.0,19.8,29.77,WSW,239,3.0,16.0,74,0.00,,SCT300,0.00,VWS V14.01,2013-01-07 12:09:00,
2013-01-07 06:10:00,26.9,19.7,29.77,SW,229,6.0,16.0,74,0.00,,SCT300,0.00,VWS V14.01,2013-01-07 12:10:00,
2013-01-07 06:11:00,26.9,19.7,29.77,SW,233,1.0,16.0,74,0.00,,SCT300,0.00,VWS V14.01,2013-01-07 12:11:00,
2013-01-07 06:12:00,26.9,19.7,29.77,SSE,168,8.0,16.0,74,0.00,,SCT300,0.00,VWS V14.01,2013-01-07 12:12:00,
2013-01-07 06:13:00,26.9,20.0,29.77,SSE,153,3.0,16.0,75,0.00,,SCT300,0.00,VWS V14.01,2013-01-07 12:13:00,
2013-01-07 06:14:00,26.7,19.5,29.77,SSE,153,11.0,16.0,74,0.00,,SCT300,0.00,VWS V14.01,2013-01-07 12:14:00,
2013-01-07 06:15:00,26.7,19.5,29.78,SW,221,6.0,16.0,74,0.00,,SCT300,0.00,VWS V14.01,2013-01-07 12:15:00,
2013-01-07 06:16:00,26.7,19.9,29.78,SE,144,5.0,16.0,75,0.00,,SCT300,0.00,VWS V14.01,2013-01-07 12:16:00,
2013-01-07 06:17:00,26.7,19.9,29.78,WSW,238,1.0,16.0,75,0.00,,SCT300,0.00,VWS V14.01,2013-01-07 12:17:00,
2013-01-07 06:18:00,26.7,19.9,29.78,SW,228,0.0,16.0,75,0.00,,SCT300,0.00,VWS V14.01,2013-01-07 12:18:00,
2013-01-07 06:19:00,26.6,19.8,29.78,SW,222,0.0,16.0,75,0.00,,SCT300,0.00,VWS V14.01,2013-01-07 12:19:00,
2013-01-07 06:20:00,26.6,19.8,29.78,SW,214,3.0,16.0,75,0.00,,SCT300,0.00,VWS V14.01,2013-01-07 12:20:00,
2013-01-07 06:21:00,26.6,19.8,29.78,SW,216,1.0,16.0,75,0.00,,SCT300,0.00,VWS V14.01,2013-01-07 12:21:00,
2013-01-07 06:22:00,26.6,19.8,29.78,SE,130,7.0,16.0,75,0.00,,SCT300,0.00,VWS V14.01,2013-01-07 12:22:00,
2013-01-07 06:23:00,26.6,19.8,29.78,SSW,208,4.0,16.0,75,0.00,,SCT300,0.00,VWS V14.01,2013-01-07 12:23:00,
2013-01-07 06:24:00,26.4,19.6,29.78,SW,236,0.0,16.0,75,0.00,,SCT300,0.00,VWS V14.01,2013-01-07 12:24:00,
2013-01-07 06:25:00,26.4,19.6,29.78,WSW,242,6.0,16.0,75,0.00,,SCT300,0.00,VWS V14.01,2013-01-07 12:25:00,
2013-01-07 06:26:00,26.4,19.6,29.78,South,170,2.0,16.0,75,0.00,,SCT300,0.00,VWS V14.01,2013-01-07 12:26:00,
2013-01-07 06:27:00,26.4,19.6,29.78,SE,136,7.0,16.0,75,0.00,,SCT300,0.00,VWS V14.01,2013-01-07 12:27:00,
2013-01-07 06:28:00,26.4,19.6,29.78,SW,230,0.0,16.0,75,0.00,,SCT300,0.00,VWS V14.01,2013-01-07 12:28:00,
2013-01-07 06:29:00,26.4,19.6,29.78,South,175,4.0,16.0,75,0.00,,SCT300,0.00,VWS V14.01,2013-01-07 12:29:00,
2013-01-07 06:30:00,26.4,19.6,29.78,SSW,205,4.0,16.0,75,0.00,,SCT300,0.00,VWS V14.01,2013-01-07 12:30:00,
2013-01-07 06:31:00,26.4,19.6,29.78,WSW,239,12.0,16.0,75,0.00,,SCT300,0.00,VWS V14.01,2013-01-07 12:31:00,
2013-01-07 06:32:00,26.4,19.6,29.78,WSW,242,2.0,16.0,75,0.00,,SCT300,0.00,VWS V14.01,2013-01-07 12:32:00,
2013-01-07 06:33:00,26.3,19.5,29.78,South,185,11.0,16.0,75,0.00,,SCT300,0.00,VWS V14.01,2013-01-07 12:33:00,
2013-01-07 06:34:00,26.3,19.5,29.78,SW,216,8.0,16.0,75,0.00,,SCT300,0.00,VWS V14.01,2013-01-07 12:34:00,
2013-01-07 06:35:00,26.3,19.5,29.78,SW,236,5.0,16.0,75,0.00,,SCT300,0.00,VWS V14.01,2013-01-07 12:35:00,
2013-01-07 06:36:00,26.3,19.5,29.78,South,180,3.0,16.0,75,0.00,,SCT300,0.00,VWS V14.01,2013-01-07 12:36:00,
2013-01-07 06:37:00,26.3,19.5,29.78,WSW,240,7.0,16.0,75,0.00,,SCT300,0.00,VWS V14.01,2013-01-07 12:37:00,
2013-01-07 06:38:00,26.3,19.5,29.78,SW,228,5.0,16.0,75,0.00,,SCT300,0.00,VWS V14.01,2013-01-07 12:38:00,
2013-01-07 06:39:00,26.3,19.5,29.78,SW,230,5.0,16.0,75,0.00,,SCT300,0.00,VWS V14.01,2013-01-07 12:39:00,
2013-01-07 06:40:00,26.3,19.5,29.78,SE,129,10.0,16.0,75,0.00,,SCT300,0.00,VWS V14.01,2013-01-07 12:40:00,
2013-01-07 06:41:00,26.3,19.5,29.78,SSW,206,11.0,16.0,75,0.00,,SCT300,0.00,VWS V14.01,2013-01-07 12:41:00,
2013-01-07 06:42:00,26.1,19.3,29.78,WSW,239,3.0,16.0,75,0.00,,SCT300,0.00,VWS V14.01,2013-01-07 12:42:00,
2013-01-07 06:43:00,26.1,19.3,29.78,WSW,245,0.0,16.0,75,0.00,,SCT300,0.00,VWS V14.01,2013-01-07 12:43:00,
2013-01-07 06:44:00,26.1,19.3,29.78,SSE,161,12.0,16.0,75,0.00,,SCT300,0.00,VWS V14.01,2013-01-07 12:44:00,
2013-01-07 06:45:00,26.1,19.3,29.78,SSW,212,11.0,16.0,75,0.00,,BKN300,0.00,VWS V14.01,2013-01-07 12:45:00,
2013-01-07 06:46:00,26.1,19.6,29.78,SSE,160,8.0,16.0,76,0.00,,BKN300,0.00,VWS V14.01,2013-01-07 12:46:00,
2013-01-07 06:47:00,26.1,19.6,29.78,WSW,245,6.0,16.0,76,0.00,,BKN300,0.00,VWS V14.01,2013-01-07 12:47:00,
2013-01-07 06:48:00,26.1,19.6,29.78,SSW,205,1.0,16.0,76,0.00,,BKN300,0.00,VWS V14.01,2013-01-07 12:48:00,
2013-01-07 06:49:00,26.1,19.6,29.78,SW,226,3.0,16.0,76,0.00,,BKN300,0.00,VWS V14.01,2013-01-07 12:49:00,
2013-01-07 06:50:00,26.1,19.6,29.78,SW,226,3.0,16.0,76,0.00,,BKN300,0.00,VWS V14.01,2013-01-07 12:50:00,
2013-01-07 06:51:00,26.1,19.6,29.78,SSW,208,0.0,16.0,76,0.00,,BKN300,0.00,VWS V14.01,2013-01-07 12:51:00,
2013-01-07 06:52:00,26.1,19.6,29.78,ESE,119,11.0,16.0,76,0.00,,BKN300,0.00,VWS V14.01,2013-01-07 12:52:00,
2013-01-07 06:53:00,26.1,19.6,29.78,SW,236,6.0,16.0,76,0.00,,BKN300,0.00,VWS V14.01,2013-01-07 12:53:00,
2013-01-07 06:54:00,26.1,19.6,29.78,SSE,168,2.0,16.0,76,0.00,,BKN300,0.00,VWS V14.01,2013-01-07 12:54:00,
2013-01-07 06:55:00,26.0,19.5,29.78,SSW,195,7.0,16.0,76,0.00,,BKN300,0.00,VWS V14.01,2013-01-07 12:55:00,
2013-01-07 06:56:00,26.0,19.5,29.78,ESE,119,6.0,16.0,76,0.00,,BKN300,0.00,VWS V14.01,2013-01-07 12:56:00,
2013-01-07 06:57:00,26.0,19.5,29.78,South,182,6.0,16.0,76,0.00,,BKN300,0.00,VWS V14.01,2013-01-07 12:57:00,
2013-01-07 06:58:00,26.0,19.5,29.78,SW,214,0.0,16.0,76,0.00,,BKN300,0.00,VWS V14.01,2013-01-07 12:58:00,
2013-01-07 06:59:00,26.0,19.5,29.78,SW,226,7.0,16.0,76,0.00,,BKN300,0.00,VWS V14.01,2013-01-07 12:59:00,
2013-01-07 07:00:00,26.0,19.5,29.78,SW,233,4.0,16.0,76,0.00,,BKN300,0.00,VWS V14.01,2013-01-07 13:00:00,
2013-01-07 07:01:00,26.0,19.5,29.78,SW,235,0.0,7.0,76,0.00,,BKN300,0.00,VWS V14.01,2013-01-07 13:01:00,
2013-01-07 07:02:00,26.0,19.5,29.78,SE,142,6.0,10.0,76,0.00,,BKN300,0.00,VWS V14.01,2013-01-07 13:02:00,
2013-01-07 07:03:00,26.0,19.5,29.78,South,188,3.0,13.0,76,0.00,,BKN300,0.00,VWS V14.01,2013-01-07 13:03:00,
2013-01-07 07:04:00,26.0,19.5,29.78,WSW,243,2.0,13.0,76,0.00,,BKN300,0.00,VWS V14.01,2013-01-07 13:04:00,
2013-01-07 07:05:00,26.0,19.5,29.78,SE,142,2.0,13.0,76,0.00,,BKN300,0.00,VWS V14.01,2013-01-07 13:05:00,
2013-01-07 07:06:00,25.8,19.3,29.78,SW,225,0.0,13.0,76,0.00,,BKN300,0.00,VWS V14.01,2013-01-07 13:06:00,
2013-01-07 07:07:00,25.8,19.3,29.78,SE,139,7.0,13.0,76,0.00,,BKN300,0.00,VWS V14.01,2013-01-07 13:07:00,
2013-01-07 07:08:00,25.8,19.3,29.78,SW,219,1.0,13.0,76,0.00,,BKN300,0.00,VWS V14.01,2013-01-07 13:08:00,
2013-01-07 07:09:00,25.8,19.3,29.78,SE,129,1.0,13.0,76,0.00,,BKN300,0.00,VWS V14.01,2013-01-07 13:09:00,
2013-01-07 07:10:00,25.8,19.3,29.78,SW,230,0.0,13.0,76,0.00,,BKN300,0.00,VWS V14.01,2013-01-07 13:10:00,
2013-01-07 07:11:00,25.8,19.3,29.78,SW,222,6.0,13.0,76,0.00,,BKN300,0.00,VWS V14.01,2013-01-07 13:11:00,
2013-01-07 07:12:00,25.8,19.3,29.78,SSW,209,7.0,13.0,76,0.00,,BKN300,0.00,VWS V14.01,2013-01-07 13:12:00,
2013-01-07 07:13:00,25.8,19.3,29.78,SE,139,5.0,13.0,76,0.00,,BKN300,0.00,VWS V14.01,2013-01-07 13:13:00,
2013-01-07 07:14:00,25.8,19.3,29.78,ESE,113,6.0,13.0,76,0.00,,BKN300,0.00,VWS V14.01,2013-01-07 13:14:00,
2013-01-07 07:15:00,25.8,19.3,29.78,SW,233,2.0,13.0,76,0.00,,BKN300,0.00,VWS V14.01,2013-01-07 13:15:00,
2013-01-07 07:16:00,25.8,19.3,29.78,WSW,240,6.0,13.0,76,0.00,,BKN300,0.00,VWS V14.01,2013-01-07 13:16:00,
2013-01-07 07:17:00,25.8,19.3,29.78,SW,216,4.0,13.0,76,0.00,,BKN300,0.00,VWS V14.01,2013-01-07 13:17:00,
2013-01-07 07:18:00,25.8,19.3,29.78,South,191,6.0,13.0,76,0.00,,BKN300,0.00,VWS V14.01,2013-01-07 13:18:00,
2013-01-07 07:19:00,25.8,19.3,29.78,SSE,166,4.0,13.0,76,0.00,,BKN300,0.00,VWS V14.01,2013-01-07 13:19:00,
2013-01-07 07:20:00,25.8,19.3,29.78,SW,230,7.0,13.0,76,0.00,,BKN300,0.00,VWS V14.01,2013-01-07 13:20:00,
2013-01-07 07:21:00,25.8,19.3,29.78,SSE,157,1.0,13.0,76,0.00,,BKN300,0.00,VWS V14.01,2013-01-07 13:21:00,
2013-01-07 07:22:00,25.8,19.3,29.78,SW,216,4.0,13.0,76,0.00,,BKN300,0.00,VWS V14.01,2013-01-07 13:22:00,
2013-01-07 07:23:00,25.8,19.3,29.78,South,191,6.0,13.0,76,0.00,,BKN300,0.00,VWS V14.01,2013-01-07 13:23:00,
2013-01-07 07:24:00,25.8,19.3,29.78,SSW,206,5.0,13.0,76,0.00,,BKN300,0.00,VWS V14.01,2013-01-07 13:24:00,
2013-01-07 07:25:00,26.0,19.5,29.78,SE,129,3.0,13.0,76,0.00,,BKN300,0.00,VWS V14.01,2013-01-07 13:25:00,
2013-01-07 07:26:00,26.0,19.5,29.78,South,190,6.0,13.0,76,0.00,,BKN300,0.00,VWS V14.01,2013-01-07 13:26:00,
2013-01-07 07:27:00,26.0,19.5,29.78,South,170,0.0,13.0,76,0.00,,BKN300,0.00,VWS V14.01,2013-01-07 13:27:00,
2013-01-07 07:28:00,26.0,19.5,29.78,ESE,112,6.0,13.0,76,0.00,,BKN300,0.00,VWS V14.01,2013-01-07 13:28:00,
2013-01-07 07:29:00,26.0,19.5,29.78,SSW,198,2.0,13.0,76,0.00,,BKN300,0.00,VWS V14.01,2013-01-07 13:29:00,
2013-01-07 07:30:00,26.0,19.5,29.78,West,260,6.0,13.0,76,0.00,,BKN300,0.00,VWS V14.01,2013-01-07 13:30:00,
2013-01-07 07:31:00,26.0,19.5,29.78,SSW,201,5.0,7.0,76,0.00,,BKN300,0.00,VWS V14.01,2013-01-07 13:31:00,
2013-01-07 07:32:00,26.0,19.5,29.78,SW,233,5.0,10.0,76,0.00,,BKN300,0.00,VWS V14.01,2013-01-07 13:32:00,
2013-01-07 07:33:00,26.0,19.5,29.78,SSW,201,11.0,16.0,76,0.00,,BKN300,0.00,VWS V14.01,2013-01-07 13:33:00,
2013-01-07 07:34:00,26.0,19.5,29.78,WSW,240,0.0,16.0,76,0.00,,BKN300,0.00,VWS V14.01,2013-01-07 13:34:00,
2013-01-07 07:35:00,26.0,19.5,29.78,SW,223,6.0,16.0,76,0.00,,BKN300,0.00,VWS V14.01,2013-01-07 13:35:00,
2013-01-07 07:36:00,26.0,19.5,29.78,SSW,212,0.0,16.0,76,0.00,,BKN300,0.00,VWS V14.01,2013-01-07 13:36:00,
2013-01-07 07:37:00,26.0,19.5,29.78,SW,229,4.0,16.0,76,0.00,,BKN300,0.00,VWS V14.01,2013-01-07 13:37:00,
2013-01-07 07:38:00,26.0,19.5,29.78,WSW,238,11.0,16.0,76,0.00,,BKN300,0.00,VWS V14.01,2013-01-07 13:38:00,
2013-01-07 07:39:00,26.0,19.5,29.78,South,180,3.0,16.0,76,0.00,,BKN300,0.00,VWS V14.01,2013-01-07 13:39:00,
2013-01-07 07:40:00,26.0,19.5,29.78,SW,236,2.0,16.0,76,0.00,,BKN300,0.00,VWS V14.01,2013-01-07 13:40:00,
2013-01-07 07:41:00,26.0,19.5,29.78,WSW,243,0.0,16.0,76,0.00,,BKN300,0.00,VWS V14.01,2013-01-07 13:41:00,
2013-01-07 07:42:00,26.0,19.5,29.78,SW,232,1.0,16.0,76,0.00,,BKN300,0.00,VWS V14.01,2013-01-07 13:42:00,
2013-01-07 07:43:00,26.0,19.5,29.78,South,187,2.0,16.0,76,0.00,,BKN300,0.00,VWS V14.01,2013-01-07 13:43:00,
2013-01-07 07:44:00,26.0,19.5,29.78,South,181,6.0,16.0,76,0.00,,BKN300,0.00,VWS V14.01,2013-01-07 13:44:00,
2013-01-07 07:45:00,26.0,19.5,29.78,SE,134,2.0,16.0,76,0.00,,BKN300,0.00,VWS V14.01,2013-01-07 13:45:00,
2013-01-07 07:46:00,26.0,19.5,29.78,SE,130,5.0,16.0,76,0.00,,BKN300,0.00,VWS V14.01,2013-01-07 13:46:00,
2013-01-07 07:47:00,26.0,19.5,29.78,SW,235,6.0,16.0,76,0.00,,BKN300,0.00,VWS V14.01,2013-01-07 13:47:00,
2013-01-07 07:48:00,26.0,19.5,29.78,SSE,166,6.0,16.0,76,0.00,,BKN300,0.00,VWS V14.01,2013-01-07 13:48:00,
2013-01-07 07:49:00,26.0,19.5,29.78,SSE,164,5.0,16.0,76,0.00,,BKN300,0.00,VWS V14.01,2013-01-07 13:49:00,
2013-01-07 07:50:00,26.0,19.5,29.78,SW,223,8.0,16.0,76,0.00,,BKN300,0.00,VWS V14.01,2013-01-07 13:50:00,
2013-01-07 07:51:00,26.0,19.5,29.78,SW,219,0.0,16.0,76,0.00,,BKN300,0.00,VWS V14.01,2013-01-07 13:51:00,
2013-01-07 07:52:00,26.0,19.5,29.78,ESE,105,5.0,16.0,76,0.00,,BKN300,0.00,VWS V14.01,2013-01-07 13:52:00,
2013-01-07 07:53:00,26.1,19.6,29.78,SE,134,0.0,16.0,76,0.00,,BKN300,0.00,VWS V14.01,2013-01-07 13:53:00,
2013-01-07 07:54:00,26.1,19.6,29.78,SE,133,7.0,16.0,76,0.00,,BKN300,0.00,VWS V14.01,2013-01-07 13:54:00,
2013-01-07 07:55:00,26.1,19.6,29.78,SE,144,2.0,16.0,76,0.00,,BKN300,0.00,VWS V14.01,2013-01-07 13:55:00,
2013-01-07 07:56:00,26.1,19.6,29.78,SSW,202,5.0,16.0,76,0.00,,BKN300,0.00,VWS V14.01,2013-01-07 13:56:00,
2013-01-07 07:57:00,26.3,19.8,29.78,SSW,202,3.0,16.0,76,0.00,,BKN300,0.00,VWS V14.01,2013-01-07 13:57:00,
2013-01-07 07:58:00,26.3,19.8,29.78,SE,132,7.0,16.0,76,0.00,,BKN300,0.00,VWS V14.01,2013-01-07 13:58:00,
2013-01-07 07:59:00,26.3,19.8,29.78,SW,230,0.0,16.0,76,0.00,,BKN300,0.00,VWS V14.01,2013-01-07 13:59:00,
2013-01-07 08:00:00,26.4,19.6,29.78,SSW,201,1.0,2.0,75,0.00,,BKN300,0.00,VWS V14.01,2013-01-07 14:00:00,
2013-01-07 08:01:00,26.4,19.6,29.78,South,170,5.0,10.0,75,0.00,,BKN300,0.00,VWS V14.01,2013-01-07 14:01:00,
2013-01-07 08:02:00,26.4,19.6,29.78,West,259,0.0,10.0,75,0.00,,BKN300,0.00,VWS V14.01,2013-01-07 14:02:00,
2013-01-07 08:03:00,26.6,19.8,29.78,WSW,243,3.0,10.0,75,0.00,,BKN300,0.00,VWS V14.01,2013-01-07 14:03:00,
2013-01-07 08:04:00,26.6,19.8,29.78,SW,235,1.0,10.0,75,0.00,,BKN300,0.00,VWS V14.01,2013-01-07 14:04:00,
2013-01-07 08:05:00,26.6,19.8,29.78,SSE,157,6.0,10.0,75,0.00,,BKN300,0.00,VWS V14.01,2013-01-07 14:05:00,
2013-01-07 08:06:00,26.6,19.8,29.78,SW,215,0.0,10.0,75,0.00,,BKN300,0.00,VWS V14.01,2013-01-07 14:06:00,
2013-01-07 08:07:00,26.6,19.8,29.78,SW,225,8.0,10.0,75,0.00,,BKN300,0.00,VWS V14.01,2013-01-07 14:07:00,
2013-01-07 08:08:00,26.6,19.8,29.78,SSE,161,4.0,10.0,75,0.00,,BKN300,0.00,VWS V14.01,2013-01-07 14:08:00,
2013-01-07 08:09:00,26.6,19.8,29.78,SSE,163,0.0,10.0,75,0.00,,BKN300,0.00,VWS V14.01,2013-01-07 14:09:00,
2013-01-07 08:10:00,26.6,19.8,29.78,WSW,249,7.0,11.0,75,0.00,,BKN300,0.00,VWS V14.01,2013-01-07 14:10:00,
2013-01-07 08:11:00,26.6,19.8,29.78,SSW,208,0.0,11.0,75,0.00,,BKN300,0.00,VWS V14.01,2013-01-07 14:11:00,
2013-01-07 08:12:00,26.6,19.8,29.78,SW,225,8.0,11.0,75,0.00,,BKN300,0.00,VWS V14.01,2013-01-07 14:12:00,
2013-01-07 08:13:00,26.6,19.8,29.78,WSW,239,1.0,11.0,75,0.00,,BKN300,0.00,VWS V14.01,2013-01-07 14:13:00,
2013-01-07 08:14:00,26.6,19.8,29.78,SW,233,2.0,11.0,75,0.00,,BKN300,0.00,VWS V14.01,2013-01-07 14:14:00,
2013-01-07 08:15:00,26.6,19.8,29.77,ESE,110,1.0,11.0,75,0.00,,BKN300,0.00,VWS V14.01,2013-01-07 14:15:00,
2013-01-07 08:16:00,26.6,19.8,29.77,SSE,156,1.0,11.0,75,0.00,,BKN300,0.00,VWS V14.01,2013-01-07 14:16:00,
2013-01-07 08:17:00,26.6,19.8,29.77,SSE,161,1.0,11.0,75,0.00,,BKN300,0.00,VWS V14.01,2013-01-07 14:17:00,
2013-01-07 08:18:00,26.6,19.8,29.77,WSW,246,0.0,11.0,75,0.00,,BKN300,0.00,VWS V14.01,2013-01-07 14:18:00,
2013-01-07 08:19:00,26.6,19.8,29.77,South,180,3.0,11.0,75,0.00,,BKN300,0.00,VWS V14.01,2013-01-07 14:19:00,
2013-01-07 08:20:00,26.6,19.8,29.77,SW,233,5.0,11.0,75,0.00,,BKN300,0.00,VWS V14.01,2013-01-07 14:20:00,
2013-01-07 08:21:00,26.6,19.8,29.77,SW,229,3.0,11.0,75,0.00,,BKN300,0.00,VWS V14.01,2013-01-07 14:21:00,
2013-01-07 08:22:00,26.6,19.8,29.77,SSE,153,6.0,11.0,75,0.00,,BKN300,0.00,VWS V14.01,2013-01-07 14:22:00,
2013-01-07 08:23:00,26.7,19.9,29.77,SSE,154,1.0,11.0,75,0.00,,BKN300,0.00,VWS V14.01,2013-01-07 14:23:00,
2013-01-07 08:24:00,26.7,19.9,29.77,SE,133,3.0,11.0,75,0.00,,BKN300,0.00,VWS V14.01,2013-01-07 14:24:00,
2013-01-07 08:25:00,26.7,19.9,29.77,SE,140,2.0,11.0,75,0.00,,BKN300,0.00,VWS V14.01,2013-01-07 14:25:00,
2013-01-07 08:26:00,26.7,19.9,29.77,SE,140,0.0,11.0,75,0.00,,BKN300,0.00,VWS V14.01,2013-01-07 14:26:00,
2013-01-07 08:27:00,26.7,19.9,29.77,SW,235,6.0,11.0,75,0.00,,BKN300,0.00,VWS V14.01,2013-01-07 14:27:00,
2013-01-07 08:28:00,26.7,19.9,29.77,WSW,239,6.0,11.0,75,0.00,,BKN300,0.00,VWS V14.01,2013-01-07 14:28:00,
2013-01-07 08:29:00,26.7,19.9,29.77,SSW,202,2.0,11.0,75,0.00,,BKN300,0.00,VWS V14.01,2013-01-07 14:29:00,
2013-01-07 08:30:00,26.7,19.9,29.78,SSW,202,3.0,11.0,75,0.00,,BKN300,0.00,VWS V14.01,2013-01-07 14:30:00,
2013-01-07 08:31:00,26.7,19.9,29.78,SSW,211,5.0,7.0,75,0.00,,BKN300,0.00,VWS V14.01,2013-01-07 14:31:00,
2013-01-07 08:32:00,26.7,19.9,29.78,SE,146,0.0,10.0,75,0.00,,BKN300,0.00,VWS V14.01,2013-01-07 14:32:00,
2013-01-07 08:33:00,26.7,19.9,29.78,SE,137,1.0,10.0,75,0.00,,BKN300,0.00,VWS V14.01,2013-01-07 14:33:00,
2013-01-07 08:34:00,26.9,20.0,29.78,SW,215,2.0,10.0,75,0.00,,BKN300,0.00,VWS V14.01,2013-01-07 14:34:00,
2013-01-07 08:35:00,26.9,20.0,29.78,South,185,5.0,10.0,75,0.00,,BKN300,0.00,VWS V14.01,2013-01-07 14:35:00,
2013-01-07 08:36:00,26.9,19.7,29.78,SW,229,8.0,10.0,74,0.00,,BKN300,0.00,VWS V14.01,2013-01-07 14:36:00,
2013-01-07 08:37:00,26.9,19.7,29.78,SW,230,0.0,10.0,74,0.00,,BKN300,0.00,VWS V14.01,2013-01-07 14:37:00,
2013-01-07 08:38:00,26.9,19.7,29.78,SSW,198,6.0,10.0,74,0.00,,BKN300,0.00,VWS V14.01,2013-01-07 14:38:00,
2013-01-07 08:39:00,26.9,19.7,29.78,WSW,256,0.0,11.0,74,0.00,,BKN300,0.00,VWS V14.01,2013-01-07 14:39:00,
2013-01-07 08:40:00,26.9,19.7,29.78,WSW,239,6.0,11.0,74,0.00,,BKN300,0.00,VWS V14.01,2013-01-07 14:40:00,
2013-01-07 08:41:00,27.0,19.8,29.78,SSE,156,12.0,12.0,74,0.00,,BKN300,0.00,VWS V14.01,2013-01-07 14:41:00,
2013-01-07 08:42:00,27.0,20.1,29.78,South,177,4.0,12.0,75,0.00,,BKN300,0.00,VWS V14.01,2013-01-07 14:42:00,
2013-01-07 08:43:00,27.0,19.8,29.78,ESE,123,0.0,12.0,74,0.00,,BKN300,0.00,VWS V14.01,2013-01-07 14:43:00,
2013-01-07 08:44:00,27.0,19.8,29.78,SW,230,1.0,12.0,74,0.00,,BKN300,0.00,VWS V14.01,2013-01-07 14:44:00,
2013-01-07 08:45:00,27.0,19.8,29.77,South,182,6.0,12.0,74,0.00,,BKN300,0.00,VWS V14.01,2013-01-07 14:45:00,
2013-01-07 08:46:00,27.2,20.0,29.77,SE,146,3.0,12.0,74,0.00,,BKN300,0.00,VWS V14.01,2013-01-07 14:46:00,
2013-01-07 08:47:00,27.2,20.0,29.77,SE,146,0.0,12.0,74,0.00,,BKN300,0.00,VWS V14.01,2013-01-07 14:47:00,
2013-01-07 08:48:00,27.2,20.0,29.77,SW,230,10.0,12.0,74,0.00,,BKN300,0.00,VWS V14.01,2013-01-07 14:48:00,
2013-01-07 08:49:00,27.2,20.0,29.77,SW,236,4.0,12.0,74,0.00,,BKN300,0.00,VWS V14.01,2013-01-07 14:49:00,
2013-01-07 08:50:00,27.2,20.0,29.77,SW,236,0.0,12.0,74,0.00,,BKN300,0.00,VWS V14.01,2013-01-07 14:50:00,
2013-01-07 08:51:00,27.2,20.0,29.77,WSW,245,0.0,12.0,74,0.00,,BKN300,0.00,VWS V14.01,2013-01-07 14:51:00,
2013-01-07 08:52:00,27.2,20.0,29.77,WSW,252,2.0,12.0,74,0.00,,BKN300,0.00,VWS V14.01,2013-01-07 14:52:00,
2013-01-07 08:53:00,27.2,20.0,29.77,WSW,239,0.0,12.0,74,0.00,,BKN300,0.00,VWS V14.01,2013-01-07 14:53:00,
2013-01-07 08:54:00,27.2,20.0,29.77,SE,142,5.0,12.0,74,0.00,,BKN300,0.00,VWS V14.01,2013-01-07 14:54:00,
2013-01-07 08:55:00,27.2,20.0,29.77,ESE,119,10.0,12.0,74,0.00,,BKN300,0.00,VWS V14.01,2013-01-07 14:55:00,
2013-01-07 08:56:00,27.2,20.0,29.77,SW,214,3.0,12.0,74,0.00,,BKN300,0.00,VWS V14.01,2013-01-07 14:56:00,
2013-01-07 08:57:00,27.2,20.0,29.77,SW,221,8.0,12.0,74,0.00,,BKN300,0.00,VWS V14.01,2013-01-07 14:57:00,
2013-01-07 08:58:00,27.3,20.1,29.77,SW,228,1.0,12.0,74,0.00,,BKN300,0.00,VWS V14.01,2013-01-07 14:58:00,
2013-01-07 08:59:00,27.3,20.1,29.77,West,260,2.0,12.0,74,0.00,,BKN300,0.00,VWS V14.01,2013-01-07 14:59:00,
2013-01-07 09:00:00,27.3,20.1,29.78,SE,136,5.0,12.0,74,0.00,,BKN300,0.00,VWS V14.01,2013-01-07 15:00:00,
2013-01-07 09:01:00,27.5,20.3,29.78,SW,229,5.0,10.0,74,0.00,,BKN300,0.00,VWS V14.01,2013-01-07 15:01:00,
2013-01-07 09:02:00,27.5,20.3,29.78,South,170,3.0,11.0,74,0.00,,BKN300,0.00,VWS V14.01,2013-01-07 15:02:00,
2013-01-07 09:03:00,27.5,20.3,29.78,SW,230,2.0,11.0,74,0.00,,BKN300,0.00,VWS V14.01,2013-01-07 15:03:00,
2013-01-07 09:04:00,27.5,20.3,29.78,WSW,254,0.0,11.0,74,0.00,,BKN300,0.00,VWS V14.01,2013-01-07 15:04:00,
2013-01-07 09:05:00,27.6,20.4,29.78,WSW,250,0.0,11.0,74,0.00,,BKN300,0.00,VWS V14.01,2013-01-07 15:05:00,
2013-01-07 09:06:00,27.6,20.4,29.78,SW,236,9.0,11.0,74,0.00,,BKN300,0.00,VWS V14.01,2013-01-07 15:06:00,
2013-01-07 09:07:00,27.6,20.4,29.78,WSW,257,1.0,13.0,74,0.00,,BKN300,0.00,VWS V14.01,2013-01-07 15:07:00,
2013-01-07 09:08:00,27.6,20.4,29.78,SSE,167,4.0,13.0,74,0.00,,BKN300,0.00,VWS V14.01,2013-01-07 15:08:00,
2013-01-07 09:09:00,27.8,20.6,29.78,SW,223,7.0,13.0,74,0.00,,BKN300,0.00,VWS V14.01,2013-01-07 15:09:00,
2013-01-07 09:10:00,27.8,20.6,29.78,WSW,246,5.0,13.0,74,0.00,,BKN300,0.00,VWS V14.01,2013-01-07 15:10:00,
2013-01-07 09:11:00,27.8,20.6,29.78,SW,225,1.0,13.0,74,0.00,,BKN300,0.00,VWS V14.01,2013-01-07 15:11:00,
2013-01-07 09:12:00,27.8,20.6,29.78,SW,226,0.0,13.0,74,0.00,,BKN300,0.00,VWS V14.01,2013-01-07 15:12:00,
2013-01-07 09:13:00,27.8,20.6,29.78,WSW,247,2.0,13.0,74,0.00,,BKN300,0.00,VWS V14.01,2013-01-07 15:13:00,
2013-01-07 09:14:00,27.8,20.6,29.78,SSE,158,6.0,13.0,74,0.00,,BKN300,0.00,VWS V14.01,2013-01-07 15:14:00,
2013-01-07 09:15:00,27.8,20.6,29.79,SSW,195,1.0,13.0,74,0.00,,BKN300,0.00,VWS V14.01,2013-01-07 15:15:00,
2013-01-07 09:16:00,27.9,20.7,29.79,SW,232,3.0,13.0,74,0.00,,BKN300,0.00,VWS V14.01,2013-01-07 15:16:00,
2013-01-07 09:17:00,27.9,20.4,29.79,West,269,1.0,13.0,73,0.00,,BKN300,0.00,VWS V14.01,2013-01-07 15:17:00,
2013-01-07 09:18:00,27.9,20.4,29.79,WSW,254,0.0,13.0,73,0.00,,BKN300,0.00,VWS V14.01,2013-01-07 15:18:00,
2013-01-07 09:19:00,27.9,20.4,29.79,WSW,254,1.0,13.0,73,0.00,,BKN300,0.00,VWS V14.01,2013-01-07 15:19:00,
2013-01-07 09:20:00,27.9,20.4,29.79,WSW,247,6.0,13.0,73,0.00,,BKN300,0.00,VWS V14.01,2013-01-07 15:20:00,
2013-01-07 09:21:00,27.9,20.7,29.79,WSW,257,6.0,13.0,74,0.00,,BKN300,0.00,VWS V14.01,2013-01-07 15:21:00,
2013-01-07 09:22:00,27.9,20.4,29.79,WSW,252,0.0,13.0,73,0.00,,BKN300,0.00,VWS V14.01,2013-01-07 15:22:00,
2013-01-07 09:23:00,27.9,20.4,29.79,WSW,243,0.0,13.0,73,0.00,,BKN300,0.00,VWS V14.01,2013-01-07 15:23:00,
2013-01-07 09:24:00,27.9,20.4,29.79,WSW,254,1.0,13.0,73,0.00,,BKN300,0.00,VWS V14.01,2013-01-07 15:24:00,
2013-01-07 09:25:00,28.1,20.6,29.79,WSW,253,6.0,13.0,73,0.00,,BKN300,0.00,VWS V14.01,2013-01-07 15:25:00,
2013-01-07 09:26:00,28.1,20.6,29.79,SW,235,0.0,13.0,73,0.00,,BKN300,0.00,VWS V14.01,2013-01-07 15:26:00,
2013-01-07 09:27:00,28.1,20.6,29.79,WSW,242,1.0,13.0,73,0.00,,BKN300,0.00,VWS V14.01,2013-01-07 15:27:00,
2013-01-07 09:28:00,28.1,20.6,29.79,WSW,256,1.0,13.0,73,0.00,,BKN300,0.00,VWS V14.01,2013-01-07 15:28:00,
2013-01-07 09:29:00,28.2,20.7,29.79,WSW,257,1.0,13.0,73,0.00,,BKN300,0.00,VWS V14.01,2013-01-07 15:29:00,
2013-01-07 09:30:00,28.2,20.7,29.80,WSW,257,0.0,13.0,73,0.00,,BKN250,0.00,VWS V14.01,2013-01-07 15:30:00,
2013-01-07 09:31:00,28.2,20.7,29.80,West,259,1.0,1.0,73,0.00,,BKN250,0.00,VWS V14.01,2013-01-07 15:31:00,
2013-01-07 09:32:00,28.4,20.9,29.80,West,266,0.0,4.0,73,0.00,,BKN250,0.00,VWS V14.01,2013-01-07 15:32:00,
2013-01-07 09:33:00,28.4,20.9,29.80,SSW,201,7.0,9.0,73,0.00,,BKN250,0.00,VWS V14.01,2013-01-07 15:33:00,
2013-01-07 09:34:00,28.4,20.9,29.80,SW,236,1.0,9.0,73,0.00,,BKN250,0.00,VWS V14.01,2013-01-07 15:34:00,
2013-01-07 09:35:00,28.4,20.9,29.80,WSW,238,5.0,11.0,73,0.00,,BKN250,0.00,VWS V14.01,2013-01-07 15:35:00,
2013-01-07 09:36:00,28.5,21.0,29.80,SE,130,7.0,11.0,73,0.00,,BKN250,0.00,VWS V14.01,2013-01-07 15:36:00,
2013-01-07 09:37:00,28.5,21.0,29.80,SW,216,9.0,11.0,73,0.00,,BKN250,0.00,VWS V14.01,2013-01-07 15:37:00,
2013-01-07 09:38:00,28.5,20.6,29.80,SSW,199,3.0,11.0,72,0.00,,BKN250,0.00,VWS V14.01,2013-01-07 15:38:00,
2013-01-07 09:39:00,28.5,20.6,29.80,SSW,197,3.0,11.0,72,0.00,,BKN250,0.00,VWS V14.01,2013-01-07 15:39:00,
2013-01-07 09:40:00,28.5,20.6,29.80,South,175,12.0,13.0,72,0.00,,BKN250,0.00,VWS V14.01,2013-01-07 15:40:00,
2013-01-07 09:41:00,28.5,20.6,29.80,WSW,246,7.0,13.0,72,0.00,,BKN250,0.00,VWS V14.01,2013-01-07 15:41:00,
2013-01-07 09:42:00,28.7,20.8,29.80,SE,144,1.0,13.0,72,0.00,,BKN250,0.00,VWS V14.01,2013-01-07 15:42:00,
2013-01-07 09:43:00,28.7,20.8,29.80,SW,229,7.0,13.0,72,0.00,,BKN250,0.00,VWS V14.01,2013-01-07 15:43:00,
2013-01-07 09:44:00,28.7,20.8,29.80,SW,228,1.0,13.0,72,0.00,,BKN250,0.00,VWS V14.01,2013-01-07 15:44:00,
2013-01-07 09:45:00,28.7,20.8,29.79,WSW,253,3.0,13.0,72,0.00,,BKN250,0.00,VWS V14.01,2013-01-07 15:45:00,
2013-01-07 09:46:00,28.7,20.8,29.79,WSW,250,1.0,13.0,72,0.00,,BKN250,0.00,VWS V14.01,2013-01-07 15:46:00,
2013-01-07 09:47:00,28.7,21.1,29.79,WSW,247,0.0,13.0,73,0.00,,BKN250,0.00,VWS V14.01,2013-01-07 15:47:00,
2013-01-07 09:48:00,28.7,20.8,29.79,WSW,247,3.0,13.0,72,0.00,,BKN250,0.00,VWS V14.01,2013-01-07 15:48:00,
2013-01-07 09:49:00,28.8,20.9,29.79,South,178,2.0,13.0,72,0.00,,BKN250,0.00,VWS V14.01,2013-01-07 15:49:00,
2013-01-07 09:50:00,28.8,20.9,29.79,SE,137,5.0,13.0,72,0.00,,BKN250,0.00,VWS V14.01,2013-01-07 15:50:00,
2013-01-07 09:51:00,29.0,21.1,29.79,WSW,256,0.0,13.0,72,0.00,,BKN250,0.00,VWS V14.01,2013-01-07 15:51:00,
2013-01-07 09:52:00,29.0,21.1,29.79,West,274,2.0,13.0,72,0.00,,BKN250,0.00,VWS V14.01,2013-01-07 15:52:00,
2013-01-07 09:53:00,29.0,21.1,29.79,West,269,2.0,13.0,72,0.00,,BKN250,0.00,VWS V14.01,2013-01-07 15:53:00,
2013-01-07 09:54:00,29.0,21.1,29.79,SW,236,4.0,13.0,72,0.00,,BKN250,0.00,VWS V14.01,2013-01-07 15:54:00,
2013-01-07 09:55:00,28.8,20.9,29.79,SW,225,2.0,13.0,72,0.00,,BKN250,0.00,VWS V14.01,2013-01-07 15:55:00,
2013-01-07 09:56:00,28.8,20.9,29.79,WSW,252,0.0,13.0,72,0.00,,BKN250,0.00,VWS V14.01,2013-01-07 15:56:00,
2013-01-07 09:57:00,28.8,20.9,29.79,WSW,245,9.0,13.0,72,0.00,,BKN250,0.00,VWS V14.01,2013-01-07 15:57:00,
2013-01-07 09:58:00,28.8,20.9,29.79,WSW,238,9.0,13.0,72,0.00,,BKN250,0.00,VWS V14.01,2013-01-07 15:58:00,
2013-01-07 09:59:00,28.8,20.9,29.79,WSW,254,0.0,13.0,72,0.00,,BKN250,0.00,VWS V14.01,2013-01-07 15:59:00,
2013-01-07 10:00:00,28.8,20.9,29.81,SW,235,5.0,13.0,72,0.00,,BKN250,0.00,VWS V14.01,2013-01-07 16:00:00,
2013-01-07 10:01:00,28.8,20.9,29.81,West,269,1.0,8.0,72,0.00,,BKN250,0.00,VWS V14.01,2013-01-07 16:01:00,
2013-01-07 10:02:00,28.8,20.9,29.81,West,264,3.0,12.0,72,0.00,,BKN250,0.00,VWS V14.01,2013-01-07 16:02:00,
2013-01-07 10:03:00,28.8,20.9,29.81,West,260,2.0,12.0,72,0.00,,BKN250,0.00,VWS V14.01,2013-01-07 16:03:00,
2013-01-07 10:04:00,28.8,20.9,29.81,SSW,205,7.0,12.0,72,0.00,,BKN250,0.00,VWS V14.01,2013-01-07 16:04:00,
2013-01-07 10:05:00,29.0,21.1,29.81,WSW,240,0.0,12.0,72,0.00,,BKN250,0.00,VWS V14.01,2013-01-07 16:05:00,
2013-01-07 10:06:00,29.0,21.1,29.81,WSW,245,0.0,12.0,72,0.00,,BKN250,0.00,VWS V14.01,2013-01-07 16:06:00,
2013-01-07 10:07:00,29.1,21.2,29.81,WSW,243,0.0,12.0,72,0.00,,BKN250,0.00,VWS V14.01,2013-01-07 16:07:00,
2013-01-07 10:08:00,29.1,21.2,29.81,West,266,0.0,12.0,72,0.00,,BKN250,0.00,VWS V14.01,2013-01-07 16:08:00,
2013-01-07 10:09:00,29.3,21.4,29.81,SW,232,7.0,12.0,72,0.00,,BKN250,0.00,VWS V14.01,2013-01-07 16:09:00,
2013-01-07 10:10:00,29.3,21.4,29.81,WNW,300,1.0,12.0,72,0.00,,BKN250,0.00,VWS V14.01,2013-01-07 16:10:00,
2013-01-07 10:11:00,29.4,21.5,29.81,West,270,0.0,12.0,72,0.00,,BKN250,0.00,VWS V14.01,2013-01-07 16:11:00,
2013-01-07 10:12:00,29.4,21.5,29.81,SW,215,3.0,12.0,72,0.00,,BKN250,0.00,VWS V14.01,2013-01-07 16:12:00,
2013-01-07 10:13:00,29.5,21.6,29.81,WSW,245,3.0,12.0,72,0.00,,BKN250,0.00,VWS V14.01,2013-01-07 16:13:00,
2013-01-07 10:14:00,29.5,21.6,29.81,SSW,192,5.0,12.0,72,0.00,,BKN250,0.00,VWS V14.01,2013-01-07 16:14:00,
2013-01-07 10:15:00,29.7,21.8,29.80,West,270,3.0,12.0,72,0.00,,BKN250,0.00,VWS V14.01,2013-01-07 16:15:00,
2013-01-07 10:16:00,29.7,21.5,29.80,SW,230,4.0,12.0,71,0.00,,BKN250,0.00,VWS V14.01,2013-01-07 16:16:00,
2013-01-07 10:17:00,29.8,21.6,29.80,SW,235,8.0,12.0,71,0.00,,BKN250,0.00,VWS V14.01,2013-01-07 16:17:00,
2013-01-07 10:18:00,29.8,21.6,29.80,WSW,254,3.0,12.0,71,0.00,,BKN250,0.00,VWS V14.01,2013-01-07 16:18:00,
2013-01-07 10:19:00,29.8,21.2,29.80,WSW,254,3.0,12.0,70,0.00,,BKN250,0.00,VWS V14.01,2013-01-07 16:19:00,
2013-01-07 10:20:00,29.8,21.6,29.80,WSW,252,2.0,12.0,71,0.00,,BKN250,0.00,VWS V14.01,2013-01-07 16:20:00,
2013-01-07 10:21:00,29.8,21.6,29.80,WSW,252,2.0,12.0,71,0.00,,BKN250,0.00,VWS V14.01,2013-01-07 16:21:00,
2013-01-07 10:22:00,29.8,21.6,29.80,WSW,243,6.0,12.0,71,0.00,,BKN250,0.00,VWS V14.01,2013-01-07 16:22:00,
2013-01-07 10:23:00,29.8,21.6,29.80,West,270,0.0,12.0,71,0.00,,BKN250,0.00,VWS V14.01,2013-01-07 16:23:00,
2013-01-07 10:24:00,29.8,21.6,29.80,WSW,257,8.0,12.0,71,0.00,,BKN250,0.00,VWS V14.01,2013-01-07 16:24:00,
2013-01-07 10:25:00,29.8,21.6,29.80,WSW,250,6.0,12.0,71,0.00,,BKN250,0.00,VWS V14.01,2013-01-07 16:25:00,
2013-01-07 10:26:00,29.7,21.5,29.80,West,259,5.0,12.0,71,0.00,,BKN250,0.00,VWS V14.01,2013-01-07 16:26:00,
2013-01-07 10:27:00,29.7,21.5,29.80,WSW,254,5.0,12.0,71,0.00,,BKN250,0.00,VWS V14.01,2013-01-07 16:27:00,
2013-01-07 10:28:00,29.7,21.5,29.80,WSW,249,5.0,12.0,71,0.00,,BKN250,0.00,VWS V14.01,2013-01-07 16:28:00,
2013-01-07 10:29:00,29.8,21.6,29.80,WSW,256,5.0,12.0,71,0.00,,BKN250,0.00,VWS V14.01,2013-01-07 16:29:00,
2013-01-07 10:30:00,29.8,21.6,29.79,West,263,1.0,12.0,71,0.00,,BKN250,0.00,VWS V14.01,2013-01-07 16:30:00,
2013-01-07 10:31:00,29.8,21.6,29.79,West,262,1.0,12.0,71,0.00,,BKN250,0.00,VWS V14.01,2013-01-07 16:31:00,
2013-01-07 10:32:00,29.8,21.6,29.79,WSW,257,3.0,12.0,71,0.00,,BKN250,0.00,VWS V14.01,2013-01-07 16:32:00,
2013-01-07 10:33:00,29.8,21.6,29.79,WSW,245,8.0,12.0,71,0.00,,BKN250,0.00,VWS V14.01,2013-01-07 16:33:00,
2013-01-07 10:34:00,29.7,21.5,29.79,WSW,249,11.0,16.0,71,0.00,,BKN250,0.00,VWS V14.01,2013-01-07 16:34:00,
2013-01-07 10:35:00,29.7,21.5,29.79,West,269,4.0,16.0,71,0.00,,BKN250,0.00,VWS V14.01,2013-01-07 16:35:00,
2013-01-07 10:36:00,29.7,21.5,29.79,West,270,0.0,16.0,71,0.00,,BKN250,0.00,VWS V14.01,2013-01-07 16:36:00,
2013-01-07 10:37:00,29.5,21.6,29.79,WSW,249,5.0,16.0,72,0.00,,BKN250,0.00,VWS V14.01,2013-01-07 16:37:00,
2013-01-07 10:38:00,29.5,21.6,29.79,SW,232,5.0,16.0,72,0.00,,BKN250,0.00,VWS V14.01,2013-01-07 16:38:00,
2013-01-07 10:39:00,29.5,21.6,29.79,WSW,240,6.0,16.0,72,0.00,,BKN250,0.00,VWS V14.01,2013-01-07 16:39:00,
2013-01-07 10:40:00,29.5,21.6,29.79,WSW,253,6.0,16.0,72,0.00,,BKN250,0.00,VWS V14.01,2013-01-07 16:40:00,
2013-01-07 10:41:00,29.5,21.6,29.79,WSW,254,3.0,16.0,72,0.00,,BKN250,0.00,VWS V14.01,2013-01-07 16:41:00,
2013-01-07 10:42:00,29.5,21.6,29.79,West,269,0.0,16.0,72,0.00,,BKN250,0.00,VWS V14.01,2013-01-07 16:42:00,
2013-01-07 10:43:00,29.5,21.6,29.79,WSW,238,2.0,16.0,72,0.00,,BKN250,0.00,VWS V14.01,2013-01-07 16:43:00,
2013-01-07 10:44:00,29.5,21.9,29.79,WSW,240,0.0,16.0,73,0.00,,BKN250,0.00,VWS V14.01,2013-01-07 16:44:00,
2013-01-07 10:45:00,29.5,21.6,29.80,WSW,240,3.0,16.0,72,0.00,,BKN250,0.00,VWS V14.01,2013-01-07 16:45:00,
2013-01-07 10:46:00,29.5,21.6,29.80,West,266,2.0,16.0,72,0.00,,BKN250,0.00,VWS V14.01,2013-01-07 16:46:00,
2013-01-07 10:47:00,29.5,21.9,29.80,WSW,252,5.0,16.0,73,0.00,,BKN250,0.00,VWS V14.01,2013-01-07 16:47:00,
2013-01-07 10:48:00,29.5,21.9,29.80,WSW,239,1.0,16.0,73,0.00,,BKN250,0.00,VWS V14.01,2013-01-07 16:48:00,
2013-01-07 10:49:00,29.5,21.6,29.80,WSW,257,3.0,16.0,72,0.00,,BKN250,0.00,VWS V14.01,2013-01-07 16:49:00,
2013-01-07 10:50:00,29.5,21.6,29.80,WSW,257,0.0,16.0,72,0.00,,BKN250,0.00,VWS V14.01,2013-01-07 16:50:00,
2013-01-07 10:51:00,29.5,21.9,29.80,WSW,254,2.0,16.0,73,0.00,,BKN250,0.00,VWS V14.01,2013-01-07 16:51:00,
2013-01-07 10:52:00,29.5,21.9,29.80,WSW,254,0.0,16.0,73,0.00,,BKN250,0.00,VWS V14.01,2013-01-07 16:52:00,
2013-01-07 10:53:00,29.7,21.8,29.80,WSW,257,5.0,16.0,72,0.00,,BKN250,0.00,VWS V14.01,2013-01-07 16:53:00,
2013-01-07 10:54:00,29.7,21.8,29.80,West,263,7.0,16.0,72,0.00,,BKN250,0.00,VWS V14.01,2013-01-07 16:54:00,
2013-01-07 10:55:00,29.7,21.8,29.80,South,185,2.0,16.0,72,0.00,,BKN250,0.00,VWS V14.01,2013-01-07 16:55:00,
2013-01-07 10:56:00,29.7,21.8,29.80,WSW,250,3.0,16.0,72,0.00,,BKN250,0.00,VWS V14.01,2013-01-07 16:56:00,
2013-01-07 10:57:00,29.8,21.9,29.80,WSW,250,3.0,16.0,72,0.00,,BKN250,0.00,VWS V14.01,2013-01-07 16:57:00,
2013-01-07 10:58:00,29.8,21.9,29.80,SW,235,8.0,16.0,72,0.00,,BKN250,0.00,VWS V14.01,2013-01-07 16:58:00,
2013-01-07 10:59:00,29.8,21.9,29.80,WSW,245,0.0,16.0,72,0.00,,BKN250,0.00,VWS V14.01,2013-01-07 16:59:00,
2013-01-07 11:00:00,29.8,21.9,29.78,WSW,249,0.0,16.0,72,0.00,,BKN250,0.00,VWS V14.01,2013-01-07 17:00:00,
2013-01-07 11:01:00,29.8,21.9,29.78,WSW,253,0.0,1.0,72,0.00,,BKN250,0.00,VWS V14.01,2013-01-07 17:01:00,
2013-01-07 11:02:00,30.0,22.1,29.78,WSW,254,0.0,16.0,72,0.00,,BKN250,0.00,VWS V14.01,2013-01-07 17:02:00,
2013-01-07 11:03:00,30.0,22.1,29.78,WSW,238,7.0,16.0,72,0.00,,BKN250,0.00,VWS V14.01,2013-01-07 17:03:00,
2013-01-07 11:04:00,30.0,22.1,29.78,WSW,239,0.0,16.0,72,0.00,,BKN250,0.00,VWS V14.01,2013-01-07 17:04:00,
2013-01-07 11:05:00,30.0,22.1,29.78,WSW,240,5.0,16.0,72,0.00,,BKN250,0.00,VWS V14.01,2013-01-07 17:05:00,
2013-01-07 11:06:00,30.0,22.1,29.78,WSW,242,6.0,16.0,72,0.00,,BKN250,0.00,VWS V14.01,2013-01-07 17:06:00,
2013-01-07 11:07:00,30.0,22.1,29.78,West,270,1.0,16.0,72,0.00,,BKN250,0.00,VWS V14.01,2013-01-07 17:07:00,
2013-01-07 11:08:00,30.0,22.1,29.78,SW,233,7.0,16.0,72,0.00,,BKN250,0.00,VWS V14.01,2013-01-07 17:08:00,
2013-01-07 11:09:00,30.0,22.1,29.78,WSW,247,1.0,16.0,72,0.00,,BKN250,0.00,VWS V14.01,2013-01-07 17:09:00,
2013-01-07 11:10:00,30.0,22.1,29.78,WSW,257,0.0,16.0,72,0.00,,BKN250,0.00,VWS V14.01,2013-01-07 17:10:00,
2013-01-07 11:11:00,30.0,22.1,29.78,WSW,242,0.0,16.0,72,0.00,,BKN250,0.00,VWS V14.01,2013-01-07 17:11:00,
2013-01-07 11:12:00,30.0,22.1,29.78,West,259,0.0,16.0,72,0.00,,BKN250,0.00,VWS V14.01,2013-01-07 17:12:00,
2013-01-07 11:13:00,30.0,22.1,29.78,West,259,0.0,16.0,72,0.00,,BKN250,0.00,VWS V14.01,2013-01-07 17:13:00,
2013-01-07 11:14:00,30.0,22.4,29.78,WSW,253,1.0,16.0,73,0.00,,BKN250,0.00,VWS V14.01,2013-01-07 17:14:00,
2013-01-07 11:15:00,30.1,22.2,29.78,SW,228,5.0,16.0,72,0.00,,BKN250,0.00,VWS V14.01,2013-01-07 17:15:00,
2013-01-07 11:16:00,30.1,22.2,29.78,WSW,256,2.0,16.0,72,0.00,,BKN250,0.00,VWS V14.01,2013-01-07 17:16:00,
2013-01-07 11:17:00,30.1,22.2,29.78,West,259,0.0,16.0,72,0.00,,BKN250,0.00,VWS V14.01,2013-01-07 17:17:00,
2013-01-07 11:18:00,30.1,22.2,29.78,SW,228,0.0,16.0,72,0.00,,BKN250,0.00,VWS V14.01,2013-01-07 17:18:00,
2013-01-07 11:19:00,30.1,22.2,29.78,WSW,245,4.0,16.0,72,0.00,,BKN250,0.00,VWS V14.01,2013-01-07 17:19:00,
2013-01-07 11:20:00,30.1,22.2,29.78,SW,229,7.0,16.0,72,0.00,,BKN250,0.00,VWS V14.01,2013-01-07 17:20:00,
2013-01-07 11:21:00,30.1,22.2,29.78,WSW,256,0.0,16.0,72,0.00,,BKN250,0.00,VWS V14.01,2013-01-07 17:21:00,
2013-01-07 11:22:00,30.1,22.2,29.78,WSW,256,1.0,16.0,72,0.00,,BKN250,0.00,VWS V14.01,2013-01-07 17:22:00,
2013-01-07 11:23:00,30.1,22.2,29.78,West,260,5.0,16.0,72,0.00,,BKN250,0.00,VWS V14.01,2013-01-07 17:23:00,
2013-01-07 11:24:00,30.3,22.4,29.78,WSW,238,7.0,16.0,72,0.00,,BKN250,0.00,VWS V14.01,2013-01-07 17:24:00,
2013-01-07 11:25:00,30.3,22.4,29.78,WSW,256,0.0,16.0,72,0.00,,BKN250,0.00,VWS V14.01,2013-01-07 17:25:00,
2013-01-07 11:26:00,30.3,22.4,29.78,WSW,254,5.0,16.0,72,0.00,,BKN250,0.00,VWS V14.01,2013-01-07 17:26:00,
2013-01-07 11:27:00,30.4,22.5,29.78,WSW,252,2.0,16.0,72,0.00,,BKN250,0.00,VWS V14.01,2013-01-07 17:27:00,
2013-01-07 11:28:00,30.4,22.5,29.78,WSW,247,1.0,16.0,72,0.00,,BKN250,0.00,VWS V14.01,2013-01-07 17:28:00,
2013-01-07 11:29:00,30.6,22.7,29.78,West,270,2.0,16.0,72,0.00,,BKN250,0.00,VWS V14.01,2013-01-07 17:29:00,
2013-01-07 11:30:00,30.6,22.7,29.78,West,270,1.0,16.0,72,0.00,,BKN250,0.00,VWS V14.01,2013-01-07 17:30:00,
2013-01-07 11:31:00,30.7,22.8,29.78,WSW,254,1.0,6.0,72,0.00,,BKN250,0.00,VWS V14.01,2013-01-07 17:31:00,
2013-01-07 11:32:00,30.9,22.6,29.78,WSW,246,8.0,10.0,71,0.00,,BKN250,0.00,VWS V14.01,2013-01-07 17:32:00,
2013-01-07 11:33:00,30.9,22.6,29.78,WSW,252,0.0,10.0,71,0.00,,BKN250,0.00,VWS V14.01,2013-01-07 17:33:00,
2013-01-07 11:34:00,31.0,22.7,29.78,WSW,254,0.0,12.0,71,0.00,,BKN250,0.00,VWS V14.01,2013-01-07 17:34:00,
2013-01-07 11:35:00,31.0,22.7,29.78,SW,228,1.0,12.0,71,0.00,,BKN250,0.00,VWS V14.01,2013-01-07 17:35:00,
2013-01-07 11:36:00,31.0,22.4,29.78,WSW,257,0.0,12.0,70,0.00,,BKN250,0.00,VWS V14.01,2013-01-07 17:36:00,
2013-01-07 11:37:00,31.2,22.9,29.78,WSW,256,2.0,12.0,71,0.00,,BKN250,0.00,VWS V14.01,2013-01-07 17:37:00,
2013-01-07 11:38:00,31.2,22.9,29.78,SW,222,6.0,12.0,71,0.00,,BKN250,0.00,VWS V14.01,2013-01-07 17:38:00,
2013-01-07 11:39:00,31.3,23.0,29.78,West,259,1.0,12.0,71,0.00,,BKN250,0.00,VWS V14.01,2013-01-07 17:39:00,
2013-01-07 11:40:00,31.3,22.7,29.78,WSW,239,3.0,12.0,70,0.00,,BKN250,0.00,VWS V14.01,2013-01-07 17:40:00,
2013-01-07 11:41:00,31.5,22.9,29.78,SW,233,5.0,12.0,70,0.00,,BKN250,0.00,VWS V14.01,2013-01-07 17:41:00,
2013-01-07 11:42:00,31.5,22.9,29.78,West,270,3.0,12.0,70,0.00,,BKN250,0.00,VWS V14.01,2013-01-07 17:42:00,
2013-01-07 11:43:00,31.5,22.9,29.78,West,259,1.0,12.0,70,0.00,,BKN250,0.00,VWS V14.01,2013-01-07 17:43:00,
2013-01-07 11:44:00,31.5,22.9,29.78,WSW,247,0.0,12.0,70,0.00,,BKN250,0.00,VWS V14.01,2013-01-07 17:44:00,
2013-01-07 11:45:00,31.6,23.0,29.77,WSW,238,6.0,12.0,70,0.00,,BKN250,0.00,VWS V14.01,2013-01-07 17:45:00,
2013-01-07 11:46:00,31.6,22.6,29.77,WSW,257,2.0,12.0,69,0.00,,BKN250,0.00,VWS V14.01,2013-01-07 17:46:00,
2013-01-07 11:47:00,31.6,22.6,29.77,West,263,0.0,12.0,69,0.00,,BKN250,0.00,VWS V14.01,2013-01-07 17:47:00,
2013-01-07 11:48:00,31.6,22.6,29.77,SW,233,7.0,12.0,69,0.00,,BKN250,0.00,VWS V14.01,2013-01-07 17:48:00,
2013-01-07 11:49:00,31.6,22.6,29.77,WSW,249,2.0,13.0,69,0.00,,BKN250,0.00,VWS V14.01,2013-01-07 17:49:00,
2013-01-07 11:50:00,31.6,22.6,29.77,WSW,240,7.0,13.0,69,0.00,,BKN250,0.00,VWS V14.01,2013-01-07 17:50:00,
2013-01-07 11:51:00,31.8,22.8,29.77,SW,226,2.0,13.0,69,0.00,,BKN250,0.00,VWS V14.01,2013-01-07 17:51:00,
2013-01-07 11:52:00,31.8,22.8,29.77,WSW,250,2.0,13.0,69,0.00,,BKN250,0.00,VWS V14.01,2013-01-07 17:52:00,
2013-01-07 11:53:00,31.9,22.9,29.77,WSW,249,1.0,13.0,69,0.00,,BKN250,0.00,VWS V14.01,2013-01-07 17:53:00,
2013-01-07 11:54:00,31.9,22.9,29.77,South,187,2.0,13.0,69,0.00,,BKN250,0.00,VWS V14.01,2013-01-07 17:54:00,
2013-01-07 11:55:00,31.9,22.9,29.77,WSW,257,3.0,13.0,69,0.00,,BKN250,0.00,VWS V14.01,2013-01-07 17:55:00,
2013-01-07 11:56:00,31.9,22.5,29.77,WSW,253,1.0,13.0,68,0.00,,BKN250,0.00,VWS V14.01,2013-01-07 17:56:00,
2013-01-07 11:57:00,31.9,22.9,29.77,WNW,284,2.0,13.0,69,0.00,,BKN250,0.00,VWS V14.01,2013-01-07 17:57:00,
2013-01-07 11:58:00,31.9,22.9,29.77,SW,223,5.0,13.0,69,0.00,,BKN250,0.00,VWS V14.01,2013-01-07 17:58:00,
2013-01-07 11:59:00,32.1,23.1,29.77,WSW,257,6.0,13.0,69,0.00,,BKN250,0.00,VWS V14.01,2013-01-07 17:59:00,
2013-01-07 12:00:00,32.1,22.8,29.77,West,273,2.0,13.0,68,0.00,,BKN250,0.00,VWS V14.01,2013-01-07 18:00:00,
2013-01-07 12:01:00,32.1,22.8,29.77,West,262,3.0,7.0,68,0.00,,BKN250,0.00,VWS V14.01,2013-01-07 18:01:00,
2013-01-07 12:02:00,32.1,22.8,29.77,West,263,1.0,7.0,68,0.00,,BKN250,0.00,VWS V14.01,2013-01-07 18:02:00,
2013-01-07 12:03:00,32.1,22.8,29.77,WSW,253,4.0,10.0,68,0.00,,BKN250,0.00,VWS V14.01,2013-01-07 18:03:00,
2013-01-07 12:04:00,32.1,22.8,29.77,WSW,253,2.0,10.0,68,0.00,,BKN250,0.00,VWS V14.01,2013-01-07 18:04:00,
2013-01-07 12:05:00,32.1,23.1,29.77,SW,229,8.0,10.0,69,0.00,,BKN250,0.00,VWS V14.01,2013-01-07 18:05:00,
2013-01-07 12:06:00,32.1,23.1,29.77,SW,230,7.0,10.0,69,0.00,,BKN250,0.00,VWS V14.01,2013-01-07 18:06:00,
2013-01-07 12:07:00,32.1,22.8,29.77,WSW,253,0.0,10.0,68,0.00,,BKN250,0.00,VWS V14.01,2013-01-07 18:07:00,
2013-01-07 12:08:00,32.2,22.8,29.77,WSW,243,8.0,10.0,68,0.00,,BKN250,0.00,VWS V14.01,2013-01-07 18:08:00,
2013-01-07 12:09:00,32.2,22.8,29.77,WSW,242,9.0,12.0,68,0.00,,BKN250,0.00,VWS V14.01,2013-01-07 18:09:00,
2013-01-07 12:10:00,32.2,22.8,29.77,SW,215,0.0,12.0,68,0.00,,BKN250,0.00,VWS V14.01,2013-01-07 18:10:00,
2013-01-07 12:11:00,32.2,22.8,29.77,SW,230,0.0,12.0,68,0.00,,BKN250,0.00,VWS V14.01,2013-01-07 18:11:00,
2013-01-07 12:12:00,32.2,22.8,29.77,SW,230,2.0,12.0,68,0.00,,BKN250,0.00,VWS V14.01,2013-01-07 18:12:00,
2013-01-07 12:13:00,32.4,23.0,29.77,WSW,250,1.0,12.0,68,0.00,,BKN250,0.00,VWS V14.01,2013-01-07 18:13:00,
2013-01-07 12:14:00,32.4,23.0,29.77,WSW,250,3.0,12.0,68,0.00,,BKN250,0.00,VWS V14.01,2013-01-07 18:14:00,
2013-01-07 12:15:00,32.4,23.0,29.76,WSW,257,2.0,12.0,68,0.00,,BKN250,0.00,VWS V14.01,2013-01-07 18:15:00,
2013-01-07 12:16:00,32.4,23.0,29.76,SW,233,2.0,12.0,68,0.00,,BKN250,0.00,VWS V14.01,2013-01-07 18:16:00,
2013-01-07 12:17:00,32.4,23.0,29.76,WSW,247,3.0,12.0,68,0.00,,BKN250,0.00,VWS V14.01,2013-01-07 18:17:00,
2013-01-07 12:18:00,32.4,23.0,29.76,WSW,249,1.0,12.0,68,0.00,,BKN250,0.00,VWS V14.01,2013-01-07 18:18:00,
2013-01-07 12:19:00,32.4,23.0,29.76,WSW,246,2.0,12.0,68,0.00,,BKN250,0.00,VWS V14.01,2013-01-07 18:19:00,
2013-01-07 12:20:00,32.4,23.0,29.76,WSW,246,2.0,12.0,68,0.00,,BKN250,0.00,VWS V14.01,2013-01-07 18:20:00,
2013-01-07 12:21:00,32.4,23.0,29.76,WSW,246,9.0,12.0,68,0.00,,BKN250,0.00,VWS V14.01,2013-01-07 18:21:00,
2013-01-07 12:22:00,32.4,23.0,29.76,West,259,0.0,12.0,68,0.00,,BKN250,0.00,VWS V14.01,2013-01-07 18:22:00,
2013-01-07 12:23:00,32.4,23.0,29.76,West,260,0.0,12.0,68,0.00,,BKN250,0.00,VWS V14.01,2013-01-07 18:23:00,
2013-01-07 12:24:00,32.4,23.0,29.76,SSW,192,0.0,12.0,68,0.00,,BKN250,0.00,VWS V14.01,2013-01-07 18:24:00,
2013-01-07 12:25:00,32.5,23.1,29.76,SW,225,1.0,12.0,68,0.00,,BKN250,0.00,VWS V14.01,2013-01-07 18:25:00,
2013-01-07 12:26:00,32.5,23.1,29.76,SW,233,1.0,12.0,68,0.00,,BKN250,0.00,VWS V14.01,2013-01-07 18:26:00,
2013-01-07 12:27:00,32.5,23.1,29.76,SW,235,1.0,12.0,68,0.00,,BKN250,0.00,VWS V14.01,2013-01-07 18:27:00,
2013-01-07 12:28:00,32.7,23.3,29.76,WSW,239,6.0,12.0,68,0.00,,BKN250,0.00,VWS V14.01,2013-01-07 18:28:00,
2013-01-07 12:29:00,32.7,23.0,29.76,WSW,249,8.0,12.0,67,0.00,,BKN250,0.00,VWS V14.01,2013-01-07 18:29:00,
2013-01-07 12:30:00,32.5,22.8,29.76,SW,219,6.0,12.0,67,0.00,,SCT250,0.00,VWS V14.01,2013-01-07 18:30:00,
2013-01-07 12:31:00,32.7,23.3,29.76,West,260,3.0,7.0,68,0.00,,SCT250,0.00,VWS V14.01,2013-01-07 18:31:00,
2013-01-07 12:32:00,32.5,22.8,29.76,SW,222,8.0,8.0,67,0.00,,SCT250,0.00,VWS V14.01,2013-01-07 18:32:00,
2013-01-07 12:33:00,32.5,22.8,29.76,West,259,3.0,8.0,67,0.00,,SCT250,0.00,VWS V14.01,2013-01-07 18:33:00,
2013-01-07 12:34:00,32.5,22.8,29.76,WSW,249,1.0,8.0,67,0.00,,SCT250,0.00,VWS V14.01,2013-01-07 18:34:00,
2013-01-07 12:35:00,32.5,23.1,29.76,South,171,1.0,8.0,68,0.00,,SCT250,0.00,VWS V14.01,2013-01-07 18:35:00,
2013-01-07 12:36:00,32.7,23.3,29.76,West,270,0.0,8.0,68,0.00,,SCT250,0.00,VWS V14.01,2013-01-07 18:36:00,
2013-01-07 12:37:00,32.7,23.3,29.76,West,264,1.0,8.0,68,0.00,,SCT250,0.00,VWS V14.01,2013-01-07 18:37:00,
2013-01-07 12:38:00,32.7,23.3,29.76,WSW,252,1.0,8.0,68,0.00,,SCT250,0.00,VWS V14.01,2013-01-07 18:38:00,
2013-01-07 12:39:00,32.7,23.3,29.76,West,264,1.0,8.0,68,0.02,,SCT250,0.02,VWS V14.01,2013-01-07 18:39:00,
2013-01-07 12:40:00,32.7,23.0,29.76,WSW,238,7.0,8.0,67,0.02,,SCT250,0.02,VWS V14.01,2013-01-07 18:40:00,
2013-01-07 12:41:00,32.7,23.3,29.76,WSW,257,6.0,8.0,68,0.02,,SCT250,0.02,VWS V14.01,2013-01-07 18:41:00,
2013-01-07 12:42:00,32.5,23.1,29.76,WSW,257,0.0,8.0,68,0.02,,SCT250,0.02,VWS V14.01,2013-01-07 18:42:00,
2013-01-07 12:43:00,32.5,23.1,29.76,WSW,252,2.0,8.0,68,0.02,,SCT250,0.02,VWS V14.01,2013-01-07 18:43:00,
2013-01-07 12:44:00,32.4,23.0,29.76,WSW,253,1.0,8.0,68,0.02,,SCT250,0.02,VWS V14.01,2013-01-07 18:44:00,
2013-01-07 12:45:00,32.4,23.0,29.76,WSW,254,0.0,8.0,68,0.02,,SCT250,0.02,VWS V14.01,2013-01-07 18:45:00,
2013-01-07 12:46:00,32.4,23.4,29.76,SW,214,2.0,8.0,69,0.02,,SCT250,0.02,VWS V14.01,2013-01-07 18:46:00,
2013-01-07 12:47:00,32.4,23.4,29.76,WSW,256,6.0,8.0,69,0.02,,SCT250,0.02,VWS V14.01,2013-01-07 18:47:00,
2013-01-07 12:48:00,32.5,23.5,29.76,West,259,2.0,8.0,69,0.02,,SCT250,0.02,VWS V14.01,2013-01-07 18:48:00,
2013-01-07 12:49:00,32.5,23.1,29.76,WSW,256,2.0,8.0,68,0.02,,SCT250,0.02,VWS V14.01,2013-01-07 18:49:00,
2013-01-07 12:50:00,32.5,23.5,29.76,SW,233,1.0,8.0,69,0.02,,SCT250,0.02,VWS V14.01,2013-01-07 18:50:00,
2013-01-07 12:51:00,32.5,23.5,29.76,SW,229,3.0,8.0,69,0.02,,SCT250,0.02,VWS V14.01,2013-01-07 18:51:00,
2013-01-07 12:52:00,32.5,23.1,29.76,SSW,201,5.0,8.0,68,0.02,,SCT250,0.02,VWS V14.01,2013-01-07 18:52:00,
2013-01-07 12:53:00,32.7,23.7,29.76,SW,226,1.0,8.0,69,0.02,,SCT250,0.02,VWS V14.01,2013-01-07 18:53:00,
2013-01-07 12:54:00,32.7,23.7,29.76,SW,233,1.0,10.0,69,0.02,,SCT250,0.02,VWS V14.01,2013-01-07 18:54:00,
2013-01-07 12:55:00,32.5,23.1,29.76,WSW,257,3.0,10.0,68,0.02,,SCT250,0.02,VWS V14.01,2013-01-07 18:55:00,
2013-01-07 12:56:00,32.5,23.5,29.76,SW,235,1.0,10.0,69,0.02,,SCT250,0.02,VWS V14.01,2013-01-07 18:56:00,
2013-01-07 12:57:00,32.5,23.5,29.76,WSW,247,0.0,10.0,69,0.02,,SCT250,0.02,VWS V14.01,2013-01-07 18:57:00,
2013-01-07 12:58:00,32.5,23.5,29.76,WSW,247,1.0,10.0,69,0.02,,SCT250,0.02,VWS V14.01,2013-01-07 18:58:00,
2013-01-07 12:59:00,32.4,23.4,29.76,West,260,7.0,10.0,69,0.02,,SCT250,0.02,VWS V14.01,2013-01-07 18:59:00,
2013-01-07 13:00:00,32.4,23.4,29.76,West,260,1.0,10.0,69,0.02,,SCT250,0.02,VWS V14.01,2013-01-07 19:00:00,
2013-01-07 13:01:00,32.4,23.4,29.76,WSW,253,2.0,2.0,69,0.02,,SCT250,0.02,VWS V14.01,2013-01-07 19:01:00,
2013-01-07 13:02:00,32.4,23.7,29.76,WSW,238,1.0,4.0,70,0.02,,SCT250,0.02,VWS V14.01,2013-01-07 19:02:00,
2013-01-07 13:03:00,32.4,23.7,29.76,SW,226,0.0,5.0,70,0.02,,SCT250,0.02,VWS V14.01,2013-01-07 19:03:00,
2013-01-07 13:04:00,32.4,23.4,29.76,SW,232,5.0,5.0,69,0.02,,SCT250,0.02,VWS V14.01,2013-01-07 19:04:00,
2013-01-07 13:05:00,32.4,23.7,29.76,SW,232,7.0,7.0,70,0.02,,SCT250,0.02,VWS V14.01,2013-01-07 19:05:00,
2013-01-07 13:06:00,32.4,23.4,29.76,West,267,0.0,8.0,69,0.02,,SCT250,0.02,VWS V14.01,2013-01-07 19:06:00,
2013-01-07 13:07:00,32.5,23.5,29.76,SSW,194,2.0,8.0,69,0.02,,SCT250,0.02,VWS V14.01,2013-01-07 19:07:00,
2013-01-07 13:08:00,32.5,23.8,29.76,SW,230,7.0,8.0,70,0.02,,SCT250,0.02,VWS V14.01,2013-01-07 19:08:00,
2013-01-07 13:09:00,32.5,23.5,29.76,SW,236,2.0,8.0,69,0.02,,SCT250,0.02,VWS V14.01,2013-01-07 19:09:00,
2013-01-07 13:10:00,32.5,23.5,29.76,WSW,240,1.0,8.0,69,0.02,,SCT250,0.02,VWS V14.01,2013-01-07 19:10:00,
2013-01-07 13:11:00,32.5,23.5,29.76,SW,233,1.0,11.0,69,0.02,,SCT250,0.02,VWS V14.01,2013-01-07 19:11:00,
2013-01-07 13:12:00,32.5,23.5,29.76,WSW,238,5.0,11.0,69,0.02,,SCT250,0.02,VWS V14.01,2013-01-07 19:12:00,
2013-01-07 13:13:00,32.5,23.5,29.76,WSW,238,1.0,11.0,69,0.02,,SCT250,0.02,VWS V14.01,2013-01-07 19:13:00,
2013-01-07 13:14:00,32.4,23.4,29.76,WSW,254,4.0,11.0,69,0.02,,SCT250,0.02,VWS V14.01,2013-01-07 19:14:00,
2013-01-07 13:15:00,32.4,23.4,29.75,WSW,245,4.0,11.0,69,0.02,,SCT250,0.02,VWS V14.01,2013-01-07 19:15:00,
2013-01-07 13:16:00,32.4,23.4,29.75,WSW,257,1.0,11.0,69,0.02,,SCT250,0.02,VWS V14.01,2013-01-07 19:16:00,
2013-01-07 13:17:00,32.4,23.4,29.75,WSW,254,7.0,11.0,69,0.02,,SCT250,0.02,VWS V14.01,2013-01-07 19:17:00,
2013-01-07 13:18:00,32.4,23.4,29.75,West,270,2.0,11.0,69,0.02,,SCT250,0.02,VWS V14.01,2013-01-07 19:18:00,
2013-01-07 13:19:00,32.4,23.4,29.75,SW,226,3.0,11.0,69,0.02,,SCT250,0.02,VWS V14.01,2013-01-07 19:19:00,
2013-01-07 13:20:00,32.4,23.4,29.75,WSW,240,6.0,11.0,69,0.02,,SCT250,0.02,VWS V14.01,2013-01-07 19:20:00,
2013-01-07 13:21:00,32.4,23.4,29.75,SW,218,5.0,11.0,69,0.02,,SCT250,0.02,VWS V14.01,2013-01-07 19:21:00,
2013-01-07 13:22:00,32.5,23.5,29.75,SW,222,2.0,11.0,69,0.02,,SCT250,0.02,VWS V14.01,2013-01-07 19:22:00,
2013-01-07 13:23:00,32.5,23.5,29.75,SW,233,0.0,11.0,69,0.02,,SCT250,0.02,VWS V14.01,2013-01-07 19:23:00,
2013-01-07 13:24:00,32.5,23.5,29.75,SW,235,2.0,11.0,69,0.02,,SCT250,0.02,VWS V14.01,2013-01-07 19:24:00,
2013-01-07 13:25:00,32.5,23.5,29.75,WSW,250,0.0,11.0,69,0.02,,SCT250,0.02,VWS V14.01,2013-01-07 19:25:00,
2013-01-07 13:26:00,32.5,23.5,29.75,WSW,252,0.0,11.0,69,0.02,,SCT250,0.02,VWS V14.01,2013-01-07 19:26:00,
2013-01-07 13:27:00,32.7,23.7,29.75,SW,235,8.0,11.0,69,0.02,,SCT250,0.02,VWS V14.01,2013-01-07 19:27:00,
2013-01-07 13:28:00,32.7,23.7,29.75,SW,228,0.0,11.0,69,0.02,,SCT250,0.02,VWS V14.01,2013-01-07 19:28:00,
2013-01-07 13:29:00,32.7,23.7,29.75,SW,235,6.0,11.0,69,0.02,,SCT250,0.02,VWS V14.01,2013-01-07 19:29:00,
2013-01-07 13:30:00,32.7,23.7,29.76,SSW,212,1.0,11.0,69,0.02,,SCT250,0.02,VWS V14.01,2013-01-07 19:30:00,
2013-01-07 13:31:00,32.7,23.7,29.76,SSW,212,0.0,1.0,69,0.02,,SCT250,0.02,VWS V14.01,2013-01-07 19:31:00,
2013-01-07 13:32:00,32.8,23.8,29.76,SW,233,10.0,10.0,69,0.02,,SCT250,0.02,VWS V14.01,2013-01-07 19:32:00,
2013-01-07 13:33:00,32.8,23.8,29.76,SW,226,4.0,10.0,69,0.02,,SCT250,0.02,VWS V14.01,2013-01-07 19:33:00,
2013-01-07 13:34:00,32.8,23.8,29.76,WSW,239,0.0,10.0,69,0.02,,SCT250,0.02,VWS V14.01,2013-01-07 19:34:00,
2013-01-07 13:35:00,32.8,23.8,29.76,WSW,238,4.0,10.0,69,0.02,,SCT250,0.02,VWS V14.01,2013-01-07 19:35:00,
2013-01-07 13:36:00,32.8,23.8,29.76,SW,233,2.0,10.0,69,0.02,,SCT250,0.02,VWS V14.01,2013-01-07 19:36:00,
2013-01-07 13:37:00,32.8,23.8,29.76,SW,236,4.0,10.0,69,0.02,,SCT250,0.02,VWS V14.01,2013-01-07 19:37:00,
2013-01-07 13:38:00,32.8,23.8,29.76,SW,218,8.0,10.0,69,0.02,,SCT250,0.02,VWS V14.01,2013-01-07 19:38:00,
2013-01-07 13:39:00,32.8,23.8,29.76,SW,235,2.0,10.0,69,0.02,,SCT250,0.02,VWS V14.01,2013-01-07 19:39:00,
2013-01-07 13:40:00,32.9,23.9,29.76,SW,235,1.0,10.0,69,0.02,,SCT250,0.02,VWS V14.01,2013-01-07 19:40:00,
2013-01-07 13:41:00,32.9,23.9,29.76,SW,222,1.0,10.0,69,0.02,,SCT250,0.02,VWS V14.01,2013-01-07 19:41:00,
2013-01-07 13:42:00,32.9,23.9,29.76,WSW,242,3.0,10.0,69,0.02,,SCT250,0.02,VWS V14.01,2013-01-07 19:42:00,
2013-01-07 13:43:00,32.9,23.9,29.76,WSW,239,6.0,10.0,69,0.02,,SCT250,0.02,VWS V14.01,2013-01-07 19:43:00,
2013-01-07 13:44:00,32.9,23.9,29.76,SE,133,3.0,10.0,69,0.02,,SCT250,0.02,VWS V14.01,2013-01-07 19:44:00,
2013-01-07 13:45:00,33.1,24.0,29.76,SW,229,0.0,10.0,69,0.02,,SCT250,0.02,VWS V14.01,2013-01-07 19:45:00,
2013-01-07 13:46:00,33.1,24.0,29.76,SSE,167,0.0,10.0,69,0.02,,SCT250,0.02,VWS V14.01,2013-01-07 19:46:00,
2013-01-07 13:47:00,33.1,24.0,29.76,SSE,167,1.0,10.0,69,0.02,,SCT250,0.02,VWS V14.01,2013-01-07 19:47:00,
2013-01-07 13:48:00,33.2,24.1,29.76,SW,215,1.0,10.0,69,0.02,,SCT250,0.02,VWS V14.01,2013-01-07 19:48:00,
2013-01-07 13:49:00,33.2,23.8,29.76,SW,214,5.0,10.0,68,0.02,,SCT250,0.02,VWS V14.01,2013-01-07 19:49:00,
2013-01-07 13:50:00,33.2,24.1,29.76,SW,216,0.0,10.0,69,0.02,,SCT250,0.02,VWS V14.01,2013-01-07 19:50:00,
2013-01-07 13:51:00,33.2,23.8,29.76,SW,216,5.0,10.0,68,0.02,,SCT250,0.02,VWS V14.01,2013-01-07 19:51:00,
2013-01-07 13:52:00,33.4,24.0,29.76,SW,216,0.0,10.0,68,0.02,,SCT250,0.02,VWS V14.01,2013-01-07 19:52:00,
2013-01-07 13:53:00,33.4,24.0,29.76,WSW,242,4.0,10.0,68,0.02,,SCT250,0.02,VWS V14.01,2013-01-07 19:53:00,
2013-01-07 13:54:00,33.4,24.0,29.76,WSW,243,0.0,10.0,68,0.02,,SCT250,0.02,VWS V14.01,2013-01-07 19:54:00,
2013-01-07 13:55:00,33.5,24.1,29.76,WSW,243,0.0,10.0,68,0.02,,SCT250,0.02,VWS V14.01,2013-01-07 19:55:00,
2013-01-07 13:56:00,33.5,24.1,29.76,SW,233,1.0,10.0,68,0.02,,SCT250,0.02,VWS V14.01,2013-01-07 19:56:00,
2013-01-07 13:57:00,33.5,24.1,29.76,SW,232,0.0,10.0,68,0.02,,SCT250,0.02,VWS V14.01,2013-01-07 19:57:00,
2013-01-07 13:58:00,33.5,24.1,29.76,SW,229,2.0,10.0,68,0.02,,SCT250,0.02,VWS V14.01,2013-01-07 19:58:00,
2013-01-07 13:59:00,33.5,24.1,29.76,SSE,158,1.0,10.0,68,0.02,,SCT250,0.02,VWS V14.01,2013-01-07 19:59:00,
2013-01-07 14:00:00,33.7,24.3,29.76,SSE,158,2.0,10.0,68,0.02,,SCT250,0.02,VWS V14.01,2013-01-07 20:00:00,
2013-01-07 14:01:00,33.7,24.3,29.76,WSW,256,9.0,9.0,68,0.00,,SCT250,0.02,VWS V14.01,2013-01-07 20:01:00,
2013-01-07 14:02:00,33.7,23.9,29.76,WSW,245,2.0,9.0,67,0.00,,SCT250,0.02,VWS V14.01,2013-01-07 20:02:00,
2013-01-07 14:03:00,33.7,23.9,29.76,SSW,211,5.0,9.0,67,0.00,,SCT250,0.02,VWS V14.01,2013-01-07 20:03:00,
2013-01-07 14:04:00,33.7,24.3,29.76,SW,219,1.0,9.0,68,0.00,,SCT250,0.02,VWS V14.01,2013-01-07 20:04:00,
2013-01-07 14:05:00,33.7,24.3,29.76,SW,219,6.0,9.0,68,0.00,,SCT250,0.02,VWS V14.01,2013-01-07 20:05:00,
2013-01-07 14:06:00,33.8,24.0,29.76,WSW,242,0.0,9.0,67,0.00,,SCT250,0.02,VWS V14.01,2013-01-07 20:06:00,
2013-01-07 14:07:00,33.8,24.0,29.76,SW,232,3.0,9.0,67,0.00,,SCT250,0.02,VWS V14.01,2013-01-07 20:07:00,
2013-01-07 14:08:00,33.8,24.0,29.76,SW,232,0.0,9.0,67,0.00,,SCT250,0.02,VWS V14.01,2013-01-07 20:08:00,
2013-01-07 14:09:00,33.8,24.0,29.76,SW,233,1.0,9.0,67,0.00,,SCT250,0.02,VWS V14.01,2013-01-07 20:09:00,
2013-01-07 14:10:00,33.8,24.0,29.76,SW,235,5.0,9.0,67,0.00,,SCT250,0.02,VWS V14.01,2013-01-07 20:10:00,
2013-01-07 14:11:00,33.8,24.0,29.76,WSW,246,1.0,9.0,67,0.00,,SCT250,0.02,VWS V14.01,2013-01-07 20:11:00,
2013-01-07 14:12:00,34.0,24.2,29.76,WSW,257,2.0,9.0,67,0.00,,SCT250,0.02,VWS V14.01,2013-01-07 20:12:00,
2013-01-07 14:13:00,34.0,24.2,29.76,WSW,249,0.0,9.0,67,0.00,,SCT250,0.02,VWS V14.01,2013-01-07 20:13:00,
2013-01-07 14:14:00,34.0,24.2,29.76,WSW,249,1.0,9.0,67,0.00,,SCT250,0.02,VWS V14.01,2013-01-07 20:14:00,
2013-01-07 14:15:00,34.0,24.2,29.76,WSW,247,2.0,9.0,67,0.00,,SCT250,0.02,VWS V14.01,2013-01-07 20:15:00,
2013-01-07 14:16:00,34.1,24.3,29.76,WSW,247,2.0,9.0,67,0.00,,SCT250,0.02,VWS V14.01,2013-01-07 20:16:00,
2013-01-07 14:17:00,34.1,24.3,29.76,WSW,247,1.0,9.0,67,0.00,,SCT250,0.02,VWS V14.01,2013-01-07 20:17:00,
2013-01-07 14:18:00,34.1,24.3,29.76,SW,228,4.0,9.0,67,0.00,,SCT250,0.02,VWS V14.01,2013-01-07 20:18:00,
2013-01-07 14:19:00,34.1,24.3,29.76,West,260,0.0,9.0,67,0.00,,SCT250,0.02,VWS V14.01,2013-01-07 20:19:00,
2013-01-07 14:20:00,34.1,24.3,29.76,WSW,242,8.0,10.0,67,0.00,,SCT250,0.02,VWS V14.01,2013-01-07 20:20:00,
2013-01-07 14:21:00,34.3,24.5,29.76,West,263,4.0,10.0,67,0.00,,SCT250,0.02,VWS V14.01,2013-01-07 20:21:00,
2013-01-07 14:22:00,34.3,24.1,29.76,West,270,0.0,10.0,66,0.00,,SCT250,0.02,VWS V14.01,2013-01-07 20:22:00,
2013-01-07 14:23:00,34.3,24.5,29.76,SW,223,0.0,10.0,67,0.00,,SCT250,0.02,VWS V14.01,2013-01-07 20:23:00,
2013-01-07 14:24:00,34.3,24.5,29.76,SW,228,2.0,10.0,67,0.00,,SCT250,0.02,VWS V14.01,2013-01-07 20:24:00,
2013-01-07 14:25:00,34.3,24.5,29.76,SW,229,2.0,10.0,67,0.00,,SCT250,0.02,VWS V14.01,2013-01-07 20:25:00,
2013-01-07 14:26:00,34.3,24.1,29.76,SW,229,1.0,10.0,66,0.00,,SCT250,0.02,VWS V14.01,2013-01-07 20:26:00,
2013-01-07 14:27:00,34.3,24.1,29.76,SW,229,2.0,10.0,66,0.00,,SCT250,0.02,VWS V14.01,2013-01-07 20:27:00,
2013-01-07 14:28:00,34.3,24.5,29.76,SW,235,0.0,10.0,67,0.00,,SCT250,0.02,VWS V14.01,2013-01-07 20:28:00,
2013-01-07 14:29:00,34.4,24.2,29.76,WSW,246,1.0,10.0,66,0.00,,SCT250,0.02,VWS V14.01,2013-01-07 20:29:00,
2013-01-07 14:30:00,34.4,24.2,29.77,WSW,243,1.0,10.0,66,0.00,,SCT250,0.02,VWS V14.01,2013-01-07 20:30:00,
2013-01-07 14:31:00,34.4,24.2,29.77,WSW,243,2.0,3.0,66,0.00,,SCT250,0.02,VWS V14.01,2013-01-07 20:31:00,
2013-01-07 14:32:00,34.4,24.2,29.77,WSW,242,0.0,6.0,66,0.00,,SCT250,0.02,VWS V14.01,2013-01-07 20:32:00,
2013-01-07 14:33:00,34.4,24.2,29.77,WSW,250,1.0,6.0,66,0.00,,SCT250,0.02,VWS V14.01,2013-01-07 20:33:00,
2013-01-07 14:34:00,34.4,24.2,29.77,WSW,238,6.0,7.0,66,0.00,,SCT250,0.02,VWS V14.01,2013-01-07 20:34:00,
2013-01-07 14:35:00,34.4,24.2,29.77,SW,232,6.0,7.0,66,0.00,,SCT250,0.02,VWS V14.01,2013-01-07 20:35:00,
2013-01-07 14:36:00,34.4,24.2,29.77,WSW,252,0.0,8.0,66,0.00,,SCT250,0.02,VWS V14.01,2013-01-07 20:36:00,
2013-01-07 14:37:00,34.4,24.2,29.77,WSW,253,1.0,8.0,66,0.00,,SCT250,0.02,VWS V14.01,2013-01-07 20:37:00,
2013-01-07 14:38:00,34.4,24.6,29.77,SE,134,0.0,8.0,67,0.00,,SCT250,0.02,VWS V14.01,2013-01-07 20:38:00,
2013-01-07 14:39:00,34.4,24.2,29.77,SW,222,1.0,8.0,66,0.00,,SCT250,0.02,VWS V14.01,2013-01-07 20:39:00,
2013-01-07 14:40:00,34.4,24.2,29.77,SW,228,5.0,8.0,66,0.00,,SCT250,0.02,VWS V14.01,2013-01-07 20:40:00,
2013-01-07 14:41:00,34.6,24.4,29.77,SW,235,2.0,8.0,66,0.00,,SCT250,0.02,VWS V14.01,2013-01-07 20:41:00,
2013-01-07 14:42:00,34.6,24.4,29.77,WSW,238,0.0,8.0,66,0.00,,SCT250,0.02,VWS V14.01,2013-01-07 20:42:00,
2013-01-07 14:43:00,34.6,24.4,29.77,SSE,156,3.0,8.0,66,0.00,,SCT250,0.02,VWS V14.01,2013-01-07 20:43:00,
2013-01-07 14:44:00,34.6,24.8,29.77,WSW,239,7.0,8.0,67,0.00,,SCT250,0.02,VWS V14.01,2013-01-07 20:44:00,
2013-01-07 14:45:00,34.6,24.4,29.77,WSW,239,2.0,8.0,66,0.00,,SCT250,0.02,VWS V14.01,2013-01-07 20:45:00,
2013-01-07 14:46:00,34.6,24.4,29.77,WSW,247,2.0,8.0,66,0.00,,SCT250,0.02,VWS V14.01,2013-01-07 20:46:00,
2013-01-07 14:47:00,34.6,24.4,29.77,SW,228,6.0,8.0,66,0.00,,SCT250,0.02,VWS V14.01,2013-01-07 20:47:00,
2013-01-07 14:48:00,34.6,24.4,29.77,SW,226,3.0,8.0,66,0.00,,SCT250,0.02,VWS V14.01,2013-01-07 20:48:00,
2013-01-07 14:49:00,34.7,24.5,29.77,SW,230,0.0,8.0,66,0.00,,SCT250,0.02,VWS V14.01,2013-01-07 20:49:00,
2013-01-07 14:50:00,34.7,24.5,29.77,SW,226,1.0,8.0,66,0.00,,SCT250,0.02,VWS V14.01,2013-01-07 20:50:00,
2013-01-07 14:51:00,34.7,24.5,29.77,SW,216,1.0,8.0,66,0.00,,SCT250,0.02,VWS V14.01,2013-01-07 20:51:00,
2013-01-07 14:52:00,34.7,24.5,29.77,SW,216,2.0,8.0,66,0.00,,SCT250,0.02,VWS V14.01,2013-01-07 20:52:00,
2013-01-07 14:53:00,34.7,24.5,29.77,SW,218,3.0,8.0,66,0.00,,SCT250,0.02,VWS V14.01,2013-01-07 20:53:00,
2013-01-07 14:54:00,34.7,24.5,29.77,SSW,205,4.0,8.0,66,0.00,,SCT250,0.02,VWS V14.01,2013-01-07 20:54:00,
2013-01-07 14:55:00,34.7,24.5,29.77,SSW,201,0.0,8.0,66,0.00,,SCT250,0.02,VWS V14.01,2013-01-07 20:55:00,
2013-01-07 14:56:00,34.9,24.7,29.77,SSW,208,1.0,8.0,66,0.00,,SCT250,0.02,VWS V14.01,2013-01-07 20:56:00,
2013-01-07 14:57:00,34.9,24.7,29.77,SSW,208,0.0,8.0,66,0.00,,SCT250,0.02,VWS V14.01,2013-01-07 20:57:00,
2013-01-07 14:58:00,34.9,24.7,29.77,SSW,202,0.0,8.0,66,0.00,,SCT250,0.02,VWS V14.01,2013-01-07 20:58:00,
2013-01-07 14:59:00,34.9,24.7,29.77,SSW,211,2.0,8.0,66,0.00,,SCT250,0.02,VWS V14.01,2013-01-07 20:59:00,
2013-01-07 15:00:00,34.9,24.7,29.76,SSE,164,5.0,8.0,66,0.00,,SCT250,0.02,VWS V14.01,2013-01-07 21:00:00,
2013-01-07 15:01:00,34.9,24.7,29.76,SSE,154,0.0,7.0,66,0.00,,SCT250,0.02,VWS V14.01,2013-01-07 21:01:00,
2013-01-07 15:02:00,35.0,24.8,29.76,SSE,154,1.0,7.0,66,0.00,,SCT250,0.02,VWS V14.01,2013-01-07 21:02:00,
2013-01-07 15:03:00,35.0,24.8,29.76,SSE,154,0.0,7.0,66,0.00,,SCT250,0.02,VWS V14.01,2013-01-07 21:03:00,
2013-01-07 15:04:00,35.2,25.0,29.76,SSE,164,0.0,7.0,66,0.00,,SCT250,0.02,VWS V14.01,2013-01-07 21:04:00,
2013-01-07 15:05:00,35.2,25.0,29.76,SSE,164,0.0,7.0,66,0.00,,SCT250,0.02,VWS V14.01,2013-01-07 21:05:00,
2013-01-07 15:06:00,35.3,25.1,29.76,SSE,167,0.0,7.0,66,0.00,,SCT250,0.02,VWS V14.01,2013-01-07 21:06:00,
2013-01-07 15:07:00,35.3,25.1,29.76,SW,229,2.0,7.0,66,0.00,,SCT250,0.02,VWS V14.01,2013-01-07 21:07:00,
2013-01-07 15:08:00,35.3,25.1,29.76,SW,229,0.0,7.0,66,0.00,,SCT250,0.02,VWS V14.01,2013-01-07 21:08:00,
2013-01-07 15:09:00,35.3,24.7,29.76,SW,229,0.0,7.0,65,0.00,,SCT250,0.02,VWS V14.01,2013-01-07 21:09:00,
2013-01-07 15:10:00,35.3,25.1,29.76,SW,226,1.0,7.0,66,0.00,,SCT250,0.02,VWS V14.01,2013-01-07 21:10:00,
2013-01-07 15:11:00,35.3,25.1,29.76,SW,226,5.0,7.0,66,0.00,,SCT250,0.02,VWS V14.01,2013-01-07 21:11:00,
2013-01-07 15:12:00,35.5,25.3,29.76,SW,226,0.0,7.0,66,0.00,,SCT250,0.02,VWS V14.01,2013-01-07 21:12:00,
2013-01-07 15:13:00,35.5,24.9,29.76,SSE,153,0.0,7.0,65,0.00,,SCT250,0.02,VWS V14.01,2013-01-07 21:13:00,
2013-01-07 15:14:00,35.5,25.3,29.76,SW,216,3.0,7.0,66,0.00,,SCT250,0.02,VWS V14.01,2013-01-07 21:14:00,
2013-01-07 15:15:00,35.5,24.9,29.77,South,181,5.0,7.0,65,0.00,,SCT250,0.02,VWS V14.01,2013-01-07 21:15:00,
2013-01-07 15:16:00,35.5,25.3,29.77,SSE,158,0.0,7.0,66,0.00,,SCT250,0.02,VWS V14.01,2013-01-07 21:16:00,
2013-01-07 15:17:00,35.5,25.3,29.77,SSE,158,1.0,7.0,66,0.00,,SCT250,0.02,VWS V14.01,2013-01-07 21:17:00,
2013-01-07 15:18:00,35.6,25.4,29.77,SSE,161,0.0,7.0,66,0.00,,SCT250,0.02,VWS V14.01,2013-01-07 21:18:00,
2013-01-07 15:19:00,35.6,25.4,29.77,SSW,197,1.0,7.0,66,0.00,,SCT250,0.02,VWS V14.01,2013-01-07 21:19:00,
2013-01-07 15:20:00,35.6,25.4,29.77,SSW,198,1.0,7.0,66,0.00,,SCT250,0.02,VWS V14.01,2013-01-07 21:20:00,
2013-01-07 15:21:00,35.8,25.2,29.77,SSW,197,0.0,7.0,65,0.00,,SCT250,0.02,VWS V14.01,2013-01-07 21:21:00,
2013-01-07 15:22:00,35.8,25.2,29.77,SSW,197,1.0,7.0,65,0.00,,SCT250,0.02,VWS V14.01,2013-01-07 21:22:00,
2013-01-07 15:23:00,35.9,25.3,29.77,SSW,197,1.0,7.0,65,0.00,,SCT250,0.02,VWS V14.01,2013-01-07 21:23:00,
2013-01-07 15:24:00,35.9,25.3,29.77,SSW,192,0.0,7.0,65,0.00,,SCT250,0.02,VWS V14.01,2013-01-07 21:24:00,
2013-01-07 15:25:00,35.9,25.3,29.77,SSW,197,0.0,7.0,65,0.00,,SCT250,0.02,VWS V14.01,2013-01-07 21:25:00,
2013-01-07 15:26:00,36.0,25.4,29.77,SSW,197,0.0,7.0,65,0.00,,SCT250,0.02,VWS V14.01,2013-01-07 21:26:00,
2013-01-07 15:27:00,36.2,25.2,29.77,SSW,197,1.0,7.0,64,0.00,,SCT250,0.02,VWS V14.01,2013-01-07 21:27:00,
2013-01-07 15:28:00,36.2,25.2,29.77,ESE,122,4.0,7.0,64,0.00,,SCT250,0.02,VWS V14.01,2013-01-07 21:28:00,
2013-01-07 15:29:00,36.2,25.2,29.77,SE,126,1.0,7.0,64,0.00,,SCT250,0.02,VWS V14.01,2013-01-07 21:29:00,
2013-01-07 15:30:00,36.2,25.2,29.77,SE,133,0.0,7.0,64,0.00,,SCT250,0.02,VWS V14.01,2013-01-07 21:30:00,
2013-01-07 15:31:00,36.2,25.2,29.77,SE,133,1.0,1.0,64,0.00,,SCT250,0.02,VWS V14.01,2013-01-07 21:31:00,
2013-01-07 15:32:00,36.0,25.0,29.77,SE,134,1.0,2.0,64,0.00,,SCT250,0.02,VWS V14.01,2013-01-07 21:32:00,
2013-01-07 15:33:00,36.0,25.0,29.77,SE,134,1.0,2.0,64,0.00,,SCT250,0.02,VWS V14.01,2013-01-07 21:33:00,
2013-01-07 15:34:00,36.0,25.0,29.77,SE,134,0.0,2.0,64,0.00,,SCT250,0.02,VWS V14.01,2013-01-07 21:34:00,
2013-01-07 15:35:00,36.0,25.4,29.77,SE,134,1.0,3.0,65,0.00,,SCT250,0.02,VWS V14.01,2013-01-07 21:35:00,
2013-01-07 15:36:00,36.0,25.0,29.77,SE,134,0.0,3.0,64,0.00,,SCT250,0.02,VWS V14.01,2013-01-07 21:36:00,
2013-01-07 15:37:00,36.0,25.0,29.77,SE,134,2.0,3.0,64,0.00,,SCT250,0.02,VWS V14.01,2013-01-07 21:37:00,
2013-01-07 15:38:00,36.0,25.0,29.77,SE,133,1.0,3.0,64,0.00,,SCT250,0.02,VWS V14.01,2013-01-07 21:38:00,
2013-01-07 15:39:00,36.0,25.0,29.77,SE,140,1.0,3.0,64,0.00,,SCT250,0.02,VWS V14.01,2013-01-07 21:39:00,
2013-01-07 15:40:00,36.0,25.0,29.77,SE,139,6.0,6.0,64,0.00,,SCT250,0.02,VWS V14.01,2013-01-07 21:40:00,
2013-01-07 15:41:00,35.9,24.9,29.77,SE,139,2.0,6.0,64,0.00,,SCT250,0.02,VWS V14.01,2013-01-07 21:41:00,
2013-01-07 15:42:00,35.9,24.9,29.77,SE,139,0.0,6.0,64,0.00,,SCT250,0.02,VWS V14.01,2013-01-07 21:42:00,
2013-01-07 15:43:00,35.9,24.9,29.77,SE,139,0.0,6.0,64,0.00,,SCT250,0.02,VWS V14.01,2013-01-07 21:43:00,
2013-01-07 15:44:00,35.9,24.9,29.77,SE,139,0.0,6.0,64,0.00,,SCT250,0.02,VWS V14.01,2013-01-07 21:44:00,
2013-01-07 15:45:00,35.9,24.9,29.77,SE,139,0.0,6.0,64,0.00,,SCT250,0.02,VWS V14.01,2013-01-07 21:45:00,
2013-01-07 15:46:00,35.9,25.3,29.77,SE,139,1.0,6.0,65,0.00,,SCT250,0.02,VWS V14.01,2013-01-07 21:46:00,
2013-01-07 15:47:00,35.9,24.9,29.77,SE,139,0.0,6.0,64,0.00,,SCT250,0.02,VWS V14.01,2013-01-07 21:47:00,
2013-01-07 15:48:00,35.9,25.3,29.77,SE,139,1.0,6.0,65,0.00,,SCT250,0.02,VWS V14.01,2013-01-07 21:48:00,
2013-01-07 15:49:00,35.8,25.2,29.77,SE,140,0.0,6.0,65,0.00,,SCT250,0.02,VWS V14.01,2013-01-07 21:49:00,
2013-01-07 15:50:00,35.8,24.8,29.77,SE,140,1.0,6.0,64,0.00,,SCT250,0.02,VWS V14.01,2013-01-07 21:50:00,
2013-01-07 15:51:00,35.8,25.6,29.77,SE,139,0.0,6.0,66,0.00,,SCT250,0.02,VWS V14.01,2013-01-07 21:51:00,
2013-01-07 15:52:00,35.6,25.0,29.77,SSE,168,2.0,6.0,65,0.00,,SCT250,0.02,VWS V14.01,2013-01-07 21:52:00,
2013-01-07 15:53:00,35.6,25.0,29.77,South,180,0.0,6.0,65,0.00,,SCT250,0.02,VWS V14.01,2013-01-07 21:53:00,
2013-01-07 15:54:00,35.6,25.0,29.77,South,180,0.0,6.0,65,0.00,,SCT250,0.02,VWS V14.01,2013-01-07 21:54:00,
2013-01-07 15:55:00,35.6,25.0,29.77,South,181,1.0,6.0,65,0.00,,SCT250,0.02,VWS V14.01,2013-01-07 21:55:00,
2013-01-07 15:56:00,35.5,24.9,29.77,South,181,0.0,6.0,65,0.00,,SCT250,0.02,VWS V14.01,2013-01-07 21:56:00,
2013-01-07 15:57:00,35.5,24.9,29.77,South,181,0.0,6.0,65,0.00,,SCT250,0.02,VWS V14.01,2013-01-07 21:57:00,
2013-01-07 15:58:00,35.3,24.7,29.77,South,182,0.0,6.0,65,0.00,,SCT250,0.02,VWS V14.01,2013-01-07 21:58:00,
2013-01-07 15:59:00,35.3,25.1,29.77,South,182,1.0,6.0,66,0.00,,SCT250,0.02,VWS V14.01,2013-01-07 21:59:00,
2013-01-07 16:00:00,35.2,25.0,29.78,South,182,0.0,6.0,66,0.00,,SCT250,0.02,VWS V14.01,2013-01-07 22:00:00,
2013-01-07 16:01:00,35.0,24.8,29.78,South,182,0.0,1.0,66,0.00,,SCT250,0.02,VWS V14.01,2013-01-07 22:01:00,
2013-01-07 16:02:00,35.0,24.8,29.78,South,182,0.0,1.0,66,0.00,,SCT250,0.02,VWS V14.01,2013-01-07 22:02:00,
2013-01-07 16:03:00,35.0,24.8,29.78,South,182,0.0,1.0,66,0.00,,SCT250,0.02,VWS V14.01,2013-01-07 22:03:00,
2013-01-07 16:04:00,34.9,24.7,29.78,South,182,1.0,1.0,66,0.00,,SCT250,0.02,VWS V14.01,2013-01-07 22:04:00,
2013-01-07 16:05:00,34.9,24.7,29.78,South,182,0.0,1.0,66,0.00,,SCT250,0.02,VWS V14.01,2013-01-07 22:05:00,
2013-01-07 16:06:00,34.9,24.7,29.78,South,182,1.0,1.0,66,0.00,,SCT250,0.02,VWS V14.01,2013-01-07 22:06:00,
2013-01-07 16:07:00,34.7,24.5,29.78,South,182,0.0,1.0,66,0.00,,SCT250,0.02,VWS V14.01,2013-01-07 22:07:00,
2013-01-07 16:08:00,34.7,24.5,29.78,South,182,0.0,2.0,66,0.00,,SCT250,0.02,VWS V14.01,2013-01-07 22:08:00,
2013-01-07 16:09:00,34.6,24.4,29.78,South,182,0.0,2.0,66,0.00,,SCT250,0.02,VWS V14.01,2013-01-07 22:09:00,
2013-01-07 16:10:00,34.4,24.6,29.78,South,182,0.0,2.0,67,0.00,,SCT250,0.02,VWS V14.01,2013-01-07 22:10:00,
2013-01-07 16:11:00,34.3,24.5,29.78,South,182,0.0,2.0,67,0.00,,SCT250,0.02,VWS V14.01,2013-01-07 22:11:00,
2013-01-07 16:12:00,34.1,24.3,29.78,South,184,1.0,3.0,67,0.00,,SCT250,0.02,VWS V14.01,2013-01-07 22:12:00,
2013-01-07 16:13:00,34.0,24.6,29.78,South,184,1.0,3.0,68,0.00,,SCT250,0.02,VWS V14.01,2013-01-07 22:13:00,
2013-01-07 16:14:00,34.0,24.6,29.78,South,184,0.0,3.0,68,0.00,,SCT250,0.02,VWS V14.01,2013-01-07 22:14:00,
2013-01-07 16:15:00,33.8,24.4,29.79,South,184,0.0,3.0,68,0.00,,SCT250,0.02,VWS V14.01,2013-01-07 22:15:00,
2013-01-07 16:16:00,33.7,24.6,29.79,South,185,0.0,3.0,69,0.00,,SCT250,0.02,VWS V14.01,2013-01-07 22:16:00,
2013-01-07 16:17:00,33.7,24.6,29.79,South,185,0.0,3.0,69,0.00,,SCT250,0.02,VWS V14.01,2013-01-07 22:17:00,
2013-01-07 16:18:00,33.5,24.1,29.79,South,185,0.0,3.0,68,0.00,,SCT250,0.02,VWS V14.01,2013-01-07 22:18:00,
2013-01-07 16:19:00,33.4,24.3,29.79,South,185,0.0,3.0,69,0.00,,SCT250,0.02,VWS V14.01,2013-01-07 22:19:00,
2013-01-07 16:20:00,33.2,24.1,29.79,South,185,0.0,4.0,69,0.00,,SCT250,0.02,VWS V14.01,2013-01-07 22:20:00,
2013-01-07 16:21:00,33.2,24.1,29.79,South,185,0.0,4.0,69,0.00,,SCT250,0.02,VWS V14.01,2013-01-07 22:21:00,
2013-01-07 16:22:00,33.1,24.0,29.79,South,185,0.0,4.0,69,0.00,,SCT250,0.02,VWS V14.01,2013-01-07 22:22:00,
2013-01-07 16:23:00,32.9,23.9,29.79,South,184,0.0,4.0,69,0.00,,SCT250,0.02,VWS V14.01,2013-01-07 22:23:00,
2013-01-07 16:24:00,32.9,24.2,29.79,South,181,0.0,4.0,70,0.00,,SCT250,0.02,VWS V14.01,2013-01-07 22:24:00,
2013-01-07 16:25:00,32.8,24.1,29.79,South,182,0.0,4.0,70,0.00,,SCT250,0.02,VWS V14.01,2013-01-07 22:25:00,
2013-01-07 16:26:00,32.8,24.1,29.79,South,181,0.0,4.0,70,0.00,,SCT250,0.02,VWS V14.01,2013-01-07 22:26:00,
2013-01-07 16:27:00,32.7,24.0,29.79,South,181,0.0,4.0,70,0.00,,SCT250,0.02,VWS V14.01,2013-01-07 22:27:00,
2013-01-07 16:28:00,32.7,24.0,29.79,South,182,0.0,4.0,70,0.00,,SCT250,0.02,VWS V14.01,2013-01-07 22:28:00,
2013-01-07 16:29:00,32.5,23.8,29.79,South,182,0.0,4.0,70,0.00,,SCT250,0.02,VWS V14.01,2013-01-07 22:29:00,
2013-01-07 16:30:00,32.5,23.8,29.79,South,181,0.0,4.0,70,0.00,,SCT250,0.02,VWS V14.01,2013-01-07 22:30:00,
2013-01-07 16:31:00,32.4,24.1,29.79,South,181,0.0,1.0,71,0.00,,SCT250,0.02,VWS V14.01,2013-01-07 22:31:00,
2013-01-07 16:32:00,32.4,24.1,29.79,South,181,1.0,1.0,71,0.00,,SCT250,0.02,VWS V14.01,2013-01-07 22:32:00,
2013-01-07 16:33:00,32.2,23.9,29.79,South,182,0.0,2.0,71,0.00,,SCT250,0.02,VWS V14.01,2013-01-07 22:33:00,
2013-01-07 16:34:00,32.2,23.9,29.79,South,181,0.0,2.0,71,0.00,,SCT250,0.02,VWS V14.01,2013-01-07 22:34:00,
2013-01-07 16:35:00,32.1,23.8,29.79,South,178,2.0,2.0,71,0.00,,SCT250,0.02,VWS V14.01,2013-01-07 22:35:00,
2013-01-07 16:36:00,32.1,23.8,29.79,South,178,0.0,2.0,71,0.00,,SCT250,0.02,VWS V14.01,2013-01-07 22:36:00,
2013-01-07 16:37:00,31.9,23.6,29.79,South,178,0.0,2.0,71,0.00,,SCT250,0.02,VWS V14.01,2013-01-07 22:37:00,
2013-01-07 16:38:00,31.9,23.6,29.79,South,178,0.0,3.0,71,0.00,,SCT250,0.02,VWS V14.01,2013-01-07 22:38:00,
2013-01-07 16:39:00,31.9,23.9,29.79,South,178,0.0,3.0,72,0.00,,SCT250,0.02,VWS V14.01,2013-01-07 22:39:00,
2013-01-07 16:40:00,31.8,23.8,29.79,South,178,0.0,3.0,72,0.00,,SCT250,0.02,VWS V14.01,2013-01-07 22:40:00,
2013-01-07 16:41:00,31.8,23.8,29.79,South,178,0.0,3.0,72,0.00,,SCT250,0.02,VWS V14.01,2013-01-07 22:41:00,
2013-01-07 16:42:00,31.8,23.8,29.79,South,180,0.0,4.0,72,0.00,,SCT250,0.02,VWS V14.01,2013-01-07 22:42:00,
2013-01-07 16:43:00,31.6,23.6,29.79,South,180,0.0,4.0,72,0.00,,SCT250,0.02,VWS V14.01,2013-01-07 22:43:00,
2013-01-07 16:44:00,31.6,23.6,29.79,South,180,0.0,4.0,72,0.00,,SCT250,0.02,VWS V14.01,2013-01-07 22:44:00,
2013-01-07 16:45:00,31.6,23.6,29.80,South,180,1.0,4.0,72,0.00,,SCT250,0.02,VWS V14.01,2013-01-07 22:45:00,
2013-01-07 16:46:00,31.6,23.6,29.80,South,180,0.0,4.0,72,0.00,,SCT250,0.02,VWS V14.01,2013-01-07 22:46:00,
2013-01-07 16:47:00,31.5,23.5,29.80,South,180,0.0,4.0,72,0.00,,SCT250,0.02,VWS V14.01,2013-01-07 22:47:00,
2013-01-07 16:48:00,31.5,23.5,29.80,South,180,0.0,4.0,72,0.00,,SCT250,0.02,VWS V14.01,2013-01-07 22:48:00,
2013-01-07 16:49:00,31.5,23.5,29.80,South,180,0.0,4.0,72,0.00,,SCT250,0.02,VWS V14.01,2013-01-07 22:49:00,
2013-01-07 16:50:00,31.3,23.7,29.80,South,180,0.0,4.0,73,0.00,,SCT250,0.02,VWS V14.01,2013-01-07 22:50:00,
2013-01-07 16:51:00,31.3,23.7,29.80,South,180,0.0,4.0,73,0.00,,SCT250,0.02,VWS V14.01,2013-01-07 22:51:00,
2013-01-07 16:52:00,31.3,23.7,29.80,South,178,0.0,4.0,73,0.00,,SCT250,0.02,VWS V14.01,2013-01-07 22:52:00,
2013-01-07 16:53:00,31.3,23.7,29.80,South,180,0.0,4.0,73,0.00,,SCT250,0.02,VWS V14.01,2013-01-07 22:53:00,
2013-01-07 16:54:00,31.2,23.6,29.80,South,180,0.0,4.0,73,0.00,,SCT250,0.02,VWS V14.01,2013-01-07 22:54:00,
2013-01-07 16:55:00,31.2,23.6,29.80,South,180,0.0,4.0,73,0.00,,SCT250,0.02,VWS V14.01,2013-01-07 22:55:00,
2013-01-07 16:56:00,31.2,23.6,29.80,South,180,0.0,4.0,73,0.00,,SCT250,0.02,VWS V14.01,2013-01-07 22:56:00,
2013-01-07 16:57:00,31.2,23.6,29.80,South,180,0.0,4.0,73,0.00,,SCT250,0.02,VWS V14.01,2013-01-07 22:57:00,
2013-01-07 16:58:00,31.0,23.4,29.80,South,180,0.0,4.0,73,0.00,,SCT250,0.02,VWS V14.01,2013-01-07 22:58:00,
2013-01-07 16:59:00,31.0,23.4,29.80,South,180,1.0,4.0,73,0.00,,SCT250,0.02,VWS V14.01,2013-01-07 22:59:00,
2013-01-07 17:00:00,31.0,23.7,29.81,South,180,0.0,4.0,74,0.00,,SCT250,0.02,VWS V14.01,2013-01-07 23:00:00,
2013-01-07 17:01:00,30.9,23.6,29.81,South,180,0.0,0.0,74,0.00,,SCT250,0.02,VWS V14.01,2013-01-07 23:01:00,
2013-01-07 17:02:00,30.9,23.6,29.81,South,184,0.0,5.0,74,0.00,,SCT250,0.02,VWS V14.01,2013-01-07 23:02:00,
2013-01-07 17:03:00,30.9,23.6,29.81,South,184,0.0,5.0,74,0.00,,SCT250,0.02,VWS V14.01,2013-01-07 23:03:00,
2013-01-07 17:04:00,30.7,23.4,29.81,South,184,0.0,5.0,74,0.00,,SCT250,0.02,VWS V14.01,2013-01-07 23:04:00,
2013-01-07 17:05:00,30.7,23.4,29.81,South,184,0.0,5.0,74,0.00,,SCT250,0.02,VWS V14.01,2013-01-07 23:05:00,
2013-01-07 17:06:00,30.7,23.4,29.81,South,184,0.0,5.0,74,0.00,,SCT250,0.02,VWS V14.01,2013-01-07 23:06:00,
2013-01-07 17:07:00,30.6,23.3,29.81,South,184,0.0,5.0,74,0.00,,SCT250,0.02,VWS V14.01,2013-01-07 23:07:00,
2013-01-07 17:08:00,30.6,23.3,29.81,South,184,0.0,5.0,74,0.00,,SCT250,0.02,VWS V14.01,2013-01-07 23:08:00,
2013-01-07 17:09:00,30.6,23.3,29.81,South,184,0.0,5.0,74,0.00,,SCT250,0.02,VWS V14.01,2013-01-07 23:09:00,
2013-01-07 17:10:00,30.4,23.1,29.81,South,184,1.0,5.0,74,0.00,,SCT250,0.02,VWS V14.01,2013-01-07 23:10:00,
2013-01-07 17:11:00,30.4,23.4,29.81,South,184,0.0,5.0,75,0.00,,SCT250,0.02,VWS V14.01,2013-01-07 23:11:00,
2013-01-07 17:12:00,30.4,23.4,29.81,South,184,0.0,5.0,75,0.00,,SCT250,0.02,VWS V14.01,2013-01-07 23:12:00,
2013-01-07 17:13:00,30.3,23.3,29.81,South,184,0.0,5.0,75,0.00,,SCT250,0.02,VWS V14.01,2013-01-07 23:13:00,
2013-01-07 17:14:00,30.3,23.3,29.81,South,184,0.0,5.0,75,0.00,,SCT250,0.02,VWS V14.01,2013-01-07 23:14:00,
2013-01-07 17:15:00,30.3,23.3,29.81,South,184,0.0,5.0,75,0.00,,SCT250,0.02,VWS V14.01,2013-01-07 23:15:00,
2013-01-07 17:16:00,30.1,23.1,29.81,South,184,1.0,5.0,75,0.00,,SCT250,0.02,VWS V14.01,2013-01-07 23:16:00,
2013-01-07 17:17:00,30.1,23.5,29.81,South,181,1.0,5.0,76,0.00,,SCT250,0.02,VWS V14.01,2013-01-07 23:17:00,
2013-01-07 17:18:00,30.1,23.5,29.81,South,182,0.0,5.0,76,0.00,,SCT250,0.02,VWS V14.01,2013-01-07 23:18:00,
2013-01-07 17:19:00,30.1,23.5,29.81,South,182,0.0,5.0,76,0.00,,SCT250,0.02,VWS V14.01,2013-01-07 23:19:00,
2013-01-07 17:20:00,30.0,23.4,29.81,South,182,0.0,5.0,76,0.00,,SCT250,0.02,VWS V14.01,2013-01-07 23:20:00,
2013-01-07 17:21:00,30.0,23.4,29.81,South,182,0.0,5.0,76,0.00,,SCT250,0.02,VWS V14.01,2013-01-07 23:21:00,
2013-01-07 17:22:00,30.0,23.4,29.81,South,182,0.0,5.0,76,0.00,,SCT250,0.02,VWS V14.01,2013-01-07 23:22:00,
2013-01-07 17:23:00,30.0,23.4,29.81,South,175,2.0,5.0,76,0.00,,SCT250,0.02,VWS V14.01,2013-01-07 23:23:00,
2013-01-07 17:24:00,29.8,23.2,29.81,South,175,0.0,5.0,76,0.00,,SCT250,0.02,VWS V14.01,2013-01-07 23:24:00,
2013-01-07 17:25:00,29.8,23.2,29.81,South,175,0.0,5.0,76,0.00,,SCT250,0.02,VWS V14.01,2013-01-07 23:25:00,
2013-01-07 17:26:00,29.8,23.2,29.81,South,175,0.0,5.0,76,0.00,,SCT250,0.02,VWS V14.01,2013-01-07 23:26:00,
2013-01-07 17:27:00,29.8,23.5,29.81,SSE,168,1.0,5.0,77,0.00,,SCT250,0.02,VWS V14.01,2013-01-07 23:27:00,
2013-01-07 17:28:00,29.7,23.4,29.81,SSE,168,0.0,5.0,77,0.00,,SCT250,0.02,VWS V14.01,2013-01-07 23:28:00,
2013-01-07 17:29:00,29.7,23.4,29.81,SSE,167,2.0,5.0,77,0.00,,SCT250,0.02,VWS V14.01,2013-01-07 23:29:00,
2013-01-07 17:30:00,29.7,23.4,29.81,SSE,167,0.0,5.0,77,0.00,,SCT250,0.02,VWS V14.01,2013-01-07 23:30:00,
2013-01-07 17:31:00,29.5,23.2,29.81,SSE,167,4.0,5.0,77,0.00,,SCT250,0.02,VWS V14.01,2013-01-07 23:31:00,
2013-01-07 17:32:00,29.5,23.2,29.81,SSE,167,0.0,5.0,77,0.00,,SCT250,0.02,VWS V14.01,2013-01-07 23:32:00,
2013-01-07 17:33:00,29.5,23.2,29.81,SSE,166,0.0,5.0,77,0.00,,SCT250,0.02,VWS V14.01,2013-01-07 23:33:00,
2013-01-07 17:34:00,29.4,23.1,29.81,SSE,166,0.0,5.0,77,0.00,,SCT250,0.02,VWS V14.01,2013-01-07 23:34:00,
2013-01-07 17:35:00,29.4,23.1,29.81,SSE,166,0.0,5.0,77,0.00,,SCT250,0.02,VWS V14.01,2013-01-07 23:35:00,
2013-01-07 17:36:00,29.4,23.4,29.81,SSE,166,0.0,5.0,78,0.00,,SCT250,0.02,VWS V14.01,2013-01-07 23:36:00,
2013-01-07 17:37:00,29.4,23.4,29.81,SSE,166,0.0,5.0,78,0.00,,SCT250,0.02,VWS V14.01,2013-01-07 23:37:00,
2013-01-07 17:38:00,29.3,23.3,29.81,SSE,166,0.0,5.0,78,0.00,,SCT250,0.02,VWS V14.01,2013-01-07 23:38:00,
2013-01-07 17:39:00,29.3,23.3,29.81,SSE,166,0.0,5.0,78,0.00,,SCT250,0.02,VWS V14.01,2013-01-07 23:39:00,
2013-01-07 17:40:00,29.3,23.3,29.81,SSE,166,0.0,5.0,78,0.00,,SCT250,0.02,VWS V14.01,2013-01-07 23:40:00,
2013-01-07 17:41:00,29.1,23.1,29.81,SSE,166,0.0,5.0,78,0.00,,SCT250,0.02,VWS V14.01,2013-01-07 23:41:00,
2013-01-07 17:42:00,29.1,23.1,29.81,SSE,166,0.0,5.0,78,0.00,,SCT250,0.02,VWS V14.01,2013-01-07 23:42:00,
2013-01-07 17:43:00,29.1,23.1,29.81,SSE,166,0.0,5.0,78,0.00,,SCT250,0.02,VWS V14.01,2013-01-07 23:43:00,
2013-01-07 17:44:00,29.0,23.0,29.81,SSE,166,0.0,5.0,78,0.00,,SCT250,0.02,VWS V14.01,2013-01-07 23:44:00,
2013-01-07 17:45:00,29.0,23.0,29.81,SSE,166,0.0,5.0,78,0.00,,SCT250,0.02,VWS V14.01,2013-01-07 23:45:00,
2013-01-07 17:46:00,29.0,23.3,29.81,SSE,166,0.0,5.0,79,0.00,,SCT250,0.02,VWS V14.01,2013-01-07 23:46:00,
2013-01-07 17:47:00,28.8,23.1,29.81,SSE,166,0.0,5.0,79,0.00,,SCT250,0.02,VWS V14.01,2013-01-07 23:47:00,
2013-01-07 17:48:00,28.8,23.1,29.81,SSE,166,0.0,5.0,79,0.00,,SCT250,0.02,VWS V14.01,2013-01-07 23:48:00,
2013-01-07 17:49:00,28.8,23.1,29.81,SSE,166,0.0,5.0,79,0.00,,SCT250,0.02,VWS V14.01,2013-01-07 23:49:00,
2013-01-07 17:50:00,28.8,23.1,29.81,SSE,166,2.0,5.0,79,0.00,,SCT250,0.02,VWS V14.01,2013-01-07 23:50:00,
2013-01-07 17:51:00,28.7,23.0,29.81,SSE,166,1.0,5.0,79,0.00,,SCT250,0.02,VWS V14.01,2013-01-07 23:51:00,
2013-01-07 17:52:00,28.7,23.0,29.81,SSE,166,0.0,5.0,79,0.00,,SCT250,0.02,VWS V14.01,2013-01-07 23:52:00,
2013-01-07 17:53:00,28.7,23.0,29.81,SSE,167,0.0,5.0,79,0.00,,SCT250,0.02,VWS V14.01,2013-01-07 23:53:00,
2013-01-07 17:54:00,28.7,23.3,29.81,SSE,166,1.0,5.0,80,0.00,,SCT250,0.02,VWS V14.01,2013-01-07 23:54:00,
2013-01-07 17:55:00,28.7,23.3,29.81,SSE,163,1.0,5.0,80,0.00,,SCT250,0.02,VWS V14.01,2013-01-07 23:55:00,
2013-01-07 17:56:00,28.7,23.3,29.81,SSE,163,3.0,5.0,80,0.00,,SCT250,0.02,VWS V14.01,2013-01-07 23:56:00,
2013-01-07 17:57:00,28.7,23.3,29.81,SSE,163,2.0,5.0,80,0.00,,SCT250,0.02,VWS V14.01,2013-01-07 23:57:00,
2013-01-07 17:58:00,28.5,23.1,29.81,SSE,163,2.0,5.0,80,0.00,,SCT250,0.02,VWS V14.01,2013-01-07 23:58:00,
2013-01-07 17:59:00,28.5,23.1,29.81,SSE,163,1.0,5.0,80,0.00,,SCT250,0.02,VWS V14.01,2013-01-07 23:59:00,
2013-01-07 18:00:00,28.5,23.1,29.81,SSE,163,0.0,5.0,80,0.00,,SCT250,0.02,VWS V14.01,2013-01-08 00:00:00,
2013-01-07 18:01:00,28.5,23.1,29.81,SSE,163,0.0,0.0,80,0.00,,SCT250,0.02,VWS V14.01,2013-01-08 00:01:00,
2013-01-07 18:02:00,28.5,23.1,29.81,SSE,163,0.0,0.0,80,0.00,,SCT250,0.02,VWS V14.01,2013-01-08 00:02:00,
2013-01-07 18:03:00,28.5,23.1,29.81,SSE,163,0.0,0.0,80,0.00,,SCT250,0.02,VWS V14.01,2013-01-08 00:03:00,
2013-01-07 18:04:00,28.5,23.1,29.81,SSE,163,0.0,0.0,80,0.00,,SCT250,0.02,VWS V14.01,2013-01-08 00:04:00,
2013-01-07 18:05:00,28.4,23.0,29.81,SSE,163,0.0,0.0,80,0.00,,SCT250,0.02,VWS V14.01,2013-01-08 00:05:00,
2013-01-07 18:06:00,28.4,23.0,29.81,SSE,163,0.0,0.0,80,0.00,,SCT250,0.02,VWS V14.01,2013-01-08 00:06:00,
2013-01-07 18:07:00,28.4,23.0,29.81,SSE,163,0.0,0.0,80,0.00,,SCT250,0.02,VWS V14.01,2013-01-08 00:07:00,
2013-01-07 18:08:00,28.4,23.0,29.81,SSE,163,0.0,0.0,80,0.00,,SCT250,0.02,VWS V14.01,2013-01-08 00:08:00,
2013-01-07 18:09:00,28.2,22.8,29.81,SSE,163,0.0,0.0,80,0.00,,SCT250,0.02,VWS V14.01,2013-01-08 00:09:00,
2013-01-07 18:10:00,28.2,22.8,29.81,SSE,163,0.0,1.0,80,0.00,,SCT250,0.02,VWS V14.01,2013-01-08 00:10:00,
2013-01-07 18:11:00,28.2,23.1,29.81,SSE,163,0.0,1.0,81,0.00,,SCT250,0.02,VWS V14.01,2013-01-08 00:11:00,
2013-01-07 18:12:00,28.2,23.1,29.81,SSE,163,0.0,1.0,81,0.00,,SCT250,0.02,VWS V14.01,2013-01-08 00:12:00,
2013-01-07 18:13:00,28.2,23.1,29.81,SSE,163,1.0,1.0,81,0.00,,SCT250,0.02,VWS V14.01,2013-01-08 00:13:00,
2013-01-07 18:14:00,28.1,23.0,29.81,SSE,163,0.0,1.0,81,0.00,,SCT250,0.02,VWS V14.01,2013-01-08 00:14:00,
2013-01-07 18:15:00,28.1,23.0,29.82,SSE,163,0.0,1.0,81,0.00,,SCT250,0.02,VWS V14.01,2013-01-08 00:15:00,
2013-01-07 18:16:00,27.9,22.8,29.82,SSE,163,0.0,1.0,81,0.00,,SCT250,0.02,VWS V14.01,2013-01-08 00:16:00,
2013-01-07 18:17:00,27.9,22.8,29.82,SSE,163,0.0,1.0,81,0.00,,SCT250,0.02,VWS V14.01,2013-01-08 00:17:00,
2013-01-07 18:18:00,27.8,22.7,29.82,SSE,163,0.0,2.0,81,0.00,,SCT250,0.02,VWS V14.01,2013-01-08 00:18:00,
2013-01-07 18:19:00,27.6,22.5,29.82,SSE,163,0.0,2.0,81,0.00,,SCT250,0.02,VWS V14.01,2013-01-08 00:19:00,
2013-01-07 18:20:00,27.6,22.5,29.82,SSE,163,0.0,2.0,81,0.00,,SCT250,0.02,VWS V14.01,2013-01-08 00:20:00,
2013-01-07 18:21:00,27.5,22.5,29.82,SSE,163,0.0,2.0,81,0.00,,SCT250,0.02,VWS V14.01,2013-01-08 00:21:00,
2013-01-07 18:22:00,27.3,22.2,29.82,SSE,163,0.0,2.0,81,0.00,,SCT250,0.02,VWS V14.01,2013-01-08 00:22:00,
2013-01-07 18:23:00,27.2,22.1,29.82,SSE,163,0.0,2.0,81,0.00,,SCT250,0.02,VWS V14.01,2013-01-08 00:23:00,
2013-01-07 18:24:00,27.2,22.4,29.82,SSE,163,0.0,2.0,82,0.00,,SCT250,0.02,VWS V14.01,2013-01-08 00:24:00,
2013-01-07 18:25:00,27.0,22.2,29.82,SSE,163,0.0,2.0,82,0.00,,SCT250,0.02,VWS V14.01,2013-01-08 00:25:00,
2013-01-07 18:26:00,26.9,22.1,29.82,SSE,163,0.0,2.0,82,0.00,,SCT250,0.02,VWS V14.01,2013-01-08 00:26:00,
2013-01-07 18:27:00,26.9,22.1,29.82,SSE,163,0.0,2.0,82,0.00,,SCT250,0.02,VWS V14.01,2013-01-08 00:27:00,
2013-01-07 18:28:00,26.7,22.2,29.82,SSE,163,0.0,2.0,83,0.00,,SCT250,0.02,VWS V14.01,2013-01-08 00:28:00,
2013-01-07 18:29:00,26.6,22.1,29.82,SSE,163,0.0,2.0,83,0.00,,SCT250,0.02,VWS V14.01,2013-01-08 00:29:00,
2013-01-07 18:30:00,26.6,22.1,29.82,SSE,163,0.0,2.0,83,0.00,,SCT250,0.02,VWS V14.01,2013-01-08 00:30:00,
2013-01-07 18:31:00,26.4,22.0,29.82,SSE,163,0.0,1.0,83,0.00,,SCT250,0.02,VWS V14.01,2013-01-08 00:31:00,
2013-01-07 18:32:00,26.3,21.9,29.82,SSE,163,3.0,3.0,83,0.00,,SCT250,0.02,VWS V14.01,2013-01-08 00:32:00,
2013-01-07 18:33:00,26.1,21.6,29.82,SSE,163,0.0,3.0,83,0.00,,SCT250,0.02,VWS V14.01,2013-01-08 00:33:00,
2013-01-07 18:34:00,26.0,21.6,29.82,SSE,163,1.0,3.0,83,0.00,,SCT250,0.02,VWS V14.01,2013-01-08 00:34:00,
2013-01-07 18:35:00,25.8,21.4,29.82,SSE,163,0.0,3.0,83,0.00,,SCT250,0.02,VWS V14.01,2013-01-08 00:35:00,
2013-01-07 18:36:00,25.7,21.3,29.82,SSE,163,0.0,3.0,83,0.00,,SCT250,0.02,VWS V14.01,2013-01-08 00:36:00,
2013-01-07 18:37:00,25.6,21.2,29.82,SSE,163,0.0,3.0,83,0.00,,SCT250,0.02,VWS V14.01,2013-01-08 00:37:00,
2013-01-07 18:38:00,25.6,21.2,29.82,SSE,163,0.0,3.0,83,0.00,,SCT250,0.02,VWS V14.01,2013-01-08 00:38:00,
2013-01-07 18:39:00,25.4,21.0,29.82,SSE,163,0.0,3.0,83,0.00,,SCT250,0.02,VWS V14.01,2013-01-08 00:39:00,
2013-01-07 18:40:00,25.4,21.2,29.82,SSE,163,0.0,3.0,84,0.00,,SCT250,0.02,VWS V14.01,2013-01-08 00:40:00,
2013-01-07 18:41:00,25.4,21.2,29.82,SSE,163,0.0,3.0,84,0.00,,SCT250,0.02,VWS V14.01,2013-01-08 00:41:00,
2013-01-07 18:42:00,25.4,21.2,29.82,SSE,163,0.0,3.0,84,0.00,,SCT250,0.02,VWS V14.01,2013-01-08 00:42:00,
2013-01-07 18:43:00,25.4,21.5,29.82,SSE,163,0.0,3.0,85,0.00,,SCT250,0.02,VWS V14.01,2013-01-08 00:43:00,
2013-01-07 18:44:00,25.4,21.5,29.82,SSE,163,1.0,3.0,85,0.00,,SCT250,0.02,VWS V14.01,2013-01-08 00:44:00,
2013-01-07 18:45:00,25.4,21.5,29.82,SSE,163,0.0,3.0,85,0.00,,SCT180,0.02,VWS V14.01,2013-01-08 00:45:00,
2013-01-07 18:46:00,25.4,21.8,29.82,SSE,163,0.0,3.0,86,0.00,,SCT180,0.02,VWS V14.01,2013-01-08 00:46:00,
2013-01-07 18:47:00,25.6,22.0,29.82,SSE,163,0.0,3.0,86,0.00,,SCT180,0.02,VWS V14.01,2013-01-08 00:47:00,
2013-01-07 18:48:00,25.6,22.0,29.82,SSE,163,0.0,3.0,86,0.00,,SCT180,0.02,VWS V14.01,2013-01-08 00:48:00,
2013-01-07 18:49:00,25.6,22.0,29.82,SSE,163,0.0,3.0,86,0.00,,SCT180,0.02,VWS V14.01,2013-01-08 00:49:00,
2013-01-07 18:50:00,25.6,22.0,29.82,SSE,163,0.0,3.0,86,0.00,,SCT180,0.02,VWS V14.01,2013-01-08 00:50:00,
2013-01-07 18:51:00,25.6,22.0,29.82,SSE,163,0.0,3.0,86,0.00,,SCT180,0.02,VWS V14.01,2013-01-08 00:51:00,
2013-01-07 18:52:00,25.6,21.7,29.82,SSE,163,0.0,3.0,85,0.00,,SCT180,0.02,VWS V14.01,2013-01-08 00:52:00,
2013-01-07 18:53:00,25.4,21.5,29.82,SSE,163,0.0,3.0,85,0.00,,SCT180,0.02,VWS V14.01,2013-01-08 00:53:00,
2013-01-07 18:54:00,25.4,21.5,29.82,SSE,163,0.0,3.0,85,0.00,,SCT180,0.02,VWS V14.01,2013-01-08 00:54:00,
2013-01-07 18:55:00,25.4,21.5,29.82,SSE,163,0.0,3.0,85,0.00,,SCT180,0.02,VWS V14.01,2013-01-08 00:55:00,
2013-01-07 18:56:00,25.3,21.4,29.82,SSE,163,0.0,3.0,85,0.00,,SCT180,0.02,VWS V14.01,2013-01-08 00:56:00,
2013-01-07 18:57:00,25.3,21.4,29.82,SSE,163,0.0,3.0,85,0.00,,SCT180,0.02,VWS V14.01,2013-01-08 00:57:00,
2013-01-07 18:58:00,25.3,21.7,29.82,SSE,163,2.0,3.0,86,0.00,,SCT180,0.02,VWS V14.01,2013-01-08 00:58:00,
2013-01-07 18:59:00,25.3,21.7,29.82,SSE,163,0.0,3.0,86,0.00,,SCT180,0.02,VWS V14.01,2013-01-08 00:59:00,
2013-01-07 19:00:00,25.1,21.5,29.82,SSE,163,0.0,3.0,86,0.00,,SCT180,0.02,VWS V14.01,2013-01-08 01:00:00,
2013-01-07 19:01:00,25.1,21.5,29.82,SSE,163,0.0,1.0,86,0.00,,SCT180,0.02,VWS V14.01,2013-01-08 01:01:00,
2013-01-07 19:02:00,25.1,21.5,29.82,SSE,163,0.0,1.0,86,0.00,,SCT180,0.02,VWS V14.01,2013-01-08 01:02:00,
2013-01-07 19:03:00,25.1,21.5,29.82,SSE,163,2.0,4.0,86,0.00,,SCT180,0.02,VWS V14.01,2013-01-08 01:03:00,
2013-01-07 19:04:00,25.3,22.0,29.82,SSE,163,0.0,4.0,87,0.00,,SCT180,0.02,VWS V14.01,2013-01-08 01:04:00,
2013-01-07 19:05:00,25.3,22.0,29.82,SSE,163,2.0,4.0,87,0.00,,SCT180,0.02,VWS V14.01,2013-01-08 01:05:00,
2013-01-07 19:06:00,25.3,22.0,29.82,SSE,163,1.0,4.0,87,0.00,,SCT180,0.02,VWS V14.01,2013-01-08 01:06:00,
2013-01-07 19:07:00,25.3,22.0,29.82,SSE,163,0.0,4.0,87,0.00,,SCT180,0.02,VWS V14.01,2013-01-08 01:07:00,
2013-01-07 19:08:00,25.3,22.0,29.82,SSE,163,0.0,4.0,87,0.00,,SCT180,0.02,VWS V14.01,2013-01-08 01:08:00,
2013-01-07 19:09:00,25.3,22.0,29.82,SSE,163,3.0,4.0,87,0.00,,SCT180,0.02,VWS V14.01,2013-01-08 01:09:00,
2013-01-07 19:10:00,25.3,22.0,29.82,SSE,163,1.0,5.0,87,0.00,,SCT180,0.02,VWS V14.01,2013-01-08 01:10:00,
2013-01-07 19:11:00,25.4,22.1,29.82,SSE,163,0.0,5.0,87,0.00,,SCT180,0.02,VWS V14.01,2013-01-08 01:11:00,
2013-01-07 19:12:00,25.4,22.1,29.82,SSE,163,1.0,5.0,87,0.00,,SCT180,0.02,VWS V14.01,2013-01-08 01:12:00,
2013-01-07 19:13:00,25.4,22.1,29.82,SSE,163,1.0,5.0,87,0.00,,SCT180,0.02,VWS V14.01,2013-01-08 01:13:00,
2013-01-07 19:14:00,25.4,22.1,29.82,SSE,163,0.0,5.0,87,0.00,,SCT180,0.02,VWS V14.01,2013-01-08 01:14:00,
2013-01-07 19:15:00,25.6,22.3,29.82,SSE,163,1.0,5.0,87,0.00,,SCT180,0.02,VWS V14.01,2013-01-08 01:15:00,
2013-01-07 19:16:00,25.6,22.3,29.82,SSE,163,0.0,5.0,87,0.00,,SCT180,0.02,VWS V14.01,2013-01-08 01:16:00,
2013-01-07 19:17:00,25.6,22.3,29.82,SSE,163,0.0,5.0,87,0.00,,SCT180,0.02,VWS V14.01,2013-01-08 01:17:00,
2013-01-07 19:18:00,25.6,22.3,29.82,SSE,163,0.0,5.0,87,0.00,,SCT180,0.02,VWS V14.01,2013-01-08 01:18:00,
2013-01-07 19:19:00,25.6,22.3,29.82,SSE,163,0.0,5.0,87,0.00,,SCT180,0.02,VWS V14.01,2013-01-08 01:19:00,
2013-01-07 19:20:00,25.7,22.4,29.82,SSE,163,0.0,5.0,87,0.00,,SCT180,0.02,VWS V14.01,2013-01-08 01:20:00,
2013-01-07 19:21:00,25.7,22.4,29.82,SSE,163,0.0,5.0,87,0.00,,SCT180,0.02,VWS V14.01,2013-01-08 01:21:00,
2013-01-07 19:22:00,25.7,22.4,29.82,SSE,163,0.0,5.0,87,0.00,,SCT180,0.02,VWS V14.01,2013-01-08 01:22:00,
2013-01-07 19:23:00,25.7,22.4,29.82,SSE,163,0.0,5.0,87,0.00,,SCT180,0.02,VWS V14.01,2013-01-08 01:23:00,
2013-01-07 19:24:00,25.7,22.4,29.82,SSE,163,0.0,5.0,87,0.00,,SCT180,0.02,VWS V14.01,2013-01-08 01:24:00,
2013-01-07 19:25:00,25.7,22.4,29.82,SSE,163,0.0,5.0,87,0.00,,SCT180,0.02,VWS V14.01,2013-01-08 01:25:00,
2013-01-07 19:26:00,25.7,22.4,29.82,SSE,163,0.0,5.0,87,0.00,,SCT180,0.02,VWS V14.01,2013-01-08 01:26:00,
2013-01-07 19:27:00,25.7,22.4,29.82,SSE,163,0.0,5.0,87,0.00,,SCT180,0.02,VWS V14.01,2013-01-08 01:27:00,
2013-01-07 19:28:00,25.7,22.4,29.82,SSE,163,0.0,5.0,87,0.00,,SCT180,0.02,VWS V14.01,2013-01-08 01:28:00,
2013-01-07 19:29:00,25.8,22.5,29.82,SSE,163,0.0,5.0,87,0.00,,SCT180,0.02,VWS V14.01,2013-01-08 01:29:00,
2013-01-07 19:30:00,25.8,22.5,29.82,SSE,163,0.0,5.0,87,0.00,,FEW180,0.02,VWS V14.01,2013-01-08 01:30:00,
2013-01-07 19:31:00,25.8,22.5,29.82,SSE,163,0.0,0.0,87,0.00,,FEW180,0.02,VWS V14.01,2013-01-08 01:31:00,
2013-01-07 19:32:00,25.8,22.5,29.82,SSE,163,0.0,1.0,87,0.00,,FEW180,0.02,VWS V14.01,2013-01-08 01:32:00,
2013-01-07 19:33:00,25.8,22.5,29.82,SSE,163,0.0,3.0,87,0.00,,FEW180,0.02,VWS V14.01,2013-01-08 01:33:00,
2013-01-07 19:34:00,25.8,22.5,29.82,SSE,163,0.0,3.0,87,0.00,,FEW180,0.02,VWS V14.01,2013-01-08 01:34:00,
2013-01-07 19:35:00,25.8,22.5,29.82,SSE,163,0.0,3.0,87,0.00,,FEW180,0.02,VWS V14.01,2013-01-08 01:35:00,
2013-01-07 19:36:00,25.7,22.4,29.82,SSE,163,2.0,3.0,87,0.00,,FEW180,0.02,VWS V14.01,2013-01-08 01:36:00,
2013-01-07 19:37:00,25.7,22.4,29.82,SSE,161,0.0,3.0,87,0.00,,FEW180,0.02,VWS V14.01,2013-01-08 01:37:00,
2013-01-07 19:38:00,25.7,22.4,29.82,SSE,161,0.0,3.0,87,0.00,,FEW180,0.02,VWS V14.01,2013-01-08 01:38:00,
2013-01-07 19:39:00,25.7,22.4,29.82,SSE,161,1.0,3.0,87,0.00,,FEW180,0.02,VWS V14.01,2013-01-08 01:39:00,
2013-01-07 19:40:00,25.6,22.0,29.82,SSE,161,0.0,3.0,86,0.00,,FEW180,0.02,VWS V14.01,2013-01-08 01:40:00,
2013-01-07 19:41:00,25.6,22.0,29.82,SSE,161,0.0,3.0,86,0.00,,FEW180,0.02,VWS V14.01,2013-01-08 01:41:00,
2013-01-07 19:42:00,25.6,22.0,29.82,SSE,161,0.0,3.0,86,0.00,,FEW180,0.02,VWS V14.01,2013-01-08 01:42:00,
2013-01-07 19:43:00,25.4,21.8,29.82,SSE,161,0.0,3.0,86,0.00,,FEW180,0.02,VWS V14.01,2013-01-08 01:43:00,
2013-01-07 19:44:00,25.4,21.8,29.82,SSE,161,0.0,3.0,86,0.00,,FEW180,0.02,VWS V14.01,2013-01-08 01:44:00,
2013-01-07 19:45:00,25.3,21.7,29.81,SSE,161,0.0,3.0,86,0.00,,FEW180,0.02,VWS V14.01,2013-01-08 01:45:00,
2013-01-07 19:46:00,25.3,21.7,29.81,SSE,161,1.0,3.0,86,0.00,,FEW180,0.02,VWS V14.01,2013-01-08 01:46:00,
2013-01-07 19:47:00,25.1,21.5,29.81,SSE,161,0.0,3.0,86,0.00,,FEW180,0.02,VWS V14.01,2013-01-08 01:47:00,
2013-01-07 19:48:00,25.0,21.4,29.81,SSE,161,0.0,3.0,86,0.00,,FEW180,0.02,VWS V14.01,2013-01-08 01:48:00,
2013-01-07 19:49:00,25.0,21.4,29.81,SSE,161,0.0,3.0,86,0.00,,FEW180,0.02,VWS V14.01,2013-01-08 01:49:00,
2013-01-07 19:50:00,24.8,21.5,29.81,SSE,161,0.0,3.0,87,0.00,,FEW180,0.02,VWS V14.01,2013-01-08 01:50:00,
2013-01-07 19:51:00,24.8,21.5,29.81,SSE,161,0.0,3.0,87,0.00,,FEW180,0.02,VWS V14.01,2013-01-08 01:51:00,
2013-01-07 19:52:00,24.8,21.5,29.81,SSE,161,0.0,3.0,87,0.00,,FEW180,0.02,VWS V14.01,2013-01-08 01:52:00,
2013-01-07 19:53:00,24.8,21.5,29.81,SSE,161,0.0,3.0,87,0.00,,FEW180,0.02,VWS V14.01,2013-01-08 01:53:00,
2013-01-07 19:54:00,24.7,21.4,29.81,SSE,161,0.0,3.0,87,0.00,,FEW180,0.02,VWS V14.01,2013-01-08 01:54:00,
2013-01-07 19:55:00,24.7,21.4,29.81,SSE,161,0.0,3.0,87,0.00,,FEW180,0.02,VWS V14.01,2013-01-08 01:55:00,
2013-01-07 19:56:00,24.7,21.4,29.81,SSE,161,0.0,3.0,87,0.00,,FEW180,0.02,VWS V14.01,2013-01-08 01:56:00,
2013-01-07 19:57:00,24.7,21.4,29.81,SSE,161,0.0,3.0,87,0.00,,FEW180,0.02,VWS V14.01,2013-01-08 01:57:00,
2013-01-07 19:58:00,24.7,21.4,29.81,SSE,161,0.0,3.0,87,0.00,,FEW180,0.02,VWS V14.01,2013-01-08 01:58:00,
2013-01-07 19:59:00,24.7,21.4,29.81,SSE,161,1.0,3.0,87,0.00,,FEW180,0.02,VWS V14.01,2013-01-08 01:59:00,
2013-01-07 20:00:00,24.7,21.4,29.81,SSE,161,0.0,3.0,87,0.00,,FEW180,0.02,VWS V14.01,2013-01-08 02:00:00,
2013-01-07 20:01:00,24.7,21.7,29.81,SSE,161,5.0,5.0,88,0.00,,FEW180,0.02,VWS V14.01,2013-01-08 02:01:00,
2013-01-07 20:02:00,24.7,21.7,29.81,SSE,161,0.0,5.0,88,0.00,,FEW180,0.02,VWS V14.01,2013-01-08 02:02:00,
2013-01-07 20:03:00,24.7,21.7,29.81,SSE,161,0.0,5.0,88,0.00,,FEW180,0.02,VWS V14.01,2013-01-08 02:03:00,
2013-01-07 20:04:00,24.8,21.8,29.81,SSE,161,0.0,5.0,88,0.00,,FEW180,0.02,VWS V14.01,2013-01-08 02:04:00,
2013-01-07 20:05:00,24.8,21.8,29.81,SSE,161,2.0,5.0,88,0.00,,FEW180,0.02,VWS V14.01,2013-01-08 02:05:00,
2013-01-07 20:06:00,24.8,21.8,29.81,SSE,161,1.0,5.0,88,0.00,,FEW180,0.02,VWS V14.01,2013-01-08 02:06:00,
2013-01-07 20:07:00,24.8,21.8,29.81,SSE,161,2.0,5.0,88,0.00,,FEW180,0.02,VWS V14.01,2013-01-08 02:07:00,
2013-01-07 20:08:00,24.8,21.8,29.81,SSE,161,0.0,5.0,88,0.00,,FEW180,0.02,VWS V14.01,2013-01-08 02:08:00,
2013-01-07 20:09:00,24.8,21.8,29.81,SSE,161,0.0,5.0,88,0.00,,FEW180,0.02,VWS V14.01,2013-01-08 02:09:00,
2013-01-07 20:10:00,25.0,22.0,29.81,SSE,161,0.0,5.0,88,0.00,,FEW180,0.02,VWS V14.01,2013-01-08 02:10:00,
2013-01-07 20:11:00,25.0,22.0,29.81,SSE,161,0.0,5.0,88,0.00,,FEW180,0.02,VWS V14.01,2013-01-08 02:11:00,
2013-01-07 20:12:00,25.0,22.0,29.81,SSE,161,0.0,5.0,88,0.00,,FEW180,0.02,VWS V14.01,2013-01-08 02:12:00,
2013-01-07 20:13:00,25.0,22.0,29.81,SSE,161,0.0,5.0,88,0.00,,FEW180,0.02,VWS V14.01,2013-01-08 02:13:00,
2013-01-07 20:14:00,25.0,22.0,29.81,SSE,161,0.0,5.0,88,0.00,,FEW180,0.02,VWS V14.01,2013-01-08 02:14:00,
2013-01-07 20:15:00,25.0,22.0,29.81,SSE,161,0.0,5.0,88,0.00,,FEW180,0.02,VWS V14.01,2013-01-08 02:15:00,
2013-01-07 20:16:00,25.0,22.0,29.81,SSE,161,0.0,5.0,88,0.00,,FEW180,0.02,VWS V14.01,2013-01-08 02:16:00,
2013-01-07 20:17:00,25.0,22.0,29.81,SSE,161,0.0,5.0,88,0.00,,FEW180,0.02,VWS V14.01,2013-01-08 02:17:00,
2013-01-07 20:18:00,25.0,22.0,29.81,SSE,161,0.0,5.0,88,0.00,,FEW180,0.02,VWS V14.01,2013-01-08 02:18:00,
2013-01-07 20:19:00,25.0,22.0,29.81,SSE,161,0.0,5.0,88,0.00,,FEW180,0.02,VWS V14.01,2013-01-08 02:19:00,
2013-01-07 20:20:00,25.0,22.0,29.81,SSE,161,0.0,5.0,88,0.00,,FEW180,0.02,VWS V14.01,2013-01-08 02:20:00,
2013-01-07 20:21:00,25.0,22.0,29.81,SSE,161,0.0,5.0,88,0.00,,FEW180,0.02,VWS V14.01,2013-01-08 02:21:00,
2013-01-07 20:22:00,25.0,22.0,29.81,SSE,161,0.0,5.0,88,0.00,,FEW180,0.02,VWS V14.01,2013-01-08 02:22:00,
2013-01-07 20:23:00,25.0,22.0,29.81,SSE,161,1.0,5.0,88,0.00,,FEW180,0.02,VWS V14.01,2013-01-08 02:23:00,
2013-01-07 20:24:00,25.0,22.0,29.81,SSE,161,0.0,5.0,88,0.00,,FEW180,0.02,VWS V14.01,2013-01-08 02:24:00,
2013-01-07 20:25:00,25.1,22.0,29.81,SSE,161,0.0,5.0,88,0.00,,FEW180,0.02,VWS V14.01,2013-01-08 02:25:00,
2013-01-07 20:26:00,25.1,22.0,29.81,SSE,161,2.0,5.0,88,0.00,,FEW180,0.02,VWS V14.01,2013-01-08 02:26:00,
2013-01-07 20:27:00,25.1,22.0,29.81,SSE,161,0.0,5.0,88,0.00,,FEW180,0.02,VWS V14.01,2013-01-08 02:27:00,
2013-01-07 20:28:00,25.1,22.0,29.81,SSE,161,0.0,5.0,88,0.00,,FEW180,0.02,VWS V14.01,2013-01-08 02:28:00,
2013-01-07 20:29:00,25.1,22.0,29.81,SSE,161,0.0,5.0,88,0.00,,FEW180,0.02,VWS V14.01,2013-01-08 02:29:00,
2013-01-07 20:30:00,25.0,22.0,29.81,SSE,161,0.0,5.0,88,0.00,,SCT250,0.02,VWS V14.01,2013-01-08 02:30:00,
2013-01-07 20:31:00,24.8,21.8,29.81,SSE,161,0.0,1.0,88,0.00,,SCT250,0.02,VWS V14.01,2013-01-08 02:31:00,
2013-01-07 20:32:00,24.8,21.5,29.81,SSE,161,0.0,1.0,87,0.00,,SCT250,0.02,VWS V14.01,2013-01-08 02:32:00,
2013-01-07 20:33:00,24.7,21.4,29.81,SSE,161,0.0,1.0,87,0.00,,SCT250,0.02,VWS V14.01,2013-01-08 02:33:00,
2013-01-07 20:34:00,24.5,21.2,29.81,SSE,161,2.0,2.0,87,0.00,,SCT250,0.02,VWS V14.01,2013-01-08 02:34:00,
2013-01-07 20:35:00,24.5,21.2,29.81,SSE,161,2.0,2.0,87,0.00,,SCT250,0.02,VWS V14.01,2013-01-08 02:35:00,
2013-01-07 20:36:00,24.4,21.1,29.81,SSE,161,2.0,3.0,87,0.00,,SCT250,0.02,VWS V14.01,2013-01-08 02:36:00,
2013-01-07 20:37:00,24.4,21.4,29.81,SSE,160,2.0,4.0,88,0.00,,SCT250,0.02,VWS V14.01,2013-01-08 02:37:00,
2013-01-07 20:38:00,24.4,21.4,29.81,SSE,160,0.0,4.0,88,0.00,,SCT250,0.02,VWS V14.01,2013-01-08 02:38:00,
2013-01-07 20:39:00,24.4,21.4,29.81,SSE,160,0.0,4.0,88,0.00,,SCT250,0.02,VWS V14.01,2013-01-08 02:39:00,
2013-01-07 20:40:00,24.4,21.6,29.81,SSE,160,0.0,4.0,89,0.00,,SCT250,0.02,VWS V14.01,2013-01-08 02:40:00,
2013-01-07 20:41:00,24.4,21.6,29.81,SSE,160,0.0,4.0,89,0.00,,SCT250,0.02,VWS V14.01,2013-01-08 02:41:00,
2013-01-07 20:42:00,24.5,21.7,29.81,SSE,160,0.0,4.0,89,0.00,,SCT250,0.02,VWS V14.01,2013-01-08 02:42:00,
2013-01-07 20:43:00,24.5,21.7,29.81,SSE,160,0.0,4.0,89,0.00,,SCT250,0.02,VWS V14.01,2013-01-08 02:43:00,
2013-01-07 20:44:00,24.7,21.9,29.81,SSE,160,0.0,4.0,89,0.00,,SCT250,0.02,VWS V14.01,2013-01-08 02:44:00,
2013-01-07 20:45:00,24.7,21.9,29.81,SSE,160,0.0,4.0,89,0.00,,SCT250,0.02,VWS V14.01,2013-01-08 02:45:00,
2013-01-07 20:46:00,24.7,21.9,29.81,SSE,160,0.0,4.0,89,0.00,,SCT250,0.02,VWS V14.01,2013-01-08 02:46:00,
2013-01-07 20:47:00,24.8,22.0,29.81,SSE,160,1.0,4.0,89,0.00,,SCT250,0.02,VWS V14.01,2013-01-08 02:47:00,
2013-01-07 20:48:00,24.8,22.0,29.81,SSE,160,1.0,4.0,89,0.00,,SCT250,0.02,VWS V14.01,2013-01-08 02:48:00,
2013-01-07 20:49:00,25.0,22.2,29.81,SSE,160,0.0,4.0,89,0.00,,SCT250,0.02,VWS V14.01,2013-01-08 02:49:00,
2013-01-07 20:50:00,25.0,22.2,29.81,SSE,160,0.0,4.0,89,0.00,,SCT250,0.02,VWS V14.01,2013-01-08 02:50:00,
2013-01-07 20:51:00,25.0,22.2,29.81,SSE,160,0.0,4.0,89,0.00,,SCT250,0.02,VWS V14.01,2013-01-08 02:51:00,
2013-01-07 20:52:00,25.0,22.2,29.81,SSE,160,0.0,4.0,89,0.00,,SCT250,0.02,VWS V14.01,2013-01-08 02:52:00,
2013-01-07 20:53:00,25.0,22.2,29.81,SSE,160,0.0,4.0,89,0.00,,SCT250,0.02,VWS V14.01,2013-01-08 02:53:00,
2013-01-07 20:54:00,25.0,22.2,29.81,SSE,160,0.0,4.0,89,0.00,,SCT250,0.02,VWS V14.01,2013-01-08 02:54:00,
2013-01-07 20:55:00,25.0,22.2,29.81,SSE,160,0.0,4.0,89,0.00,,SCT250,0.02,VWS V14.01,2013-01-08 02:55:00,
2013-01-07 20:56:00,25.0,22.2,29.81,SSE,160,0.0,4.0,89,0.00,,SCT250,0.02,VWS V14.01,2013-01-08 02:56:00,
2013-01-07 20:57:00,25.0,22.2,29.81,SSE,160,0.0,4.0,89,0.00,,SCT250,0.02,VWS V14.01,2013-01-08 02:57:00,
2013-01-07 20:58:00,25.0,22.2,29.81,SSE,160,0.0,4.0,89,0.00,,SCT250,0.02,VWS V14.01,2013-01-08 02:58:00,
2013-01-07 20:59:00,25.0,22.2,29.81,SSE,160,0.0,4.0,89,0.00,,SCT250,0.02,VWS V14.01,2013-01-08 02:59:00,
2013-01-07 21:00:00,25.0,22.2,29.82,SSE,160,0.0,4.0,89,0.00,,SCT250,0.02,VWS V14.01,2013-01-08 03:00:00,
2013-01-07 21:01:00,25.0,22.0,29.82,SSE,160,0.0,0.0,88,0.00,,SCT250,0.02,VWS V14.01,2013-01-08 03:01:00,
2013-01-07 21:02:00,25.0,22.2,29.82,SSE,160,0.0,1.0,89,0.00,,SCT250,0.02,VWS V14.01,2013-01-08 03:02:00,
2013-01-07 21:03:00,25.0,22.2,29.82,SSE,160,0.0,1.0,89,0.00,,SCT250,0.02,VWS V14.01,2013-01-08 03:03:00,
2013-01-07 21:04:00,25.0,22.2,29.82,SSE,160,0.0,1.0,89,0.00,,SCT250,0.02,VWS V14.01,2013-01-08 03:04:00,
2013-01-07 21:05:00,25.1,22.3,29.82,SSE,160,0.0,1.0,89,0.00,,SCT250,0.02,VWS V14.01,2013-01-08 03:05:00,
2013-01-07 21:06:00,25.1,22.3,29.82,SSE,160,0.0,2.0,89,0.00,,SCT250,0.02,VWS V14.01,2013-01-08 03:06:00,
2013-01-07 21:07:00,25.1,22.3,29.82,SSE,160,0.0,2.0,89,0.00,,SCT250,0.02,VWS V14.01,2013-01-08 03:07:00,
2013-01-07 21:08:00,25.3,22.5,29.82,SSE,160,3.0,3.0,89,0.00,,SCT250,0.02,VWS V14.01,2013-01-08 03:08:00,
2013-01-07 21:09:00,25.4,22.6,29.82,SSE,161,1.0,3.0,89,0.00,,SCT250,0.02,VWS V14.01,2013-01-08 03:09:00,
2013-01-07 21:10:00,25.4,22.6,29.82,SSE,161,2.0,3.0,89,0.00,,SCT250,0.02,VWS V14.01,2013-01-08 03:10:00,
2013-01-07 21:11:00,25.4,22.6,29.82,SSE,161,0.0,3.0,89,0.00,,SCT250,0.02,VWS V14.01,2013-01-08 03:11:00,
2013-01-07 21:12:00,25.4,22.6,29.82,SSE,161,2.0,3.0,89,0.00,,SCT250,0.02,VWS V14.01,2013-01-08 03:12:00,
2013-01-07 21:13:00,25.6,22.8,29.82,SSE,161,2.0,3.0,89,0.00,,SCT250,0.02,VWS V14.01,2013-01-08 03:13:00,
2013-01-07 21:14:00,25.6,22.8,29.82,SSE,161,1.0,3.0,89,0.00,,SCT250,0.02,VWS V14.01,2013-01-08 03:14:00,
2013-01-07 21:15:00,25.6,22.5,29.82,SSE,161,0.0,3.0,88,0.00,,SCT250,0.02,VWS V14.01,2013-01-08 03:15:00,
2013-01-07 21:16:00,25.6,22.5,29.82,SSE,161,0.0,3.0,88,0.00,,SCT250,0.02,VWS V14.01,2013-01-08 03:16:00,
2013-01-07 21:17:00,25.6,22.5,29.82,SSE,161,0.0,3.0,88,0.00,,SCT250,0.02,VWS V14.01,2013-01-08 03:17:00,
2013-01-07 21:18:00,25.6,22.5,29.82,SSE,161,0.0,3.0,88,0.00,,SCT250,0.02,VWS V14.01,2013-01-08 03:18:00,
2013-01-07 21:19:00,25.6,22.5,29.82,SSE,161,0.0,3.0,88,0.00,,SCT250,0.02,VWS V14.01,2013-01-08 03:19:00,
2013-01-07 21:20:00,25.6,22.5,29.82,SSE,161,0.0,3.0,88,0.00,,SCT250,0.02,VWS V14.01,2013-01-08 03:20:00,
2013-01-07 21:21:00,25.6,22.5,29.82,SSE,161,0.0,3.0,88,0.00,,SCT250,0.02,VWS V14.01,2013-01-08 03:21:00,
2013-01-07 21:22:00,25.6,22.5,29.82,SSE,161,0.0,3.0,88,0.00,,SCT250,0.02,VWS V14.01,2013-01-08 03:22:00,
2013-01-07 21:23:00,25.6,22.5,29.82,SSE,161,0.0,3.0,88,0.00,,SCT250,0.02,VWS V14.01,2013-01-08 03:23:00,
2013-01-07 21:24:00,25.4,22.4,29.82,SSE,161,2.0,3.0,88,0.00,,SCT250,0.02,VWS V14.01,2013-01-08 03:24:00,
2013-01-07 21:25:00,25.4,22.4,29.82,SSE,161,0.0,3.0,88,0.00,,SCT250,0.02,VWS V14.01,2013-01-08 03:25:00,
2013-01-07 21:26:00,25.4,22.1,29.82,SSE,161,0.0,3.0,87,0.00,,SCT250,0.02,VWS V14.01,2013-01-08 03:26:00,
2013-01-07 21:27:00,25.4,22.1,29.82,SSE,161,0.0,3.0,87,0.00,,SCT250,0.02,VWS V14.01,2013-01-08 03:27:00,
2013-01-07 21:28:00,25.4,22.1,29.82,SSE,161,0.0,3.0,87,0.00,,SCT250,0.02,VWS V14.01,2013-01-08 03:28:00,
2013-01-07 21:29:00,25.4,22.1,29.82,SSE,161,1.0,3.0,87,0.00,,SCT250,0.02,VWS V14.01,2013-01-08 03:29:00,
2013-01-07 21:30:00,25.4,22.1,29.82,SSE,161,0.0,3.0,87,0.00,,BKN210,0.02,VWS V14.01,2013-01-08 03:30:00,
2013-01-07 21:31:00,25.4,22.1,29.82,SSE,161,0.0,0.0,87,0.00,,BKN210,0.02,VWS V14.01,2013-01-08 03:31:00,
2013-01-07 21:32:00,25.3,22.0,29.82,SSE,161,0.0,0.0,87,0.00,,BKN210,0.02,VWS V14.01,2013-01-08 03:32:00,
2013-01-07 21:33:00,25.3,22.0,29.82,SSE,161,0.0,0.0,87,0.00,,BKN210,0.02,VWS V14.01,2013-01-08 03:33:00,
2013-01-07 21:34:00,25.3,22.0,29.82,SSE,161,0.0,0.0,87,0.00,,BKN210,0.02,VWS V14.01,2013-01-08 03:34:00,
2013-01-07 21:35:00,25.3,22.0,29.82,SSE,161,0.0,0.0,87,0.00,,BKN210,0.02,VWS V14.01,2013-01-08 03:35:00,
2013-01-07 21:36:00,25.3,22.0,29.82,SSE,161,0.0,1.0,87,0.00,,BKN210,0.02,VWS V14.01,2013-01-08 03:36:00,
2013-01-07 21:37:00,25.3,22.0,29.82,SSE,161,0.0,1.0,87,0.00,,BKN210,0.02,VWS V14.01,2013-01-08 03:37:00,
2013-01-07 21:38:00,25.1,21.8,29.82,SSE,161,0.0,1.0,87,0.00,,BKN210,0.02,VWS V14.01,2013-01-08 03:38:00,
2013-01-07 21:39:00,25.1,21.8,29.82,SSE,161,0.0,1.0,87,0.00,,BKN210,0.02,VWS V14.01,2013-01-08 03:39:00,
2013-01-07 21:40:00,25.1,21.8,29.82,SSE,161,0.0,1.0,87,0.00,,BKN210,0.02,VWS V14.01,2013-01-08 03:40:00,
2013-01-07 21:41:00,25.1,21.8,29.82,SSE,161,0.0,1.0,87,0.00,,BKN210,0.02,VWS V14.01,2013-01-08 03:41:00,
2013-01-07 21:42:00,25.1,21.8,29.82,SSE,161,0.0,1.0,87,0.00,,BKN210,0.02,VWS V14.01,2013-01-08 03:42:00,
2013-01-07 21:43:00,25.1,21.8,29.82,SSE,161,0.0,1.0,87,0.00,,BKN210,0.02,VWS V14.01,2013-01-08 03:43:00,
2013-01-07 21:44:00,25.1,21.8,29.82,SSE,160,0.0,3.0,87,0.00,,BKN210,0.02,VWS V14.01,2013-01-08 03:44:00,
2013-01-07 21:45:00,25.1,21.8,29.82,SSE,160,0.0,3.0,87,0.00,,BKN210,0.02,VWS V14.01,2013-01-08 03:45:00,
2013-01-07 21:46:00,25.0,21.7,29.82,SSE,160,0.0,3.0,87,0.00,,BKN210,0.02,VWS V14.01,2013-01-08 03:46:00,
2013-01-07 21:47:00,25.0,21.7,29.82,SSE,160,0.0,3.0,87,0.00,,BKN210,0.02,VWS V14.01,2013-01-08 03:47:00,
2013-01-07 21:48:00,25.0,21.7,29.82,SSE,160,0.0,5.0,87,0.00,,BKN210,0.02,VWS V14.01,2013-01-08 03:48:00,
2013-01-07 21:49:00,25.0,21.7,29.82,SSE,160,0.0,5.0,87,0.00,,BKN210,0.02,VWS V14.01,2013-01-08 03:49:00,
2013-01-07 21:50:00,25.0,21.7,29.82,SSE,160,0.0,5.0,87,0.00,,BKN210,0.02,VWS V14.01,2013-01-08 03:50:00,
2013-01-07 21:51:00,24.8,21.5,29.82,SSE,160,0.0,5.0,87,0.00,,BKN210,0.02,VWS V14.01,2013-01-08 03:51:00,
2013-01-07 21:52:00,24.8,21.5,29.82,SSE,160,0.0,5.0,87,0.00,,BKN210,0.02,VWS V14.01,2013-01-08 03:52:00,
2013-01-07 21:53:00,24.7,21.4,29.82,SSE,160,1.0,5.0,87,0.00,,BKN210,0.02,VWS V14.01,2013-01-08 03:53:00,
2013-01-07 21:54:00,24.7,21.4,29.82,SSE,160,0.0,5.0,87,0.00,,BKN210,0.02,VWS V14.01,2013-01-08 03:54:00,
2013-01-07 21:55:00,24.7,21.4,29.82,SSE,160,3.0,5.0,87,0.00,,BKN210,0.02,VWS V14.01,2013-01-08 03:55:00,
2013-01-07 21:56:00,24.5,21.2,29.82,SSE,160,3.0,5.0,87,0.00,,BKN210,0.02,VWS V14.01,2013-01-08 03:56:00,
2013-01-07 21:57:00,24.5,21.2,29.82,SSE,157,4.0,5.0,87,0.00,,BKN210,0.02,VWS V14.01,2013-01-08 03:57:00,
2013-01-07 21:58:00,24.5,21.5,29.82,SSE,157,2.0,5.0,88,0.00,,BKN210,0.02,VWS V14.01,2013-01-08 03:58:00,
2013-01-07 21:59:00,24.5,21.5,29.82,SSE,157,1.0,5.0,88,0.00,,BKN210,0.02,VWS V14.01,2013-01-08 03:59:00,
2013-01-07 22:00:00,24.5,21.5,29.82,SSE,157,0.0,5.0,88,0.00,,BKN210,0.02,VWS V14.01,2013-01-08 04:00:00,
2013-01-07 22:01:00,24.5,21.2,29.82,SSE,156,0.0,3.0,87,0.00,,BKN210,0.02,VWS V14.01,2013-01-08 04:01:00,
2013-01-07 22:02:00,24.5,21.5,29.82,SSE,156,0.0,3.0,88,0.00,,BKN210,0.02,VWS V14.01,2013-01-08 04:02:00,
2013-01-07 22:03:00,24.5,21.2,29.82,SSE,156,1.0,3.0,87,0.00,,BKN210,0.02,VWS V14.01,2013-01-08 04:03:00,
2013-01-07 22:04:00,24.4,21.1,29.82,SSE,156,0.0,3.0,87,0.00,,BKN210,0.02,VWS V14.01,2013-01-08 04:04:00,
2013-01-07 22:05:00,24.4,21.4,29.82,SSE,156,0.0,3.0,88,0.00,,BKN210,0.02,VWS V14.01,2013-01-08 04:05:00,
2013-01-07 22:06:00,24.4,21.4,29.82,SSE,156,0.0,3.0,88,0.00,,BKN210,0.02,VWS V14.01,2013-01-08 04:06:00,
2013-01-07 22:07:00,24.4,21.4,29.82,SSE,156,0.0,3.0,88,0.00,,BKN210,0.02,VWS V14.01,2013-01-08 04:07:00,
2013-01-07 22:08:00,24.4,21.1,29.82,SSE,156,0.0,3.0,87,0.00,,BKN210,0.02,VWS V14.01,2013-01-08 04:08:00,
2013-01-07 22:09:00,24.2,21.2,29.82,SSE,156,0.0,3.0,88,0.00,,BKN210,0.02,VWS V14.01,2013-01-08 04:09:00,
2013-01-07 22:10:00,24.4,21.4,29.82,SSE,156,0.0,3.0,88,0.00,,BKN210,0.02,VWS V14.01,2013-01-08 04:10:00,
2013-01-07 22:11:00,24.4,21.4,29.82,SSE,156,2.0,4.0,88,0.00,,BKN210,0.02,VWS V14.01,2013-01-08 04:11:00,
2013-01-07 22:12:00,24.4,21.4,29.82,SSE,156,0.0,4.0,88,0.00,,BKN210,0.02,VWS V14.01,2013-01-08 04:12:00,
2013-01-07 22:13:00,24.4,21.4,29.82,SSE,156,1.0,4.0,88,0.00,,BKN210,0.02,VWS V14.01,2013-01-08 04:13:00,
2013-01-07 22:14:00,24.4,21.4,29.82,SSE,156,1.0,4.0,88,0.00,,BKN210,0.02,VWS V14.01,2013-01-08 04:14:00,
2013-01-07 22:15:00,24.4,21.4,29.82,SSE,156,3.0,6.0,88,0.00,,BKN210,0.02,VWS V14.01,2013-01-08 04:15:00,
2013-01-07 22:16:00,24.5,21.5,29.82,SE,144,1.0,6.0,88,0.00,,BKN210,0.02,VWS V14.01,2013-01-08 04:16:00,
2013-01-07 22:17:00,24.4,21.4,29.82,SE,144,0.0,6.0,88,0.00,,BKN210,0.02,VWS V14.01,2013-01-08 04:17:00,
2013-01-07 22:18:00,24.4,21.4,29.82,SE,144,0.0,6.0,88,0.00,,BKN210,0.02,VWS V14.01,2013-01-08 04:18:00,
2013-01-07 22:19:00,24.4,21.4,29.82,SE,144,0.0,6.0,88,0.00,,BKN210,0.02,VWS V14.01,2013-01-08 04:19:00,
2013-01-07 22:20:00,24.2,21.2,29.82,SE,144,0.0,6.0,88,0.00,,BKN210,0.02,VWS V14.01,2013-01-08 04:20:00,
2013-01-07 22:21:00,24.2,21.2,29.82,SE,144,0.0,6.0,88,0.00,,BKN210,0.02,VWS V14.01,2013-01-08 04:21:00,
2013-01-07 22:22:00,24.2,21.2,29.82,SE,144,0.0,6.0,88,0.00,,BKN210,0.02,VWS V14.01,2013-01-08 04:22:00,
2013-01-07 22:23:00,24.2,21.2,29.82,SE,144,0.0,6.0,88,0.00,,BKN210,0.02,VWS V14.01,2013-01-08 04:23:00,
2013-01-07 22:24:00,24.2,21.2,29.82,SE,144,0.0,6.0,88,0.00,,BKN210,0.02,VWS V14.01,2013-01-08 04:24:00,
2013-01-07 22:25:00,24.2,21.2,29.82,SE,144,0.0,6.0,88,0.00,,BKN210,0.02,VWS V14.01,2013-01-08 04:25:00,
2013-01-07 22:26:00,24.2,21.2,29.82,SE,144,0.0,6.0,88,0.00,,BKN210,0.02,VWS V14.01,2013-01-08 04:26:00,
2013-01-07 22:27:00,24.2,21.2,29.82,SE,144,0.0,6.0,88,0.00,,BKN210,0.02,VWS V14.01,2013-01-08 04:27:00,
2013-01-07 22:28:00,24.2,21.2,29.82,SE,144,0.0,6.0,88,0.00,,BKN210,0.02,VWS V14.01,2013-01-08 04:28:00,
2013-01-07 22:29:00,24.4,21.6,29.82,SE,144,0.0,6.0,89,0.00,,BKN210,0.02,VWS V14.01,2013-01-08 04:29:00,
2013-01-07 22:30:00,24.4,21.6,29.82,SE,144,0.0,6.0,89,0.00,,BKN210,0.02,VWS V14.01,2013-01-08 04:30:00,
2013-01-07 22:31:00,24.4,21.4,29.82,SE,144,0.0,0.0,88,0.00,,BKN210,0.02,VWS V14.01,2013-01-08 04:31:00,
2013-01-07 22:32:00,24.4,21.4,29.82,SE,144,0.0,3.0,88,0.00,,BKN210,0.02,VWS V14.01,2013-01-08 04:32:00,
2013-01-07 22:33:00,24.4,21.4,29.82,SE,144,0.0,3.0,88,0.00,,BKN210,0.02,VWS V14.01,2013-01-08 04:33:00,
2013-01-07 22:34:00,24.4,21.4,29.82,SE,144,0.0,3.0,88,0.00,,BKN210,0.02,VWS V14.01,2013-01-08 04:34:00,
2013-01-07 22:35:00,24.4,21.4,29.82,SE,144,0.0,3.0,88,0.00,,BKN210,0.02,VWS V14.01,2013-01-08 04:35:00,
2013-01-07 22:36:00,24.4,21.4,29.82,SE,144,0.0,3.0,88,0.00,,BKN210,0.02,VWS V14.01,2013-01-08 04:36:00,
2013-01-07 22:37:00,24.5,21.7,29.82,SE,144,0.0,3.0,89,0.00,,BKN210,0.02,VWS V14.01,2013-01-08 04:37:00,
2013-01-07 22:38:00,24.5,21.7,29.82,SE,144,0.0,3.0,89,0.00,,BKN210,0.02,VWS V14.01,2013-01-08 04:38:00,
2013-01-07 22:39:00,24.5,21.5,29.82,SE,144,0.0,3.0,88,0.00,,BKN210,0.02,VWS V14.01,2013-01-08 04:39:00,
2013-01-07 22:40:00,24.5,21.5,29.82,SE,144,0.0,3.0,88,0.00,,BKN210,0.02,VWS V14.01,2013-01-08 04:40:00,
2013-01-07 22:41:00,24.5,21.5,29.82,SE,144,0.0,3.0,88,0.00,,BKN210,0.02,VWS V14.01,2013-01-08 04:41:00,
2013-01-07 22:42:00,24.5,21.5,29.82,SE,144,0.0,3.0,88,0.00,,BKN210,0.02,VWS V14.01,2013-01-08 04:42:00,
2013-01-07 22:43:00,24.5,21.5,29.82,SE,144,0.0,3.0,88,0.00,,BKN210,0.02,VWS V14.01,2013-01-08 04:43:00,
2013-01-07 22:44:00,24.7,21.7,29.82,SE,144,0.0,3.0,88,0.00,,BKN210,0.02,VWS V14.01,2013-01-08 04:44:00,
2013-01-07 22:45:00,24.7,21.7,29.82,SE,144,0.0,3.0,88,0.00,,BKN210,0.02,VWS V14.01,2013-01-08 04:45:00,
2013-01-07 22:46:00,24.7,21.7,29.82,SE,146,1.0,3.0,88,0.00,,BKN210,0.02,VWS V14.01,2013-01-08 04:46:00,
2013-01-07 22:47:00,24.7,21.7,29.82,SE,146,2.0,3.0,88,0.00,,BKN210,0.02,VWS V14.01,2013-01-08 04:47:00,
2013-01-07 22:48:00,24.7,21.7,29.82,SE,144,5.0,5.0,88,0.00,,BKN210,0.02,VWS V14.01,2013-01-08 04:48:00,
2013-01-07 22:49:00,24.7,21.7,29.82,SE,144,1.0,5.0,88,0.00,,BKN210,0.02,VWS V14.01,2013-01-08 04:49:00,
2013-01-07 22:50:00,24.7,21.7,29.82,SE,144,0.0,5.0,88,0.00,,BKN210,0.02,VWS V14.01,2013-01-08 04:50:00,
2013-01-07 22:51:00,24.7,21.7,29.82,SE,144,2.0,5.0,88,0.00,,BKN210,0.02,VWS V14.01,2013-01-08 04:51:00,
2013-01-07 22:52:00,24.7,21.7,29.82,SE,144,0.0,5.0,88,0.00,,BKN210,0.02,VWS V14.01,2013-01-08 04:52:00,
2013-01-07 22:53:00,24.7,21.7,29.82,SE,144,0.0,5.0,88,0.00,,BKN210,0.02,VWS V14.01,2013-01-08 04:53:00,
2013-01-07 22:54:00,24.7,21.7,29.82,SE,144,0.0,5.0,88,0.00,,BKN210,0.02,VWS V14.01,2013-01-08 04:54:00,
2013-01-07 22:55:00,24.7,21.4,29.82,SE,144,0.0,5.0,87,0.00,,BKN210,0.02,VWS V14.01,2013-01-08 04:55:00,
2013-01-07 22:56:00,24.7,21.7,29.82,SE,144,0.0,5.0,88,0.00,,BKN210,0.02,VWS V14.01,2013-01-08 04:56:00,
2013-01-07 22:57:00,24.7,21.7,29.82,SE,144,0.0,5.0,88,0.00,,BKN210,0.02,VWS V14.01,2013-01-08 04:57:00,
2013-01-07 22:58:00,24.5,21.2,29.82,SE,144,0.0,5.0,87,0.00,,BKN210,0.02,VWS V14.01,2013-01-08 04:58:00,
2013-01-07 22:59:00,24.5,21.2,29.82,SE,144,0.0,5.0,87,0.00,,BKN210,0.02,VWS V14.01,2013-01-08 04:59:00,
2013-01-07 23:00:00,24.5,21.2,29.82,SE,144,0.0,5.0,87,0.00,,BKN210,0.02,VWS V14.01,2013-01-08 05:00:00,
2013-01-07 23:01:00,24.5,21.2,29.82,SE,144,0.0,0.0,87,0.00,,BKN210,0.02,VWS V14.01,2013-01-08 05:01:00,
2013-01-07 23:02:00,24.4,21.1,29.82,SE,144,0.0,0.0,87,0.00,,BKN210,0.02,VWS V14.01,2013-01-08 05:02:00,
2013-01-07 23:03:00,24.4,21.1,29.82,SE,144,0.0,0.0,87,0.00,,BKN210,0.02,VWS V14.01,2013-01-08 05:03:00,
2013-01-07 23:04:00,24.4,21.1,29.82,SE,144,0.0,0.0,87,0.00,,BKN210,0.02,VWS V14.01,2013-01-08 05:04:00,
2013-01-07 23:05:00,24.4,21.1,29.82,SE,144,0.0,0.0,87,0.00,,BKN210,0.02,VWS V14.01,2013-01-08 05:05:00,
2013-01-07 23:06:00,24.4,21.1,29.82,SE,144,0.0,0.0,87,0.00,,BKN210,0.02,VWS V14.01,2013-01-08 05:06:00,
2013-01-07 23:07:00,24.4,21.4,29.82,SE,144,0.0,2.0,88,0.00,,BKN210,0.02,VWS V14.01,2013-01-08 05:07:00,
2013-01-07 23:08:00,24.4,21.4,29.82,SE,144,0.0,2.0,88,0.00,,BKN210,0.02,VWS V14.01,2013-01-08 05:08:00,
2013-01-07 23:09:00,24.5,21.5,29.82,SE,144,0.0,2.0,88,0.00,,BKN210,0.02,VWS V14.01,2013-01-08 05:09:00,
2013-01-07 23:10:00,24.5,21.5,29.82,SE,144,0.0,2.0,88,0.00,,BKN210,0.02,VWS V14.01,2013-01-08 05:10:00,
2013-01-07 23:11:00,24.5,21.5,29.82,SE,144,0.0,2.0,88,0.00,,BKN210,0.02,VWS V14.01,2013-01-08 05:11:00,
2013-01-07 23:12:00,24.5,21.2,29.82,SE,144,0.0,2.0,87,0.00,,BKN210,0.02,VWS V14.01,2013-01-08 05:12:00,
2013-01-07 23:13:00,24.5,21.2,29.82,SE,144,0.0,2.0,87,0.00,,BKN210,0.02,VWS V14.01,2013-01-08 05:13:00,
2013-01-07 23:14:00,24.5,21.2,29.82,SE,144,0.0,2.0,87,0.00,,BKN210,0.02,VWS V14.01,2013-01-08 05:14:00,
2013-01-07 23:15:00,24.5,21.2,29.82,SE,144,0.0,2.0,87,0.00,,BKN210,0.02,VWS V14.01,2013-01-08 05:15:00,
2013-01-07 23:16:00,24.5,21.2,29.82,SE,144,0.0,2.0,87,0.00,,BKN210,0.02,VWS V14.01,2013-01-08 05:16:00,
2013-01-07 23:17:00,24.7,21.7,29.82,SE,144,0.0,2.0,88,0.00,,BKN210,0.02,VWS V14.01,2013-01-08 05:17:00,
2013-01-07 23:18:00,24.7,21.7,29.82,SE,144,0.0,2.0,88,0.00,,BKN210,0.02,VWS V14.01,2013-01-08 05:18:00,
2013-01-07 23:19:00,24.7,21.7,29.82,SE,144,0.0,2.0,88,0.00,,BKN210,0.02,VWS V14.01,2013-01-08 05:19:00,
2013-01-07 23:20:00,24.7,21.4,29.82,SE,144,0.0,2.0,87,0.00,,BKN210,0.02,VWS V14.01,2013-01-08 05:20:00,
2013-01-07 23:21:00,24.7,21.4,29.82,SE,144,0.0,2.0,87,0.00,,BKN210,0.02,VWS V14.01,2013-01-08 05:21:00,
2013-01-07 23:22:00,24.8,21.5,29.82,SE,144,0.0,2.0,87,0.00,,BKN210,0.02,VWS V14.01,2013-01-08 05:22:00,
2013-01-07 23:23:00,24.8,21.5,29.82,SE,144,0.0,2.0,87,0.00,,BKN210,0.02,VWS V14.01,2013-01-08 05:23:00,
2013-01-07 23:24:00,24.8,21.5,29.82,SE,144,0.0,2.0,87,0.00,,BKN210,0.02,VWS V14.01,2013-01-08 05:24:00,
2013-01-07 23:25:00,24.8,21.5,29.82,SE,144,0.0,2.0,87,0.00,,BKN210,0.02,VWS V14.01,2013-01-08 05:25:00,
2013-01-07 23:26:00,24.8,21.5,29.82,SE,144,0.0,2.0,87,0.00,,BKN210,0.02,VWS V14.01,2013-01-08 05:26:00,
2013-01-07 23:27:00,24.7,21.4,29.82,SE,144,0.0,2.0,87,0.00,,BKN210,0.02,VWS V14.01,2013-01-08 05:27:00,
2013-01-07 23:28:00,24.7,21.4,29.82,SE,144,0.0,2.0,87,0.00,,BKN210,0.02,VWS V14.01,2013-01-08 05:28:00,
2013-01-07 23:29:00,24.7,21.4,29.82,SE,144,0.0,2.0,87,0.00,,BKN210,0.02,VWS V14.01,2013-01-08 05:29:00,
2013-01-07 23:30:00,24.7,21.4,29.83,SE,144,0.0,2.0,87,0.00,,FEW110,0.02,VWS V14.01,2013-01-08 05:30:00,
2013-01-07 23:31:00,24.7,21.4,29.83,SE,144,0.0,0.0,87,0.00,,FEW110,0.02,VWS V14.01,2013-01-08 05:31:00,
2013-01-07 23:32:00,24.5,21.2,29.83,SE,144,0.0,0.0,87,0.00,,FEW110,0.02,VWS V14.01,2013-01-08 05:32:00,
2013-01-07 23:33:00,24.5,21.2,29.83,SE,144,0.0,0.0,87,0.00,,FEW110,0.02,VWS V14.01,2013-01-08 05:33:00,
2013-01-07 23:34:00,24.5,21.2,29.83,SE,144,0.0,0.0,87,0.00,,FEW110,0.02,VWS V14.01,2013-01-08 05:34:00,
2013-01-07 23:35:00,24.5,21.2,29.83,SE,144,0.0,0.0,87,0.00,,FEW110,0.02,VWS V14.01,2013-01-08 05:35:00,
2013-01-07 23:36:00,24.5,21.2,29.83,SE,144,0.0,1.0,87,0.00,,FEW110,0.02,VWS V14.01,2013-01-08 05:36:00,
2013-01-07 23:37:00,24.5,21.2,29.83,SE,144,0.0,1.0,87,0.00,,FEW110,0.02,VWS V14.01,2013-01-08 05:37:00,
2013-01-07 23:38:00,24.5,21.2,29.83,SE,144,0.0,1.0,87,0.00,,FEW110,0.02,VWS V14.01,2013-01-08 05:38:00,
2013-01-07 23:39:00,24.5,21.2,29.83,SE,144,0.0,1.0,87,0.00,,FEW110,0.02,VWS V14.01,2013-01-08 05:39:00,
2013-01-07 23:40:00,24.5,21.2,29.83,SE,144,0.0,1.0,87,0.00,,FEW110,0.02,VWS V14.01,2013-01-08 05:40:00,
2013-01-07 23:41:00,24.7,21.4,29.83,SE,144,0.0,1.0,87,0.00,,FEW110,0.02,VWS V14.01,2013-01-08 05:41:00,
2013-01-07 23:42:00,24.7,21.4,29.83,SE,144,0.0,1.0,87,0.00,,FEW110,0.02,VWS V14.01,2013-01-08 05:42:00,
2013-01-07 23:43:00,24.5,21.2,29.83,SE,144,0.0,1.0,87,0.00,,FEW110,0.02,VWS V14.01,2013-01-08 05:43:00,
2013-01-07 23:44:00,24.7,21.4,29.83,SE,144,0.0,1.0,87,0.00,,FEW110,0.02,VWS V14.01,2013-01-08 05:44:00,
2013-01-07 23:45:00,24.5,21.2,29.83,SE,144,0.0,1.0,87,0.00,,FEW110,0.02,VWS V14.01,2013-01-08 05:45:00,
2013-01-07 23:46:00,24.5,21.2,29.83,SE,144,0.0,1.0,87,0.00,,FEW110,0.02,VWS V14.01,2013-01-08 05:46:00,
2013-01-07 23:47:00,24.5,21.2,29.83,SE,144,0.0,1.0,87,0.00,,FEW110,0.02,VWS V14.01,2013-01-08 05:47:00,
2013-01-07 23:48:00,24.5,21.2,29.83,SE,144,0.0,1.0,87,0.00,,FEW110,0.02,VWS V14.01,2013-01-08 05:48:00,
2013-01-07 23:49:00,24.5,21.2,29.83,SE,144,0.0,1.0,87,0.00,,FEW110,0.02,VWS V14.01,2013-01-08 05:49:00,
2013-01-07 23:50:00,24.5,21.2,29.83,SE,144,0.0,1.0,87,0.00,,FEW110,0.02,VWS V14.01,2013-01-08 05:50:00,
2013-01-07 23:51:00,24.5,21.2,29.83,SE,144,0.0,1.0,87,0.00,,FEW110,0.02,VWS V14.01,2013-01-08 05:51:00,
2013-01-07 23:52:00,24.5,21.2,29.83,SE,144,0.0,1.0,87,0.00,,FEW110,0.02,VWS V14.01,2013-01-08 05:52:00,
2013-01-07 23:53:00,24.4,21.1,29.83,SE,144,0.0,1.0,87,0.00,,FEW110,0.02,VWS V14.01,2013-01-08 05:53:00,
2013-01-07 23:54:00,24.4,21.1,29.83,SE,144,0.0,1.0,87,0.00,,FEW110,0.02,VWS V14.01,2013-01-08 05:54:00,
2013-01-07 23:55:00,24.4,21.1,29.83,SE,144,0.0,1.0,87,0.00,,FEW110,0.02,VWS V14.01,2013-01-08 05:55:00,
2013-01-07 23:56:00,24.4,21.1,29.83,SE,144,0.0,1.0,87,0.00,,FEW110,0.02,VWS V14.01,2013-01-08 05:56:00,
2013-01-07 23:57:00,24.2,20.9,29.83,SE,144,0.0,1.0,87,0.00,,FEW110,0.02,VWS V14.01,2013-01-08 05:57:00,
2013-01-07 23:58:00,24.2,20.9,29.83,SE,144,0.0,1.0,87,0.00,,FEW110,0.02,VWS V14.01,2013-01-08 05:58:00,
2013-01-07 23:59:00,24.2,20.9,29.83,SE,144,0.0,1.0,87,0.00,,FEW110,0.02,VWS V14.01,2013-01-08 05:59:00,